[[[{"header":{"parameterUnit":"kt","parameterCategory":2,"dx":1,"dy":1,"la1":29.285339999999998,"la2":30.599998999999997,"lo1":-89.70041500000002,"lo2":-87.6738589999976,"nx":112,"ny":82,"refTime":"2022-10-17T06:00:00:Z","depth":0,"parameterNumber":1,"parameterNumberName":"U-component_of_WINDS"},"data":[3.9326,3.7983,3.6557,3.4966,3.4244,3.3294,3.0779,3.0728,3.016,2.6382,2.6134,2.587,2.3347,0.0,0.0,0.0,0.0,0.0,0.0,2.0778,0.0,0.0,0.0,0.0,0.0,0.0,0.0,0.0,0.0,0.0,0.0,4.6382,4.7559,4.911,4.9185,4.9185,4.9185,4.9185,4.9185,4.9185,4.9185,4.9185,4.9185,4.9185,4.9185,4.9185,4.9185,4.9185,4.9185,4.9185,4.9185,4.9185,4.9185,4.9185,4.9147,4.9011,4.8745,4.8435,4.8261,4.8043,4.7801,4.7679,4.745,4.7205,4.7095,4.7021,4.7164,4.7699,4.7449,4.7164,4.7699,4.7449,4.6984,4.6757,4.6213,4.5723,4.5723,4.4736,4.3878,4.4065,4.3685,4.3368,4.3368,4.3368,4.3368,4.3368,4.3368,4.3368,4.3368,4.3368,4.3368,4.3368,4.3368,4.3368,4.3368,4.3368,4.3368,4.3368,4.3368,4.3598,4.4091,4.4979,4.5965,4.6984,4.8826,5.0042,5.0535,5.1456,5.1883,5.1883,5.1883,5.1883,3.5168,3.4189,3.3301,3.2022,3.1555,3.0697,2.8132,2.7683,2.7009,2.4031,2.3728,2.3449,2.1868,0.0,0.0,0.0,0.0,0.0,0.0,0.0,0.0,0.0,0.0,0.0,0.0,0.0,0.0,0.0,4.2317,0.0,4.6359,4.7222,4.8119,4.9147,4.9185,4.9185,4.9185,4.9185,4.9185,4.9185,4.9185,4.9185,4.9185,4.9185,4.9185,4.9185,4.9185,4.9185,4.9185,4.9185,4.9185,4.9185,4.9185,4.9185,4.9185,4.9185,4.9011,4.8767,4.8596,4.8288,4.7948,4.7675,4.745,4.7205,4.7095,4.7021,4.7021,4.7021,4.7021,4.7021,4.7021,4.7021,4.6984,4.6796,4.6376,4.6013,4.5809,4.489,4.4115,4.4115,4.386,4.3572,4.3368,4.3368,4.3368,4.3368,4.3368,4.3368,4.3368,4.3368,4.3368,4.3368,4.3368,4.3368,4.3368,4.3368,4.3368,4.3368,4.3368,4.3368,4.3368,4.4288,4.4979,4.5472,4.7346,4.8793,4.9779,5.0733,5.1423,5.1883,5.1883,5.1883,3.1143,3.0129,2.9455,2.9032,2.7556,2.6133,2.6054,2.5186,2.3956,2.238,2.2096,2.1725,2.034,0.0,0.0,0.0,0.0,0.0,0.0,0.0,0.0,0.0,0.0,0.0,0.0,3.895,4.056,0.0,4.5203,4.7016,4.6941,4.8381,4.9185,4.9185,4.9185,4.9185,4.9185,4.9185,4.9185,4.9185,4.9185,4.9185,4.9185,4.9185,4.9185,4.9185,4.9185,4.9185,4.9185,4.9185,4.9185,4.9185,4.9185,4.9185,4.9185,4.9185,4.9185,4.9185,4.9185,4.8912,4.8522,4.7857,4.7647,4.7548,4.7169,4.7094,4.7021,4.7021,4.7021,4.7021,4.7021,4.7021,4.6872,4.6254,4.6096,4.5894,4.5291,4.4606,4.4115,4.4115,4.4115,4.3929,4.3444,4.3368,4.3368,4.3368,4.3368,4.3368,4.3368,4.3368,4.3368,4.3368,4.3368,4.3368,4.3368,4.3368,4.3368,4.3368,4.3368,4.3368,4.3368,4.3368,4.4025,4.5373,4.5439,4.6853,4.9648,4.9746,5.0502,5.1818,5.1818,5.1818,2.6223,2.5536,2.5278,2.4877,2.4369,2.3589,2.2201,2.2067,2.179,2.0225,2.0969,0.0,0.0,0.0,0.0,0.0,0.0,2.4387,0.0,2.5735,0.0,0.0,0.0,0.0,0.0,4.0823,4.2927,4.5597,4.6569,4.7522,4.8605,4.9017,4.9185,4.9185,4.9185,4.9185,4.9185,4.9185,4.9185,4.9185,4.9185,4.9185,4.9185,4.9185,4.9185,4.9185,4.9185,4.9185,4.9185,4.9185,4.9185,4.9185,4.9185,4.9222,4.9316,4.9316,4.9259,4.9185,4.9185,4.9109,4.897,4.8473,4.7999,4.7614,4.7481,4.7277,4.7021,4.7021,4.7021,4.7021,4.7021,4.7021,4.6984,4.6834,4.6411,4.6013,4.5851,4.4937,4.4115,4.4115,4.3808,4.3518,4.3368,4.3665,4.3756,4.3389,4.3368,4.3368,4.3368,4.3368,4.3368,4.3368,4.3368,4.3368,4.3368,4.3368,4.3368,4.3368,4.3368,4.3368,4.3368,4.3368,4.3565,4.3927,4.4946,4.5866,4.6656,4.876,4.9976,5.0338,5.0338,5.0338,2.1656,2.13,2.158,2.151,2.1838,2.1925,2.1018,2.1277,2.1532,2.0961,0.0,0.0,0.0,0.0,0.0,0.0,2.6171,2.7102,2.7121,2.9106,3.2173,3.6518,0.0,0.0,4.1914,4.3623,4.5339,4.711,4.7801,4.853,4.9353,4.9316,4.9222,4.9185,4.9185,4.9185,4.9185,4.9185,4.9185,4.9185,4.9185,4.9185,4.9185,4.9185,4.9185,4.9185,4.9185,4.9185,4.9185,4.9185,4.9222,4.9241,4.9273,4.9323,4.9381,4.9353,4.9353,4.9259,4.9185,4.9185,4.9128,4.8912,4.8485,4.797,4.7707,4.7484,4.7241,4.7095,4.7021,4.7021,4.7021,4.7021,4.7021,4.7021,4.6757,4.6411,4.6096,4.5257,4.4461,4.4165,4.3878,4.3592,4.3422,4.3592,4.3718,4.3389,4.3368,4.3368,4.3368,4.3368,4.3368,4.3368,4.3368,4.3368,4.3368,4.3368,4.3368,4.3368,4.3368,4.3368,4.3368,4.3368,4.3368,4.3368,4.419,4.488,4.5472,4.7149,4.7971,4.7971,4.8563,4.9187,1.7719,1.7588,1.817,1.8765,1.972,2.0624,2.111,0.0,2.2303,2.2949,0.0,2.4102,2.4786,0.0,0.0,2.5847,2.8471,3.0469,3.0456,3.3563,3.6964,4.0065,4.1838,4.3426,4.4913,4.6508,4.7483,4.7543,4.8904,4.9652,4.9428,4.9428,4.9353,4.9222,4.9222,4.9222,4.9222,4.9222,4.9222,4.9222,4.9185,4.9222,4.9222,4.9222,4.9222,4.9185,4.9222,4.9185,4.9185,4.9185,4.9259,4.9335,4.9379,4.9389,4.9399,4.937,4.9391,4.9391,4.9259,4.9222,4.9185,4.9185,4.897,4.8546,4.7911,4.7675,4.7548,4.7205,4.7058,4.7021,4.7021,4.7021,4.7021,4.7021,4.7021,4.6872,4.6213,4.5636,4.4983,4.4265,4.4115,4.3947,4.3444,4.3368,4.3368,4.3368,4.3368,4.3368,4.3368,4.3368,4.3368,4.3368,4.3368,4.3368,4.3368,4.3368,4.3368,4.3368,4.3368,4.3368,4.3368,4.3368,4.3368,4.3368,4.3368,4.3992,4.5242,4.5406,4.5406,4.5275,4.6688,4.8037,1.5832,1.5148,1.456,1.6415,1.777,1.8685,0.0,0.0,0.0,2.188,2.3514,2.5486,2.7134,2.8919,3.0621,3.2179,3.3138,3.3694,3.3718,3.7798,4.1576,4.3678,4.4227,4.4576,4.4911,4.647,4.7987,4.9329,4.9628,4.9727,4.969,4.9578,4.9503,4.9503,4.9503,4.9503,4.9503,4.9391,4.9391,4.9503,4.9391,4.9391,4.9503,4.9503,4.9428,4.9353,4.9465,4.9391,4.9185,4.9316,4.9316,4.9241,4.9334,4.952,4.967,4.9559,4.954,4.954,4.9503,4.9428,4.9353,4.9353,4.9203,4.8991,4.8546,4.8057,4.7614,4.7515,4.7312,4.7021,4.7021,4.7021,4.7021,4.7021,4.7021,4.6872,4.6213,4.5971,4.5514,4.4363,4.4115,4.3947,4.3444,4.3368,4.3368,4.3368,4.3368,4.3368,4.3368,4.3368,4.3368,4.3368,4.3368,4.3368,4.3368,4.3368,4.3368,4.3368,4.3368,4.3368,4.3368,4.3368,4.3368,4.3368,4.3368,4.3499,4.3762,4.4913,4.488,4.3828,4.5242,4.6031,1.2216,1.2176,1.2362,1.4521,1.6352,0.0,0.0,2.2159,2.3983,2.4246,2.6156,2.8231,2.9566,3.0984,3.2401,3.3715,3.4845,3.6421,3.8839,4.1422,4.3771,4.5729,4.6046,4.639,4.7266,4.8187,4.9052,4.9887,4.9888,4.983,4.9765,4.969,4.9613,4.9573,4.9573,4.9573,4.9573,4.9498,4.9505,4.9578,4.9521,4.9498,4.9573,4.9573,4.9535,4.9483,4.9538,4.948,4.937,4.937,4.9391,4.9391,4.9465,4.9578,4.9727,4.9615,4.9615,4.9653,4.9574,4.9473,4.9391,4.9391,4.9259,4.9128,4.8933,4.8497,4.8057,4.7707,4.7517,4.7312,4.7095,4.7021,4.7021,4.7021,4.7021,4.6946,4.6644,4.6295,4.5766,4.4796,4.4606,4.4348,4.3498,4.3368,4.3368,4.3368,4.3368,4.3368,4.3368,4.3368,4.3368,4.3368,4.3368,4.3368,4.3368,4.3368,4.3368,4.3368,4.3368,4.3368,4.3368,4.3368,4.3368,4.3368,4.3368,4.3368,4.3368,4.4091,4.4058,4.3368,4.4091,4.4814,0.8138,0.9431,1.1126,1.2765,1.5033,0.0,2.0235,2.312,2.5494,2.6427,2.817,2.9938,3.139,3.2526,3.357,3.4646,3.6504,3.9275,4.3368,4.4203,4.5161,4.7279,4.7559,4.8194,4.9593,4.9833,4.9913,4.9936,4.9932,4.9879,4.9807,4.9815,4.973,4.9652,4.9652,4.9652,4.9652,4.964,4.9629,4.9665,4.964,4.9614,4.9652,4.9652,4.9649,4.9614,4.9616,4.9628,4.9564,4.9473,4.9527,4.9616,4.9596,4.967,4.9746,4.9639,4.9665,4.9745,4.9667,4.9554,4.9465,4.9428,4.9316,4.9222,4.9185,4.897,4.8569,4.797,4.7707,4.7548,4.7241,4.7095,4.7021,4.7021,4.7021,4.7021,4.7021,4.6644,4.6054,4.5426,4.5166,4.4736,4.3698,4.3389,4.3368,4.3368,4.3368,4.3368,4.3368,4.3368,4.3368,4.3368,4.3368,4.3368,4.3368,4.3368,4.3368,4.3368,4.3368,4.3368,4.3368,4.3368,4.3368,4.3368,4.3368,4.3368,4.3368,4.3368,4.3368,4.3368,4.3368,4.3992,0.4674,0.8104,0.0,1.0987,1.3545,0.0,1.738,1.9676,2.2261,2.4606,2.5953,2.7814,3.151,3.4234,3.6599,3.8637,4.0899,4.2971,4.4535,4.5493,4.6754,4.8867,4.911,4.9252,4.956,4.9593,4.9684,4.9773,4.9777,4.9802,4.9921,4.9953,4.9955,4.9923,4.9923,4.9923,4.9923,4.9792,4.9818,4.9915,4.9807,4.9809,4.9923,4.9923,4.9856,4.9723,4.9847,4.9773,4.9564,4.9698,4.9705,4.9717,4.9591,4.9625,4.9763,4.9725,4.9744,4.978,4.9867,4.9829,4.969,4.9578,4.9465,4.9353,4.9222,4.9128,4.9011,4.8593,4.8085,4.7614,4.7581,4.7276,4.7021,4.7021,4.7021,4.7021,4.7021,4.6984,4.6757,4.6096,4.547,4.4843,4.4199,4.3665,4.3368,4.3368,4.3368,4.3368,4.3368,4.3368,4.3368,4.3368,4.3368,4.3368,4.3368,4.3368,4.3368,4.3368,4.3368,4.3368,4.3368,4.3368,4.3368,4.3368,4.3368,4.3368,4.3368,4.3368,4.3368,4.3368,4.3368,4.3433,0.4577,0.7256,0.914,1.1657,0.0,0.0,1.7527,1.991,2.1921,2.363,2.6624,2.9553,3.1576,3.5021,3.7997,3.9214,4.2151,4.4516,4.5234,4.6202,4.7252,4.8325,4.9003,4.939,4.9477,4.9529,4.9602,4.9634,4.9649,4.9663,4.9743,4.9791,4.9851,4.9851,4.9932,4.9963,4.9963,4.9905,4.9905,4.9963,4.9887,4.9887,4.9963,4.9887,4.9808,4.975,4.9727,4.9649,4.9577,4.9645,4.9697,4.9725,4.9612,4.9672,4.9855,4.9771,4.9801,4.9894,4.9955,4.9893,4.9765,4.969,4.954,4.9353,4.9316,4.9222,4.9128,4.8991,4.8583,4.8114,4.7707,4.7311,4.7021,4.7021,4.7021,4.7021,4.7021,4.7021,4.6834,4.6213,4.5514,4.489,4.4265,4.3718,4.3368,4.3368,4.3368,4.3368,4.3368,4.3368,4.3368,4.3368,4.3368,4.3368,4.3368,4.3368,4.3368,4.3368,4.3368,4.3368,4.3368,4.3368,4.3368,4.3368,4.3368,4.3368,4.3368,4.3368,4.3368,4.3368,4.3368,4.3368,0.385,0.0,0.0,0.0,0.0,0.0,1.6436,1.8706,2.0636,2.2649,2.644,2.9923,3.1506,3.5662,3.8986,3.926,4.2223,4.4659,4.501,4.623,4.7248,4.7764,4.8593,4.9201,4.9297,4.9428,4.9465,4.9503,4.9506,4.9541,4.9578,4.966,4.9727,4.9698,4.9811,4.9835,4.9835,4.9835,4.9835,4.9835,4.9882,4.9905,4.9905,4.9815,4.9744,4.9746,4.9625,4.9541,4.9491,4.9498,4.9578,4.9652,4.964,4.9715,4.9846,4.9808,4.9871,4.9887,4.9925,4.9888,4.9799,4.9782,4.9615,4.9465,4.9391,4.9316,4.9222,4.9185,4.8991,4.8617,4.8057,4.7545,4.7169,4.7058,4.7021,4.7021,4.7021,4.7021,4.6908,4.6451,4.5809,4.5121,4.451,4.3911,4.3518,4.3368,4.3368,4.3368,4.3368,4.3368,4.3368,4.3368,4.3368,4.3368,4.3368,4.3368,4.3368,4.3368,4.3368,4.3368,4.3368,4.3368,4.3368,4.3368,4.3368,4.3368,4.3368,4.3368,4.3368,4.3368,4.3368,4.3368,0.0,0.0,0.0,0.7612,0.962,1.1432,1.2549,1.4359,1.7008,2.1444,2.4222,2.7102,3.1301,3.6324,3.9751,3.9516,4.1461,4.3142,4.3561,4.5397,4.6986,4.7735,4.8312,4.8767,4.9128,4.9185,4.9222,4.9391,4.9353,4.9447,4.9559,4.9578,4.9564,4.9574,4.9555,4.9602,4.9602,4.9602,4.9602,4.9593,4.9687,4.9783,4.9746,4.9761,4.977,4.9765,4.9634,4.9447,4.9204,4.9353,4.9391,4.9428,4.9653,4.9674,4.9621,4.9848,4.9887,4.9773,4.9925,4.9963,4.9948,4.9792,4.9765,4.969,4.9465,4.9391,4.9353,4.9222,4.9185,4.9051,4.8663,4.8114,4.7481,4.7132,4.7021,4.7021,4.7021,4.7021,4.7057,4.7021,4.6491,4.5809,4.5166,4.4558,4.3929,4.3444,4.3368,4.3368,4.3368,4.3368,4.3368,4.3368,4.3368,4.3368,4.3368,4.3368,4.3368,4.3368,4.3368,4.3368,4.3368,4.3368,4.3368,4.3368,4.3368,4.3368,4.3368,4.3368,4.3368,4.3368,4.3368,4.3368,-0.2017,-0.0057,0.2682,0.6787,0.9427,1.1232,1.2356,1.4383,1.6596,1.8784,2.247,2.6139,2.9062,3.1936,3.4661,3.6879,3.8885,4.0666,4.2292,4.4156,4.5467,4.5731,4.6524,4.7099,4.7225,4.7903,4.8275,4.8349,4.8928,4.9259,4.9316,4.9316,4.9352,4.943,4.943,4.9468,4.9543,4.9543,4.9543,4.958,4.9615,4.9627,4.9629,4.9541,4.9529,4.9503,4.9391,4.9259,4.9185,4.9222,4.9316,4.9391,4.9578,4.966,4.9715,4.9905,4.9925,4.9887,4.9925,4.9963,4.9962,4.991,4.9842,4.9727,4.9549,4.9446,4.9353,4.9222,4.9185,4.9089,4.8685,4.8448,4.8105,4.7581,4.7241,4.7021,4.7021,4.7021,4.7021,4.7021,4.6491,4.5851,4.5212,4.4558,4.398,4.3444,4.3368,4.3368,4.3368,4.3368,4.3368,4.3368,4.3368,4.3368,4.3368,4.3368,4.3368,4.3368,4.3368,4.3368,4.3368,4.3368,4.3368,4.3368,4.3368,4.3368,4.3368,4.3368,4.3368,4.3368,4.3368,4.3368,-0.4173,-0.2124,0.1224,0.6244,0.882,1.0534,1.221,1.3817,1.548,1.7516,2.1002,2.4599,2.7214,2.8561,3.0569,3.4448,3.6567,3.8659,4.1201,4.2982,4.4238,4.4674,4.5522,4.6083,4.6235,4.687,4.723,4.723,4.8021,4.8495,4.8495,4.87,4.8923,4.9103,4.9103,4.9181,4.9428,4.9428,4.9428,4.9428,4.9465,4.9477,4.9503,4.9408,4.9381,4.9391,4.9222,4.9185,4.9185,4.9185,4.9222,4.9316,4.9465,4.954,4.9633,4.9773,4.9839,4.9863,4.9863,4.9932,4.9963,4.9963,4.99,4.9792,4.9705,4.9558,4.9428,4.9259,4.9222,4.9109,4.887,4.8685,4.8497,4.8085,4.7611,4.7205,4.7058,4.7021,4.7021,4.7021,4.6683,4.6213,4.5592,4.489,4.4299,4.3718,4.3465,4.3368,4.3368,4.3368,4.3368,4.3368,4.3368,4.3368,4.3368,4.3368,4.3368,4.3368,4.3368,4.3368,4.3368,4.3368,4.3368,4.3368,4.3368,4.3368,4.3368,4.3368,4.3368,4.3368,4.3368,4.3368,-0.5327,-0.2781,0.0941,0.5534,0.7708,0.946,1.1969,1.2777,1.401,1.7427,1.9908,2.2355,2.538,2.6034,2.7521,3.1987,3.4373,3.6865,4.0111,4.185,4.3195,4.4442,4.5167,4.5715,4.6083,4.6123,4.6161,4.6161,4.6807,4.718,4.7248,4.7802,4.8278,4.8569,4.8593,4.8745,4.9109,4.9128,4.9185,4.9185,4.9316,4.9353,4.9353,4.9353,4.9334,4.9334,4.9222,4.9185,4.9185,4.9185,4.9185,4.9185,4.9316,4.9391,4.9409,4.9541,4.9639,4.9765,4.9765,4.9851,4.9961,4.9963,4.9963,4.9951,4.9815,4.969,4.954,4.9428,4.9259,4.9185,4.9185,4.8912,4.864,4.8617,4.8105,4.7548,4.7169,4.7058,4.7021,4.7021,4.7021,4.6834,4.6213,4.5514,4.489,4.4215,4.3665,4.3368,4.3368,4.3368,4.3368,4.3368,4.3368,4.3368,4.3368,4.3368,4.3368,4.3368,4.3368,4.3368,4.3368,4.3368,4.3368,4.3368,4.3368,4.3368,4.3368,4.3368,4.3368,4.3368,4.3368,4.3368,-0.6543,-0.4177,-0.1285,0.12,0.7118,1.2077,1.1104,1.312,1.5387,1.6348,1.8245,1.9642,1.9339,2.0188,2.2546,2.7323,2.9031,3.1548,3.6595,3.876,4.0514,4.2445,4.3446,4.398,4.4065,4.4697,4.5097,4.5097,4.5968,4.6736,4.7248,4.738,4.7735,4.8288,4.8315,4.8342,4.8483,4.863,4.8891,4.9185,4.9222,4.9222,4.9222,4.9222,4.9049,4.8804,4.9069,4.9185,4.9185,4.9185,4.9185,4.9185,4.9316,4.9391,4.9391,4.9535,4.9575,4.9615,4.9727,4.9777,4.9818,4.9905,4.9963,4.9951,4.9815,4.9727,4.9652,4.9428,4.9353,4.9316,4.9185,4.9109,4.897,4.8663,4.8331,4.7954,4.7548,4.7241,4.7021,4.7021,4.7021,4.6834,4.6213,4.5514,4.489,4.4215,4.3665,4.3368,4.3368,4.3368,4.3368,4.3368,4.3368,4.3368,4.3368,4.3368,4.3368,4.3368,4.3368,4.3368,4.3368,4.3368,4.3368,4.3368,4.3368,4.3368,4.3368,4.3368,4.3368,4.3368,4.3368,4.3368,-0.802,-0.6726,-0.5077,-0.346,0.2284,0.8591,1.2462,1.2972,1.3227,1.4919,1.6143,1.6999,1.7037,1.7586,1.9711,2.4673,2.6392,2.8861,3.3966,3.6692,3.8634,3.9837,4.1972,4.317,4.277,4.3552,4.4098,4.4098,4.4845,4.5509,4.5837,4.6445,4.6953,4.753,4.779,4.8043,4.8215,4.8331,4.851,4.8751,4.8848,4.8848,4.8774,4.9049,4.8991,4.8617,4.9011,4.9185,4.9185,4.9185,4.9185,4.9185,4.9259,4.9316,4.9316,4.9391,4.9428,4.9503,4.9578,4.9652,4.9782,4.9836,4.992,4.9921,4.9884,4.9822,4.9746,4.9521,4.9402,4.9353,4.9222,4.9185,4.9128,4.8912,4.8522,4.8159,4.7924,4.745,4.7021,4.7021,4.7021,4.6946,4.653,4.5971,4.5336,4.4654,4.4031,4.3559,4.3368,4.3368,4.3368,4.3368,4.3368,4.3368,4.3368,4.3368,4.3368,4.3368,4.3368,4.3368,4.3368,4.3368,4.3368,4.3368,4.3368,4.3368,4.3368,4.3368,4.3368,4.3368,4.3368,4.3368,-0.9549,-0.9632,-0.9342,-0.7949,-0.4232,0.1684,1.1609,1.1725,1.0691,1.4034,1.4087,1.4287,1.6384,1.6741,1.8203,2.2881,2.4803,2.7188,3.1367,3.4837,3.6987,3.7293,4.0706,4.2714,4.1925,4.2511,4.3004,4.3004,4.3407,4.3726,4.3829,4.5041,4.5955,4.6405,4.7167,4.7675,4.8043,4.8101,4.813,4.813,4.8398,4.8435,4.8243,4.8797,4.8848,4.8569,4.8949,4.9128,4.9185,4.9185,4.9185,4.9185,4.9185,4.9185,4.9185,4.9185,4.9259,4.9353,4.9391,4.954,4.9727,4.9765,4.9846,4.9963,4.9925,4.9871,4.9762,4.9587,4.946,4.9391,4.9222,4.9185,4.9185,4.9185,4.8728,4.8234,4.8215,4.7647,4.7095,4.7094,4.7021,4.7021,4.6946,4.6371,4.5766,4.5257,4.4606,4.398,4.3518,4.3389,4.3368,4.3368,4.3368,4.3368,4.3368,4.3368,4.3368,4.3368,4.3368,4.3368,4.3368,4.3368,4.3368,4.3368,4.3368,4.3368,4.3368,4.3368,4.3368,4.3368,4.3368,4.3368,-1.0825,-1.1623,-1.2068,-1.085,-0.8161,-0.5266,-0.3326,0.6793,1.585,1.6502,1.2875,1.0683,1.4171,1.5058,1.6307,1.9488,2.1053,2.3266,2.7031,3.1098,3.4319,3.6137,3.9252,4.1205,4.105,4.1205,4.1266,4.1266,4.1324,4.162,4.2131,4.3559,4.4557,4.5227,4.6463,4.7169,4.7241,4.7548,4.7707,4.7707,4.8094,4.8234,4.8215,4.8325,4.8352,4.8288,4.8583,4.8891,4.9185,4.9185,4.9185,4.9185,4.9185,4.9185,4.9185,4.9185,4.9185,4.9222,4.9353,4.9465,4.9615,4.9727,4.9846,4.9925,4.9811,4.9845,4.9844,4.9506,4.9461,4.9465,4.9222,4.9185,4.9185,4.9185,4.8848,4.8485,4.8234,4.7832,4.745,4.7095,4.7021,4.6872,4.6335,4.5723,4.5426,4.5809,4.489,4.4065,4.3998,4.3645,4.3368,4.3368,4.3368,4.3368,4.3368,4.3368,4.3368,4.3368,4.3368,4.3368,4.3368,4.3368,4.3368,4.3368,4.3368,4.3368,4.3368,4.3368,4.3368,4.3368,4.3368,4.3368,-1.2462,-1.3112,-1.3522,-1.2967,-1.1029,-0.8874,-0.7359,-0.1018,0.4542,0.4542,0.6757,1.0137,1.4919,1.5218,1.5694,1.896,2.0337,2.185,2.4247,2.8417,3.1821,3.3609,3.6949,3.9382,4.0044,4.0552,4.0803,4.0803,4.0803,4.0958,4.1261,4.2635,4.3593,4.3863,4.5277,4.6213,4.653,4.6692,4.6805,4.6843,4.7343,4.7542,4.7397,4.7165,4.7406,4.7924,4.8398,4.8685,4.8891,4.9109,4.9185,4.9185,4.9185,4.9185,4.9185,4.9185,4.9185,4.9185,4.9259,4.9353,4.9503,4.9627,4.9729,4.9838,4.9877,4.9839,4.9791,4.9571,4.9454,4.9428,4.9222,4.9185,4.9185,4.9185,4.8891,4.8522,4.8261,4.7894,4.7481,4.7132,4.7021,4.6946,4.6644,4.6054,4.5636,4.5558,4.4749,4.4115,4.4115,4.3665,4.3368,4.3368,4.3368,4.3368,4.3368,4.3368,4.3368,4.3368,4.3368,4.3368,4.3368,4.3368,4.3368,4.3368,4.3368,4.3368,4.3368,4.3368,4.3368,4.3368,4.3368,4.3368,-1.3678,-1.4252,-1.4508,-1.4021,-1.2622,-1.0721,-0.768,-0.7017,-0.6907,-0.6332,0.0743,0.8411,1.3421,1.4077,1.4929,1.8604,1.9712,2.0708,2.2272,2.6134,2.9406,3.0798,3.4502,3.7357,3.8397,3.9589,4.0234,4.0234,4.0234,4.0234,4.0234,4.1824,4.27,4.27,4.4296,4.5336,4.5851,4.5851,4.5851,4.5886,4.6411,4.6538,4.6325,4.6149,4.6538,4.7307,4.8077,4.8436,4.8617,4.8912,4.9109,4.9185,4.9185,4.9185,4.9185,4.9185,4.9185,4.9185,4.9185,4.9259,4.9372,4.9528,4.9642,4.9789,4.9886,4.982,4.9709,4.9578,4.9439,4.9353,4.9222,4.9185,4.9185,4.9185,4.8891,4.8522,4.8261,4.7894,4.7481,4.7132,4.7021,4.6984,4.6834,4.6376,4.5851,4.5166,4.4558,4.4115,4.4115,4.3665,4.3368,4.3368,4.3368,4.3368,4.3368,4.3368,4.3368,4.3368,4.3368,4.3368,4.3368,4.3368,4.3368,4.3368,4.3368,4.3368,4.3368,4.3368,4.3368,4.3368,4.3368,4.3368,-1.3578,-1.4939,-1.5616,-1.3327,-1.2457,-1.1269,-0.7818,-0.7288,-0.6861,-0.4311,-0.1376,0.1728,0.4834,0.8943,1.3,1.671,1.7346,1.8186,2.0806,2.4341,2.7205,2.8463,3.2523,3.5257,3.5359,3.7293,3.8523,3.8523,3.8523,3.8523,3.8523,4.0678,4.1902,4.1902,4.3981,4.5121,4.5201,4.5201,4.5201,4.5201,4.5246,4.5257,4.5222,4.5809,4.6137,4.626,4.7273,4.8057,4.8617,4.864,4.887,4.9185,4.9185,4.9185,4.9185,4.9185,4.9185,4.9185,4.9185,4.9259,4.9391,4.9521,4.9653,4.9747,4.9791,4.9753,4.9701,4.9477,4.9391,4.9353,4.9222,4.9185,4.9185,4.9185,4.8891,4.8522,4.8261,4.7894,4.7481,4.7132,4.7021,4.6834,4.6254,4.6096,4.5851,4.5166,4.4558,4.4115,4.4115,4.3665,4.3368,4.3368,4.3368,4.3368,4.3368,4.3368,4.3368,4.3368,4.3368,4.3368,4.3368,4.3368,4.3368,4.3368,4.3368,4.3368,4.3368,4.3368,4.3368,4.3368,4.3368,4.3368,-1.3707,-1.5015,-1.6209,-1.5683,-1.445,-1.2868,-1.1249,-1.0034,-0.8576,-0.6412,-0.5047,-0.3498,-0.1288,0.7786,1.3789,1.0748,1.4011,1.6973,1.725,2.0697,2.3893,2.5712,2.9582,3.2567,3.3921,3.5495,3.6651,3.7335,3.7335,3.765,3.8274,3.9624,4.0428,4.0428,4.2252,4.338,4.3846,4.428,4.451,4.451,4.489,4.4736,4.4047,4.5017,4.547,4.5558,4.6766,4.7545,4.8057,4.8448,4.8685,4.887,4.9089,4.9185,4.9185,4.9185,4.9185,4.9185,4.9185,4.9222,4.9259,4.9428,4.9548,4.9654,4.9737,4.9697,4.9614,4.9531,4.9391,4.9222,4.9185,4.9185,4.9185,4.9185,4.8891,4.8569,4.8448,4.8036,4.7581,4.7415,4.7205,4.6946,4.6683,4.6335,4.5851,4.5166,4.489,4.4558,4.4165,4.3665,4.3368,4.3368,4.3368,4.3368,4.3368,4.3368,4.3368,4.3368,4.3368,4.3368,4.3368,4.3368,4.3368,4.3368,4.3368,4.3368,4.3368,4.3368,4.3368,4.3368,4.3368,4.3368,-1.357,-1.4574,-1.5753,-1.6473,-1.5323,-1.3841,-1.3193,-1.191,-1.0411,-0.8868,-0.8147,-0.7327,-0.5743,0.4259,1.0675,0.5996,1.0926,1.5278,1.5392,1.8231,2.1086,2.3091,2.7073,3.0348,3.2292,3.3816,3.5141,3.6179,3.6577,3.7017,3.7793,3.8915,3.9488,3.9488,4.0896,4.1861,4.2341,4.2843,4.3254,4.3499,4.3981,4.3741,4.2994,4.4249,4.4937,4.5121,4.6254,4.7024,4.7481,4.8049,4.8423,4.864,4.8891,4.9089,4.9185,4.9185,4.9185,4.9185,4.9185,4.9185,4.9185,4.9353,4.943,4.9566,4.9688,4.9666,4.9552,4.9569,4.9428,4.9222,4.9185,4.9185,4.9185,4.9185,4.8826,4.8473,4.8473,4.7911,4.745,4.745,4.7241,4.7021,4.7021,4.6491,4.5851,4.5166,4.4937,4.4558,4.398,4.3592,4.3368,4.3368,4.3368,4.3368,4.3368,4.3368,4.3368,4.3368,4.3368,4.3368,4.3368,4.3368,4.3368,4.3368,4.3368,4.3368,4.3368,4.3368,4.3368,4.3368,4.3368,4.3368,-1.3017,-1.3531,-1.3949,-1.448,-1.4432,-1.3833,-1.252,-1.2215,-1.1893,-1.0877,-1.0152,-0.9406,-0.8343,-0.3194,0.1663,0.3946,0.8397,1.2759,1.6378,1.8053,1.9399,2.0875,2.5342,2.8858,3.0052,3.2128,3.3974,3.5091,3.6179,3.6724,3.6724,3.8446,3.9488,3.9488,4.0362,4.0834,4.0803,4.0803,4.1234,4.201,4.201,4.201,4.201,4.3499,4.451,4.5121,4.5809,4.6451,4.7058,4.7448,4.8028,4.8617,4.8617,4.8811,4.9185,4.9185,4.9185,4.9185,4.9185,4.9185,4.9185,4.9353,4.9391,4.9428,4.969,4.9667,4.9566,4.9574,4.9465,4.9353,4.9222,4.9185,4.9185,4.9185,4.8667,4.8215,4.8215,4.7614,4.7021,4.7021,4.7021,4.7021,4.7021,4.6491,4.5851,4.5166,4.4558,4.3929,4.3444,4.3368,4.3368,4.3368,4.3368,4.3368,4.3368,4.3368,4.3368,4.3368,4.3368,4.3368,4.3368,4.3368,4.3368,4.3368,4.3368,4.3368,4.3368,4.3368,4.3368,4.3368,4.3368,4.3368,-1.3178,-1.3688,-1.4462,-1.5532,-1.5146,-1.4613,-1.5293,-1.44,-1.332,-1.2792,-1.1476,-1.0205,-0.9456,-0.6707,-0.3235,0.0749,0.4312,0.7685,1.0822,1.3261,1.5559,1.7947,2.1982,2.5361,2.7658,2.9949,3.1754,3.2824,3.3972,3.5271,3.6651,3.7278,3.7947,3.8632,3.9451,3.9881,3.9881,4.0489,4.0927,4.1173,4.0553,4.0865,4.201,4.293,4.3778,4.451,4.5558,4.6213,4.6451,4.6987,4.7515,4.7941,4.8197,4.851,4.8789,4.8789,4.8933,4.9185,4.9185,4.9185,4.9185,4.9222,4.9353,4.954,4.9615,4.9663,4.9679,4.9591,4.9483,4.9353,4.9222,4.9185,4.9185,4.9185,4.8667,4.827,4.8435,4.7734,4.7132,4.7381,4.7205,4.7021,4.7021,4.6872,4.6335,4.5257,4.4937,4.4446,4.3444,4.3368,4.3368,4.3368,4.3368,4.3368,4.3368,4.3368,4.3368,4.3368,4.3368,4.3368,4.3368,4.3368,4.3368,4.3368,4.3368,4.3368,4.3368,4.3368,4.3368,4.3368,4.3368,4.3368,-1.3697,-1.4119,-1.4697,-1.6256,-1.5915,-1.5339,-1.5914,-1.5378,-1.4654,-1.4407,-1.2982,-1.1564,-1.0822,-0.882,-0.616,-0.3049,0.0321,0.4118,0.8176,1.1434,1.4,1.5721,1.9042,2.2355,2.5014,2.658,2.8308,3.0488,3.118,3.2698,3.5316,3.5872,3.6742,3.8274,3.874,3.8982,3.8982,3.9584,3.9876,3.9876,3.9554,4.0203,4.1596,4.2292,4.3147,4.4165,4.5212,4.5851,4.6096,4.6796,4.7169,4.745,4.7832,4.8224,4.8617,4.8767,4.8954,4.9185,4.9185,4.9185,4.9185,4.9185,4.9316,4.9428,4.9527,4.9621,4.9657,4.9593,4.9512,4.9428,4.9316,4.9222,4.9185,4.9185,4.8667,4.8234,4.8409,4.7702,4.7132,4.7346,4.7205,4.7021,4.7021,4.7021,4.6605,4.5291,4.5075,4.464,4.3498,4.3368,4.3368,4.3368,4.3368,4.3368,4.3368,4.3368,4.3368,4.3368,4.3368,4.3368,4.3368,4.3368,4.3368,4.3368,4.3368,4.3368,4.3368,4.3368,4.3368,4.3368,4.3368,4.3368,-1.4551,-1.4706,-1.4808,-1.6576,-1.6621,-1.5982,-1.5087,-1.5437,-1.5874,-1.5733,-1.4698,-1.3488,-1.2225,-0.9711,-0.769,-0.6936,-0.3163,0.1948,0.7881,1.1273,1.3447,1.4107,1.6781,1.9567,2.2208,2.2581,2.4153,2.8012,2.8154,2.9589,3.3046,3.4131,3.564,3.7863,3.8034,3.8104,3.8175,3.8274,3.8274,3.8315,3.8982,3.975,4.074,4.1537,4.2631,4.4015,4.4749,4.5381,4.6054,4.6683,4.6984,4.7058,4.745,4.7941,4.8546,4.897,4.9109,4.9128,4.9147,4.9185,4.9185,4.9185,4.9185,4.924,4.9477,4.9564,4.9583,4.9564,4.9563,4.954,4.9428,4.9259,4.9185,4.9185,4.8667,4.8243,4.8215,4.7614,4.7058,4.7021,4.7021,4.7021,4.7021,4.7021,4.6605,4.5381,4.5155,4.4688,4.3518,4.3368,4.3368,4.3368,4.3368,4.3368,4.3368,4.3368,4.3368,4.3368,4.3368,4.3368,4.3368,4.3368,4.3368,4.3368,4.3368,4.3368,4.3368,4.3368,4.3368,4.3368,4.3368,4.3368,-1.5873,-1.6061,-1.6023,-1.6272,-1.6621,-1.7018,-1.7469,-1.671,-1.6081,-1.6606,-1.6426,-1.5546,-1.3569,-1.2077,-1.0405,-0.7979,-0.4426,0.0429,0.7755,0.5622,0.5992,1.3332,1.4805,1.6474,1.9483,2.0713,2.2468,2.5557,2.6509,2.8154,3.0795,3.1108,3.2267,3.4495,3.5338,3.617,3.7089,3.7863,3.8274,3.8274,3.7664,3.8238,3.9816,4.0647,4.1565,4.2551,4.3778,4.4749,4.5381,4.6013,4.6605,4.7021,4.7169,4.7276,4.7479,4.8178,4.8534,4.8767,4.9089,4.9185,4.9185,4.9185,4.9222,4.9335,4.9405,4.9552,4.97,4.9579,4.9657,4.9652,4.9428,4.9353,4.9316,4.9185,4.8826,4.846,4.8234,4.7832,4.7415,4.7095,4.7021,4.7021,4.7021,4.7021,4.6796,4.5971,4.5426,4.4796,4.4082,4.3592,4.3368,4.3368,4.3368,4.3368,4.3368,4.3368,4.3368,4.3368,4.3368,4.3368,4.3368,4.3368,4.3368,4.3368,4.3368,4.3368,4.3368,4.3368,4.3368,4.3368,4.3368,4.3368,-1.6863,-1.704,-1.7134,-1.7428,-1.754,-1.7612,-1.7422,-1.7256,-1.7178,-1.7279,-1.7488,-1.7067,-1.5393,-1.4312,-1.2935,-1.0662,-0.832,-0.5903,-0.3456,-0.1294,0.2903,1.0724,1.2202,1.4043,1.7648,1.8058,1.9498,2.2816,2.3641,2.5347,2.8265,2.9033,3.0579,3.3392,3.4,3.5061,3.6724,3.6798,3.7118,3.7579,3.7017,3.7677,3.9488,3.9946,4.0834,4.2068,4.3093,4.3981,4.4701,4.5381,4.6013,4.6605,4.6605,4.6912,4.7346,4.777,4.8224,4.8663,4.9032,4.9185,4.9185,4.9185,4.9222,4.9316,4.9353,4.9503,4.966,4.9595,4.9569,4.956,4.9488,4.9365,4.9259,4.9185,4.8891,4.8522,4.8261,4.7894,4.7481,4.7132,4.7021,4.7021,4.7021,4.7021,4.6722,4.5766,4.5336,4.4749,4.3893,4.3518,4.3368,4.3368,4.3368,4.3368,4.3368,4.3368,4.3368,4.3368,4.3368,4.3368,4.3368,4.3368,4.3368,4.3368,4.3368,4.3368,4.3368,4.3368,4.3368,4.3368,4.3368,4.3368,-1.8068,-1.8197,-1.8375,-1.9281,-1.8875,-1.7952,-1.6751,-1.7601,-1.8445,-1.7812,-1.824,-1.8312,-1.7203,-1.6231,-1.5166,-1.3986,-1.2721,-1.3132,-1.6646,-0.7589,0.1728,0.7984,0.9326,1.1399,1.5602,1.514,1.6204,2.0114,2.0526,2.2187,2.5709,2.695,2.901,3.2292,3.2723,3.3947,3.6002,3.4987,3.5141,3.6503,3.6503,3.7393,3.9088,3.9325,4.03,4.1834,4.2487,4.3274,4.4165,4.4749,4.5336,4.5929,4.6013,4.6615,4.7377,4.7515,4.7911,4.8497,4.887,4.9089,4.9185,4.9185,4.9185,4.9185,4.9316,4.9428,4.9552,4.9585,4.9528,4.9468,4.9544,4.9416,4.9222,4.9185,4.8912,4.8569,4.8298,4.7954,4.7581,4.7132,4.7021,4.7021,4.7021,4.6946,4.6566,4.5514,4.5121,4.464,4.3698,4.3444,4.3368,4.3368,4.3368,4.3368,4.3368,4.3368,4.3368,4.3368,4.3368,4.3368,4.3368,4.3368,4.3368,4.3368,4.3368,4.3368,4.3368,4.3368,4.3368,4.3368,4.3368,4.3368,-2.0501,-2.05,-2.0536,-2.1442,-1.9941,-1.8212,-1.8004,-1.829,-1.8638,-1.8509,-1.9166,-1.9439,-1.839,-1.7314,-1.6473,-1.6404,-1.517,-1.4936,-1.6867,-0.9376,-0.054,0.7743,0.6732,0.6911,1.1196,1.2586,1.4344,1.7276,1.8631,2.0526,2.3296,2.3677,2.4979,2.7769,2.9621,3.124,3.2554,3.1587,3.2497,3.5424,3.5424,3.6029,3.7206,3.872,4.001,4.105,4.1834,4.2908,4.4115,4.4265,4.4654,4.5257,4.5851,4.6178,4.638,4.6912,4.7415,4.7863,4.8243,4.8728,4.9185,4.9185,4.9185,4.9185,4.9185,4.9316,4.941,4.9531,4.9639,4.9674,4.9602,4.9521,4.9465,4.9222,4.9128,4.8928,4.8352,4.8159,4.7894,4.7169,4.7021,4.7021,4.7021,4.657,4.6335,4.6683,4.5336,4.4412,4.4783,4.3978,4.3368,4.3368,4.3368,4.3368,4.3368,4.3368,4.3368,4.3368,4.3368,4.3368,4.3368,4.3368,4.3368,4.3368,4.3368,4.3368,4.3368,4.3368,4.3368,4.3368,4.3368,4.3368,-2.213,-2.2903,-2.3629,-2.4019,-2.271,-2.1126,-2.0805,-2.0783,-2.0731,-2.034,-2.0521,-2.0626,-2.0157,-1.8738,-1.7651,-1.774,-1.6748,-1.5963,-1.5974,-0.8717,-0.2798,-0.0974,0.3683,0.8031,1.1504,1.177,1.2882,1.569,1.7112,1.9104,2.1802,2.19,2.3427,2.6763,2.7096,2.7863,2.9101,2.9931,3.136,3.3389,3.4627,3.5728,3.6798,3.8157,3.9252,4.0139,4.0958,4.1978,4.3017,4.3493,4.4031,4.4606,4.489,4.547,4.6096,4.6411,4.6989,4.7647,4.7832,4.8305,4.8891,4.9109,4.9185,4.9185,4.9185,4.9222,4.9316,4.9428,4.9512,4.9541,4.9553,4.9512,4.9428,4.9316,4.9222,4.9008,4.8352,4.8215,4.7984,4.7169,4.7021,4.7021,4.7021,4.6491,4.6054,4.6013,4.4937,4.4149,4.4116,4.3645,4.3368,4.3368,4.3368,4.3368,4.3368,4.2915,4.2625,4.2625,4.2625,4.2625,4.2625,4.2625,4.2625,4.2625,4.2625,4.2859,4.3368,4.3368,4.3368,4.3313,4.2826,4.2882,-2.4512,0.0,-2.6295,-2.6272,-2.5021,-2.3572,0.0,-2.2868,-2.2594,-2.1981,-2.1773,-2.1711,-2.1419,-2.0138,-1.8977,-1.8533,-1.7789,-1.6771,-1.5172,-0.9802,-0.6534,-0.7618,0.0864,0.8037,1.1565,1.1265,1.1734,1.3845,1.5472,1.7492,1.9901,2.0328,2.2175,2.5821,2.4642,2.4736,2.6376,2.8438,3.0168,3.1527,3.3469,3.5064,3.6402,3.7478,3.8465,3.9488,4.0203,4.105,4.2042,4.277,4.3399,4.398,4.4099,4.4749,4.5645,4.5971,4.6577,4.7309,4.7548,4.7999,4.8546,4.8912,4.9109,4.9185,4.9185,4.9185,4.9185,4.9353,4.939,4.9439,4.9544,4.9476,4.9423,4.9372,4.9259,4.9028,4.842,4.8234,4.8014,4.7311,4.7095,4.7021,4.7021,4.6411,4.5723,4.5381,4.4544,4.386,4.3539,4.3444,4.3368,4.3368,4.3368,4.3368,4.3368,4.2511,4.1952,4.1952,4.1834,4.1775,4.1984,4.1952,4.1952,4.1952,4.1952,4.2364,4.3027,4.3258,4.3225,4.3027,4.2306,4.2249,0.0,-2.8408,-2.7537,-2.765,-2.567,-2.3709,-2.3653,-2.3196,0.0,-2.2659,-2.2762,-2.2507,-2.1565,-2.1272,-2.058,-1.878,-1.84,-1.758,-1.5263,-1.5637,-1.3247,-0.5468,-0.1507,0.2811,0.848,1.0526,1.1248,1.0985,1.3521,1.5702,1.7175,1.8444,2.0443,2.3157,2.1997,2.2448,2.5017,2.6356,2.817,3.0449,3.1611,3.3228,3.5348,3.6327,3.7848,3.9488,3.9554,4.0521,4.1952,4.21,4.2625,4.3411,4.3929,4.4165,4.4412,4.5601,4.6096,4.634,4.7309,4.7894,4.8261,4.8546,4.8891,4.9185,4.9185,4.9185,4.9185,4.9353,4.9428,4.9567,4.9563,4.9569,4.9527,4.9388,4.9259,4.9051,4.864,4.8383,4.8072,4.7679,4.7312,4.7021,4.7021,4.6013,4.5381,4.5894,4.4514,4.3539,4.3998,4.3612,4.3368,4.3368,4.3368,4.3368,4.3368,4.2511,4.1952,4.1952,4.1295,4.1234,4.1952,4.1952,4.1952,4.1952,4.1952,4.2042,4.21,4.2971,4.2915,4.21,4.2042,4.1596,-3.3042,-3.2662,-3.1666,-3.0919,-2.9206,-2.7515,-2.6677,-2.5509,-2.4562,-2.4562,-2.4105,-2.3665,-2.329,-2.2198,-2.1212,-2.0711,-1.943,-1.8226,-1.7587,-1.6497,-1.4525,-1.096,-0.4298,0.2274,0.8188,0.9369,1.0198,1.1133,1.2711,1.4552,1.6768,1.7457,1.827,1.9174,2.0396,2.1883,2.3618,2.5801,2.7673,2.9278,3.0998,3.2686,3.4261,3.5954,3.7133,3.7819,3.899,3.9816,0.0,4.1596,4.2159,4.2568,4.3345,4.386,4.4165,4.4701,4.5381,4.6137,4.6502,4.7167,4.7894,4.8261,4.8559,4.887,4.9109,4.9185,4.9185,4.9222,4.9428,4.9573,4.956,4.9577,4.956,4.95,4.9353,4.9051,4.8663,4.8383,4.8101,4.7711,4.7312,4.7021,4.7021,4.5936,4.5166,4.5426,4.425,4.3444,4.3645,4.3465,4.3368,4.3368,4.3368,4.3368,4.3368,4.2074,4.1234,4.1234,4.0458,4.0139,4.0364,4.0427,4.0427,4.0427,4.0427,4.0709,4.1234,4.2133,4.2625,4.2826,4.1747,4.1356,-3.5945,-3.5602,-3.479,-3.339,-3.1797,-3.0196,-2.9039,-2.7382,-2.603,-2.5722,-2.4955,-2.4222,-2.3967,-2.3054,-2.2143,-2.163,-2.0406,-1.9379,-1.9116,-1.7062,-1.5243,-1.4034,-0.8378,-0.2151,0.4016,0.7077,0.9261,1.0526,1.1672,1.3112,1.4807,1.592,1.6344,1.6282,1.8918,2.1019,2.2289,2.4472,2.6468,2.8034,2.9908,3.1611,3.3118,3.5321,3.6402,3.6871,3.8435,3.9252,3.9554,4.1019,4.1775,4.21,4.2971,4.3539,4.3878,4.4099,4.4701,4.5514,4.5929,4.6618,4.7373,4.7894,4.8278,4.864,4.8912,4.8991,4.9011,4.9128,4.9353,4.95,4.9549,4.9541,4.9506,4.9535,4.9391,4.9109,4.8811,4.8497,4.813,4.7863,4.7381,4.7021,4.7021,4.5936,4.5075,4.5075,4.4098,4.3368,4.3368,4.3368,4.3368,4.3368,4.3368,4.3225,4.2971,4.1356,4.0489,4.0803,3.9715,3.9185,3.9421,3.9488,3.9488,3.9488,3.9488,3.975,4.0425,4.1234,4.2042,4.2882,4.1448,4.0803,-3.7172,-3.676,-3.6389,-3.481,-3.2854,-3.1141,-3.0349,-2.8536,-2.679,-2.5855,-2.4955,-2.4014,-2.31,-2.3818,-2.3658,-2.1097,-2.1193,-2.0997,-1.9274,-1.7905,-1.606,-1.3227,-1.3708,-1.177,-0.4983,0.3475,0.864,0.8709,1.0419,1.1248,1.0773,1.3416,1.4909,1.4909,1.7546,1.9663,2.1019,2.2289,2.4188,2.6875,2.8034,2.9671,3.192,3.413,3.5728,3.6724,3.7793,3.8769,3.9554,4.0425,4.1234,4.2042,4.2971,4.3313,4.3389,4.3929,4.4115,4.4314,4.5601,4.6314,4.6774,4.7409,4.802,4.8593,4.8593,4.8617,4.8663,4.9051,4.9259,4.9388,4.9512,4.946,4.9408,4.9527,4.9391,4.9185,4.9185,4.8681,4.8215,4.8215,4.7581,4.7021,4.7021,4.5971,4.5075,4.5075,4.4098,4.3368,4.3368,4.3368,4.3368,4.3313,4.3313,4.2971,4.2042,4.0427,3.9816,4.074,3.9214,3.8632,3.9421,3.9421,3.9421,3.9421,3.9421,3.9488,3.9488,4.0362,4.1234,4.1952,4.1173,3.9942,-4.0278,-3.9559,-3.8356,-3.7071,-3.5359,-3.3522,-3.1628,-2.9655,-2.8003,-2.7098,-2.6029,-2.4955,-2.4106,-2.4089,-2.3969,-2.3103,-2.1478,-2.0406,-2.0432,-1.8486,-1.6382,-1.4597,-1.4349,-1.3086,-0.9633,-0.5855,-0.0109,0.8086,1.0443,1.1371,1.1248,1.1743,1.2472,1.3437,1.6077,1.8603,2.1019,2.2289,2.4188,2.6855,2.7129,2.8102,2.9671,3.2586,3.4131,3.4599,3.7133,3.8454,3.8701,3.9488,4.001,4.0364,4.1775,4.2364,4.2479,4.3291,4.3808,4.4265,4.5075,4.5739,4.6389,4.7307,4.777,4.7941,4.8261,4.846,4.8663,4.9051,4.9185,4.926,4.9419,4.9401,4.9408,4.9527,4.9391,4.9185,4.9185,4.8804,4.8435,4.827,4.777,4.7346,4.7095,4.6335,4.5601,4.5201,4.4397,4.3789,4.3389,4.3368,4.3082,4.2421,4.2364,4.2074,4.1234,4.0139,3.9554,3.9816,3.8906,3.8384,3.8632,3.8632,3.8632,3.8632,3.8632,3.8944,3.9488,3.975,4.0331,4.1173,4.1477,4.0772,-4.1844,-4.1264,-4.0116,-3.8747,-3.7307,-3.5501,-3.303,-3.1118,-2.944,-2.7735,-2.6516,-2.5571,-2.4986,-2.4815,-2.4837,-2.5228,-2.3361,-2.1839,-2.1703,-1.9448,-1.7178,-1.522,-1.4212,-1.3182,-1.1593,-0.9799,-0.5769,0.1303,0.6061,0.9098,1.0328,1.0822,1.154,1.2807,1.4967,1.7404,2.0244,2.1509,2.3236,2.5336,2.6283,2.7402,2.8659,3.193,3.3711,3.4314,3.7061,3.8274,3.8315,3.9117,3.9488,3.9619,4.0958,4.1537,4.1596,4.2511,4.3006,4.3413,4.4378,4.5121,4.5851,4.6694,4.699,4.7168,4.7948,4.8315,4.8534,4.9049,4.9185,4.9185,4.9259,4.9351,4.9487,4.9544,4.9428,4.9222,4.9185,4.8891,4.8522,4.827,4.7894,4.7517,4.7095,4.6491,4.5851,4.5166,4.4558,4.3929,4.3389,4.3368,4.2971,4.21,4.1385,4.0741,4.0331,3.9518,3.9117,3.9421,3.8701,3.8274,3.8274,3.8274,3.8274,3.8274,3.8274,3.8523,3.8982,3.9288,3.975,4.0298,4.0772,4.0647,-4.2364,-4.2042,-4.1624,-4.0044,-3.8773,-3.7229,-3.4637,-3.2884,-3.1128,-2.8416,-2.6903,-2.6102,-2.6029,-2.5996,-2.6294,-2.7214,-2.5952,-2.4435,-2.3147,-2.0692,-1.8168,-1.5623,-1.396,-1.2606,-1.169,-0.9984,-0.8938,-0.8762,-0.1408,0.4554,0.7743,0.9991,1.1681,1.2586,1.4064,1.6126,1.8861,2.0145,2.1509,2.2965,2.5336,2.7129,2.8392,3.149,3.3631,3.4833,3.6916,3.7934,3.8175,3.8915,3.9288,3.9421,4.0362,4.0678,4.0803,4.1656,4.1952,4.2184,4.3623,4.451,4.5121,4.5809,4.6096,4.6385,4.7729,4.8187,4.8352,4.8949,4.9165,4.9185,4.9185,4.9391,4.9566,4.9527,4.9447,4.9353,4.9185,4.8891,4.8546,4.8261,4.7924,4.7515,4.7023,4.6451,4.5809,4.5121,4.4476,4.3929,4.3335,4.3225,4.2826,4.1834,4.0364,3.9421,3.9355,3.8701,3.8563,3.9288,3.8701,3.8274,3.8274,3.8274,3.8274,3.8274,3.8274,3.8274,3.8274,3.9012,3.9355,3.9355,3.9421,3.9881,-4.3115,-4.2568,-4.1893,-4.1505,-4.0242,-3.8737,-3.7455,-3.5084,-3.2849,-3.1366,-2.9541,-2.8081,-2.7254,-2.7645,-2.7958,-2.7492,-2.5952,-2.4717,-2.4435,-2.1281,-1.8875,-1.827,-1.6023,-1.396,-1.2711,-1.1575,-1.0312,-0.883,-0.6975,-0.3691,0.1622,0.6609,0.9862,1.1099,1.2586,1.4552,1.7391,1.8746,2.064,2.2965,2.3541,2.4528,2.5919,2.8308,3.0154,3.1299,3.3526,3.5468,3.7089,3.7206,3.7806,3.8632,3.9451,3.975,3.9946,4.1477,4.1952,4.2184,4.3623,4.4215,4.4558,4.5723,4.6411,4.6912,4.7581,4.7954,4.8298,4.8593,4.8933,4.9185,4.9185,4.9391,4.9552,4.9431,4.9402,4.9353,4.9185,4.9109,4.8907,4.8325,4.813,4.7702,4.6499,4.6172,4.568,4.451,4.4215,4.3656,4.2446,4.2306,4.1716,4.0173,3.9685,3.9252,3.8563,3.8384,3.8384,3.8523,3.8384,3.8274,3.8274,3.8274,3.8274,3.8274,3.8274,3.8274,3.8274,3.8454,3.8592,3.8592,3.9185,3.9252,-4.3368,-4.2971,-4.2568,-4.21,-4.1019,-3.972,-3.8416,-3.6595,-3.4565,-3.2517,-3.1221,-3.0137,-2.9138,-2.882,-2.8946,-2.9575,-2.7493,-2.5781,-2.5742,-2.2414,-1.9762,-1.9076,-1.664,-1.4701,-1.396,-1.2184,-1.0822,-1.0098,-0.9275,-0.6758,-0.2273,0.2161,0.6589,1.0912,1.1531,1.3187,1.5987,1.7316,1.9418,2.1997,2.2676,2.394,2.5993,2.7616,2.9055,3.02,3.248,3.4105,3.524,3.63,3.7017,3.7621,3.8534,3.8876,3.9147,4.0772,4.1416,4.1656,4.3225,4.4133,4.4701,4.5381,4.6054,4.6763,4.7607,4.8043,4.8325,4.876,4.9011,4.9185,4.9185,4.9391,4.9531,4.9484,4.9488,4.9477,4.9353,4.9259,4.9008,4.8352,4.8215,4.776,4.6305,4.6054,4.5601,4.4314,4.4115,4.3571,4.2184,4.1656,4.0772,3.908,3.8876,3.8534,3.765,3.7579,3.7579,3.7579,3.7579,3.7793,3.8274,3.7793,3.7793,3.8274,3.7793,3.7793,3.8274,3.8274,3.8274,3.8344,3.8701,3.8876,-4.3302,-4.3368,-4.317,-4.2421,-4.1508,-4.0425,-3.8893,-3.7436,-3.5727,-3.3135,-3.2343,-3.1828,-3.0933,-2.9966,-2.9921,-3.1802,-2.9256,-2.7108,-2.7026,-2.3546,-2.0625,-1.9563,-1.6947,-1.522,-1.5013,-1.2567,-1.1108,-1.1363,-1.0006,-0.7948,-0.5211,-0.1839,0.3346,1.0748,1.0593,1.1619,1.4158,1.5769,1.7796,2.0313,2.1883,2.3809,2.6191,2.7256,2.8463,2.9621,3.1466,3.2698,3.3552,3.5419,3.6476,3.7089,3.7963,3.8274,3.8454,4.0041,4.0678,4.105,4.26,4.3911,4.4937,4.5029,4.5636,4.646,4.7697,4.8159,4.8315,4.8907,4.9128,4.9185,4.9185,4.9391,4.9555,4.956,4.9583,4.9549,4.9575,4.9353,4.9008,4.8352,4.8215,4.7729,4.6149,4.5894,4.547,4.4199,4.3998,4.348,4.1952,4.1112,3.9911,3.8216,3.8175,3.7863,3.6871,3.6724,3.6724,3.6724,3.6577,3.6944,3.7963,3.7017,3.6944,3.8034,3.719,3.719,3.8034,3.8175,3.8274,3.8274,3.8274,3.8632,-4.3039,-4.3368,-4.3313,-4.317,-4.1957,-4.074,-4.0521,-3.7802,-3.5294,-3.4827,-3.3341,-3.2037,-3.1896,-3.173,-3.1695,-3.2008,-3.0,-2.8303,-2.8303,-2.4038,-2.0936,-2.0723,-1.8371,-1.6382,-1.5117,-1.3541,-1.206,-1.0887,-1.1035,-1.0213,-0.829,-0.2923,0.2815,0.8863,0.9046,0.9747,1.1196,1.3939,1.5999,1.7479,2.0,2.1997,2.3541,2.4849,2.6159,2.729,2.7631,2.988,3.3472,3.3711,3.5544,3.8104,3.8274,3.8274,3.8384,3.9318,4.0139,4.0927,4.1866,4.3072,4.4363,4.4937,4.5894,4.7023,4.7548,4.7924,4.8261,4.8569,4.8912,4.9185,4.9185,4.9391,4.9555,4.956,4.9583,4.9549,4.9575,4.9353,4.9008,4.8352,4.8215,4.7562,4.5575,4.5246,4.483,4.3679,4.3411,4.285,4.1173,4.0203,3.8923,3.7162,3.7721,3.7863,3.6871,3.6724,3.6724,3.6724,3.5879,3.5879,3.6871,3.5954,3.5879,3.6944,3.6798,3.6798,3.6944,3.7863,3.8274,3.8274,3.8274,3.8344,-4.2973,-4.3368,-4.3368,-4.3368,-4.2396,-4.1356,-4.0927,-3.8728,-3.6466,-3.5397,-3.4024,-3.2811,-3.2174,-3.2115,-3.2115,-3.2115,-3.0667,-2.9366,-2.8659,-2.5464,-2.2641,-2.1215,-1.9377,-1.7688,-1.6266,-1.4909,-1.3426,-1.205,-1.1319,-1.0396,-0.883,-0.6291,-0.2269,0.3689,0.3791,0.5729,0.9533,1.2376,1.4863,1.6971,1.9702,2.1705,2.2965,2.4413,2.5397,2.5919,2.6508,2.8305,3.0866,3.2642,3.4676,3.6651,3.7793,3.8274,3.8454,3.9781,4.0489,4.102,4.2306,4.3353,4.4265,4.489,4.5723,4.6651,4.7675,4.8072,4.8288,4.8782,4.9032,4.9185,4.9185,4.9316,4.948,4.956,4.9495,4.9484,4.9552,4.9353,4.9089,4.8819,4.8483,4.7625,4.5739,4.5233,4.4722,4.3551,4.2915,4.1984,4.0267,3.9685,3.872,3.6944,3.719,3.6724,3.5118,3.4964,3.4964,3.4964,3.4575,3.4809,3.5804,3.4886,3.4809,3.5879,3.5348,3.5271,3.5879,3.6944,3.7407,3.7407,3.8034,3.8274,-4.2414,-4.3105,-4.3368,-4.3368,-4.2511,-4.1537,-4.0927,-3.9028,-3.6976,-3.5473,-3.4104,-3.2949,-3.2174,-3.2115,-3.2115,-3.2115,-3.1117,-2.9954,-2.8748,-2.6407,-2.3867,-2.1313,-1.9862,-1.8486,-1.7217,-1.5853,-1.4481,-1.3437,-1.205,-1.0691,-0.9455,-0.9025,-0.6732,-0.2383,-0.0757,0.2487,0.7606,1.0372,1.3197,1.586,1.8689,2.079,2.2482,2.39,2.4716,2.5133,2.5993,2.7402,2.9123,3.1574,3.379,3.5728,3.7262,3.8034,3.8454,3.9911,4.0615,4.1082,4.2746,4.3718,4.4265,4.489,4.5514,4.6305,4.7634,4.813,4.8352,4.8848,4.9109,4.9185,4.9185,4.9316,4.9445,4.9528,4.9503,4.9445,4.9569,4.9353,4.9185,4.9185,4.8657,4.7778,4.6523,4.5641,4.4606,4.3214,4.2421,4.1385,3.9655,3.9288,3.8475,3.6549,3.6577,3.5879,3.3812,3.3652,3.3652,3.3652,3.333,3.3732,3.4731,3.3812,3.3732,3.4809,3.4024,3.4024,3.4809,3.5804,3.6327,3.6327,3.7407,3.7863,-4.0869,-4.2316,-4.3368,-4.3368,-4.2074,-4.0896,-4.0803,-3.8012,-3.5321,-3.5195,-3.3572,-3.2115,-3.2115,-3.2115,-3.2115,-3.2115,-3.1117,-2.9954,-2.8748,-2.6407,-2.3867,-2.1313,-1.9862,-1.8486,-1.7217,-1.5853,-1.4909,-1.4909,-1.3541,-1.2289,-1.138,-0.967,-0.8614,-0.8321,-0.2926,0.1406,0.4443,0.7493,1.0289,1.3112,1.586,1.8488,2.1117,2.2482,2.3786,2.5038,2.5114,2.6997,3.0052,3.0224,3.2835,3.6651,3.6798,3.7407,3.8384,3.9252,4.0075,4.1082,4.2746,4.3718,4.4265,4.489,4.5514,4.626,4.7343,4.7924,4.8261,4.8546,4.8891,4.9185,4.9185,4.9391,4.9578,4.9578,4.9578,4.9571,4.9575,4.9353,4.9185,4.9185,4.8657,4.8187,4.8094,4.6441,4.4427,4.2325,4.2042,4.1385,3.9655,3.8808,3.755,3.5473,3.6179,3.5879,3.3812,3.3652,3.3652,3.3652,3.2729,3.2646,3.3652,3.2729,3.2646,3.3732,3.3652,3.3652,3.3732,3.4731,3.5271,3.5271,3.6327,3.6798,-3.9324,-4.0836,-4.1954,-4.1954,-4.1776,-4.1416,-4.0927,-3.8864,-3.6932,-3.6327,-3.4497,-3.3031,-3.3031,-3.2482,-3.2115,-3.2115,-3.1756,-3.1032,-2.9867,-2.826,-2.5927,-2.2493,-2.0987,-1.9463,-1.7319,-1.66,-1.5957,-1.5013,-1.3646,-1.228,-1.101,-0.9533,-0.8709,-0.8748,-0.4882,0.0433,0.7094,0.8182,0.9784,1.199,1.5357,1.7897,1.9847,2.1997,2.3175,2.3786,2.4716,2.662,2.9211,2.9817,3.2373,3.5804,3.6476,3.7407,3.8454,3.9846,4.0552,4.1082,4.2746,4.3718,4.4265,4.489,4.5514,4.6305,4.7603,4.8101,4.8288,4.8826,4.9051,4.9185,4.9259,4.9391,4.9498,4.9649,4.9583,4.9461,4.9555,4.9353,4.9185,4.9185,4.8782,4.8409,4.8206,4.7058,4.5306,4.2973,4.1829,4.0772,3.9619,3.8769,3.7478,3.5424,3.5501,3.4886,3.2811,3.2646,3.2646,3.2646,3.2258,3.2258,3.2646,3.2258,3.2258,3.2646,3.2646,3.2646,3.2646,3.3652,3.4183,3.4183,3.5271,3.6104,-3.791,-3.9258,-4.0409,-4.0409,-4.0678,-4.0753,-4.0211,-3.8796,-3.7464,-3.6843,-3.5118,-3.3652,-3.3652,-3.2811,-3.2115,-3.2115,-3.2115,-3.1479,-2.9954,-2.9102,-2.7158,-2.326,-2.1769,-2.0145,-1.8007,-1.7408,-1.6896,-1.6332,-1.4574,-1.2902,-1.1514,-1.0151,-0.9219,-0.8729,-0.5864,-0.1082,0.5773,0.7755,0.9383,1.0633,1.4262,1.6422,1.7023,2.0214,2.2094,2.2965,2.3995,2.5953,2.8659,2.9276,3.1598,3.4731,3.5804,3.6871,3.8005,4.0075,4.0803,4.102,4.2396,4.344,4.4265,4.489,4.5514,4.6305,4.7639,4.8101,4.8325,4.8826,4.9089,4.9222,4.9353,4.9388,4.949,4.9721,4.9591,4.947,4.9555,4.9353,4.9185,4.9185,4.887,4.8497,4.8234,4.7159,4.5704,4.3931,4.2317,4.0927,4.001,3.8944,3.7478,3.5424,3.5195,3.434,3.2258,3.2115,3.2115,3.2115,3.2115,3.2115,3.2115,3.2115,3.2115,3.2115,3.2115,3.2115,3.2115,3.2811,3.3112,3.3112,3.4183,3.5041,-3.666,-3.7712,-3.8814,-3.8814,-3.8732,-3.8662,-3.8662,-3.7582,-3.6686,-3.6686,-3.5038,-3.36,-3.36,-3.2786,-3.2115,-3.2115,-3.2115,-3.131,-2.9014,-2.857,-2.7158,-2.3523,-2.1802,-2.0526,-1.9277,-1.8007,-1.7715,-1.8976,-1.6537,-1.4388,-1.3017,-1.1514,-1.0151,-0.8918,-0.5967,-0.3032,-0.0325,0.5665,0.864,0.8702,1.2451,1.3719,1.3017,1.7023,2.0344,2.2869,2.2965,2.511,2.857,2.857,3.062,3.3732,3.4809,3.5804,3.7061,3.972,4.074,4.0927,4.1716,4.2908,4.4265,4.489,4.5514,4.626,4.7307,4.7894,4.8261,4.8522,4.8891,4.9222,4.9353,4.946,4.9606,4.9731,4.965,4.9549,4.9575,4.9353,4.9185,4.9147,4.887,4.8497,4.8206,4.6775,4.5572,4.5132,4.336,4.1716,4.0927,3.9348,3.7478,3.5424,3.5195,3.434,3.2258,3.2115,3.2115,3.2115,3.2115,3.2115,3.2115,3.2115,3.2115,3.2115,3.2115,3.2115,3.2115,3.2115,3.2115,3.2115,3.3112,3.3572,-3.5269,-3.6233,-3.7318,-3.7318,-3.7283,-3.7288,-3.7288,-3.614,-3.506,-3.506,-3.4105,-3.3336,-3.3336,-3.2637,-3.2115,-3.2115,-3.2115,-3.184,-3.1225,-2.9629,-2.7811,-2.5815,-2.2895,-2.1215,-2.1802,-1.9862,-1.8688,-1.8976,-1.6537,-1.4805,-1.4377,-1.2041,-1.0691,-1.074,-0.8595,-0.7083,-0.6324,0.1517,0.5539,0.5531,0.971,1.2069,1.2912,1.5094,1.8127,2.1607,2.2482,2.511,2.857,2.857,3.062,3.3732,3.4809,3.5804,3.6916,3.8347,3.972,4.0927,4.1716,4.2908,4.4265,4.489,4.5514,4.6305,4.7634,4.813,4.8325,4.8885,4.9109,4.9222,4.9465,4.9535,4.9606,4.9731,4.965,4.9549,4.9463,4.9316,4.9109,4.8811,4.851,4.8206,4.7832,4.7168,4.6305,4.5257,4.3744,4.226,4.0989,3.9816,3.8099,3.5473,3.4497,3.3491,3.2174,3.2115,3.2115,3.2115,3.2115,3.2115,3.2115,3.2115,3.2115,3.2115,3.2115,3.2115,3.2115,3.2115,3.2115,3.2115,3.2341,3.2868,-3.3878,-3.3866,-3.4063,-3.4063,-3.4485,-3.4965,-3.4965,-3.4672,-3.4308,-3.3961,-3.3211,-3.2483,-3.2195,-3.1752,-3.1432,-3.1432,-3.1823,-3.1924,-3.1395,-2.9716,-2.8102,-2.6885,-2.3772,-2.2289,-2.369,-2.1428,-1.9862,-1.9862,-1.7851,-1.592,-1.4169,-1.2472,-1.1222,-1.0404,-0.9261,-0.8188,-0.6872,-0.0651,0.3691,0.6197,0.9862,1.2,1.2912,1.4273,1.6537,1.9463,2.1313,2.4264,2.7854,2.7854,2.9561,3.2383,3.3415,3.4756,3.6253,3.7635,3.9288,4.0865,4.1356,4.2788,4.4606,4.4983,4.5723,4.6651,4.7639,4.8072,4.8288,4.8804,4.9106,4.9316,4.9503,4.9604,4.9654,4.9733,4.9673,4.9521,4.9409,4.9259,4.9051,4.8663,4.8485,4.8197,4.7707,4.7204,4.6349,4.4902,4.3452,4.2081,4.0989,3.9391,3.7677,3.6029,3.4497,3.3193,3.2174,3.2115,3.184,3.1371,3.184,3.184,3.1371,3.184,3.184,3.1395,3.184,3.184,3.1371,3.184,3.2115,3.2115,3.2115,3.2424,-3.2475,-3.1268,-3.0315,-3.0238,-3.114,-3.199,0.0,-3.2763,-3.3344,-3.2595,-3.1786,-3.1028,-3.0261,-3.0239,-3.0334,-3.0334,-3.1237,-3.1563,-3.048,-2.9299,-2.8213,-2.7129,-2.4867,-2.3863,-2.4925,-2.271,-2.1117,-2.1019,-1.9762,-1.7329,-1.3541,-1.3017,-1.1752,-0.9312,-0.8931,-0.7299,-0.4338,-0.0761,0.3594,0.8742,1.1243,1.2498,1.2711,1.4075,1.5531,1.7012,1.9663,2.2834,2.6191,2.6672,2.8281,3.062,3.1671,3.3309,3.5424,3.7478,3.9348,4.0834,4.0927,4.27,4.4924,4.5029,4.5851,4.6948,4.7448,4.7894,4.8261,4.8522,4.8966,4.9391,4.954,4.964,4.9735,4.9733,4.9667,4.9503,4.9391,4.9259,4.9069,4.8617,4.8569,4.8321,4.7574,4.6954,4.6013,4.4378,4.2777,4.1525,4.0772,3.8347,3.6651,3.6402,3.4731,3.3193,3.2174,3.1924,3.1479,3.0386,3.1202,3.1225,3.0214,3.1117,3.1202,3.0127,3.1107,3.1035,3.0138,3.1228,3.1837,3.192,3.2067,3.1993,0.0,0.0,0.0,0.0,0.0,0.0,0.0,-2.8494,-2.8142,-2.7446,-2.7993,-2.8351,-2.7795,-2.8516,-2.9287,-2.9287,-3.0114,-3.0717,-3.0557,-2.9389,-2.8503,-2.8213,-2.6926,-2.5767,-2.5114,-2.3594,-2.2094,-2.1117,-1.9762,-1.8284,-1.6369,-1.4064,-1.2596,-1.2069,-0.9892,-0.7299,-0.4338,0.3258,0.7664,0.8768,0.9275,1.032,1.1787,1.2816,1.4064,1.5531,1.8256,2.0427,2.2369,2.5522,2.8682,3.1671,3.2774,3.4,3.5397,3.7436,3.9258,4.0927,4.1537,4.2616,4.3823,4.4783,4.5291,4.5739,4.7203,4.7894,4.8261,4.8522,4.8966,4.9408,4.9516,4.9591,4.9618,4.9611,4.9502,4.9391,4.9222,4.9185,4.9008,4.8394,4.8288,4.7875,4.6618,4.6265,4.5696,4.4363,4.2777,4.1224,3.9763,3.7901,3.6104,3.4419,3.3891,3.3193,3.2174,3.1202,3.0558,3.03,2.9606,2.919,2.8925,2.9102,2.9102,2.8925,2.8519,2.8561,2.9061,2.9475,3.0128,3.0846,3.1701,3.1188,0.0,0.0,0.0,0.0,0.0,0.0,0.0,0.0,0.0,0.0,0.0,-2.6416,-2.5359,0.0,-2.7732,-2.7379,-2.8675,-2.9895,-3.0432,-2.9449,-2.8672,-2.8672,-2.7612,-2.6653,-2.6046,-2.5281,-2.3809,-2.1215,-2.0344,-1.8861,-1.6163,-1.396,-1.2481,-1.1734,-0.9769,-0.7288,-0.4338,-0.141,0.2935,0.8775,0.7186,0.824,1.1486,1.2404,1.3646,1.5117,1.7851,1.9463,2.0244,2.3523,2.7026,3.0425,3.2586,3.4443,3.6151,3.807,3.9655,4.0927,4.1716,4.2941,4.4316,4.4924,4.5514,4.626,4.7309,4.7894,4.8261,4.8522,4.904,4.95,4.9549,4.9612,4.9647,4.959,4.9494,4.9277,4.8949,4.8891,4.8677,4.8072,4.7924,4.7542,4.6265,4.5222,4.4163,4.3234,4.1315,3.9603,3.8804,3.6658,3.4809,3.3732,3.3193,3.2646,3.2115,3.1032,3.03,3.03,2.9168,2.8303,2.7764,2.7871,2.77,2.7065,2.6853,2.6623,2.654,2.7715,2.8511,2.8951,2.9475,2.9504,0.0,0.0,0.0,0.0,0.0,0.0,0.0,0.0,0.0,0.0,0.0,0.0,0.0,0.0,0.0,-2.5659,-2.7225,-2.8873,-2.9955,-2.9166,-2.8519,-2.8485,-2.7642,-2.6901,-2.6507,-2.6519,-2.5069,-2.1591,-2.1117,-1.9433,-1.592,-1.3845,-1.227,-1.1091,-0.9541,-0.7606,-0.5211,-0.7538,-0.348,0.7001,0.5219,0.0,1.0962,1.1972,1.3227,1.469,1.7431,1.8961,1.9663,2.2272,2.5204,2.8549,3.1574,3.4417,3.6916,3.8788,4.001,4.0927,4.1861,4.338,4.4937,4.5166,4.6013,4.6948,4.7481,4.7894,0.0,4.8522,4.9077,4.9575,4.9549,4.9629,4.9688,4.9585,4.939,4.9103,4.87,4.8569,4.8347,4.7739,4.7512,4.7097,4.6061,4.4262,4.2677,4.1893,3.9659,3.8041,3.7831,3.5343,3.3572,3.333,3.2564,3.2008,3.1756,3.0838,3.0127,2.9671,2.8748,2.7673,2.6508,2.6654,2.6238,2.5176,2.5123,2.4738,2.4009,2.5707,2.6718,2.7102,2.6497,2.6633,0.0,0.0,0.0,0.0,0.0,0.0,0.0,0.0,0.0,0.0,0.0,0.0,0.0,0.0,0.0,0.0,-2.6179,-2.7328,-2.8579,-2.8078,-2.7502,-2.7411,-2.7291,-2.6773,-2.5586,-2.5405,-2.4724,-2.2912,-2.1705,-2.0344,-1.8674,-1.4967,0.0,0.0,0.0,-0.8608,-0.8296,-0.8545,-0.5456,0.0981,0.3255,0.5972,0.9052,1.038,1.1734,1.3227,1.5962,1.8502,2.1019,2.3582,2.5596,2.729,2.9535,3.3101,3.6916,3.8788,4.001,4.105,4.2341,0.0,0.0,4.5558,4.6054,4.634,4.7343,4.7894,4.8261,4.8522,4.9077,4.9575,4.9549,4.9583,4.9592,4.9555,4.9098,4.87,4.8617,4.8409,4.8159,4.7675,4.7166,4.6438,4.5391,4.3964,4.251,4.1142,3.9295,3.7732,3.6819,3.4884,3.3249,3.2341,3.2174,0.0,3.0643,3.0386,2.9409,2.7381,2.7129,2.6528,2.5302,2.4568,2.4016,2.3927,2.2487,2.2118,2.2928,2.3398,2.4476,2.6005,2.3336,2.1808,0.0,0.0,0.0,0.0,0.0,0.0,0.0,0.0,0.0,0.0,0.0,0.0,0.0,0.0,0.0,0.0,-2.4425,-2.6261,-2.7725,-2.6839,-2.651,-2.7842,-2.7577,-2.6833,-2.5644,-2.548,-2.4424,-2.1796,-2.1497,-2.0521,-1.8441,-1.6323,-1.4437,-1.2912,-1.0904,-0.9541,-0.8722,-0.6969,-0.5777,-0.5017,0.3041,0.7533,0.885,1.0412,1.2165,1.4104,1.6053,1.8488,2.1117,2.3044,2.522,2.782,0.0,0.0,0.0,0.0,3.799,4.0015,4.2218,4.3744,4.4706,4.4712,4.4956,4.5412,4.6255,4.6637,4.7064,4.8507,4.9238,4.9555,4.9461,4.9506,4.9485,4.9201,4.8854,4.8497,4.8105,4.7948,4.7639,4.6844,4.6506,0.0,4.3063,4.1694,4.0523,3.9397,3.7591,3.6021,3.4961,3.3626,3.2564,3.2115,3.2115,3.1564,3.0386,2.9693,0.0,0.0,0.0,2.5332,2.4317,2.3866,0.0,0.0,0.0,1.991,2.0336,2.0563,0.0,0.0,1.9633,1.9623,0.0,0.0,0.0,0.0,0.0,0.0,0.0,0.0,0.0,0.0,0.0,0.0,0.0,0.0,0.0,0.0,-2.3156,-2.5114,-2.6241,-2.5493,-2.5521,-2.7405,-2.7127,-2.6471,-2.5664,-2.5383,-2.4191,-2.1701,-2.1478,-2.0529,-1.8246,-1.6992,-1.5396,-1.3252,-1.1469,-1.0172,-0.9455,-0.684,-0.6645,-0.866,0.228,0.7533,0.7624,0.9769,1.1848,1.375,1.6016,1.8259,2.0593,2.3026,2.5828,2.8876,3.0579,3.2738,3.5024,3.5224,3.649,3.8579,4.0983,4.2689,4.3787,4.3295,4.363,4.4294,4.4871,4.5114,4.5589,4.7407,4.8035,4.8196,4.812,4.808,4.8083,4.8117,4.7764,4.7389,4.7364,4.7132,4.659,4.5417,4.4585,4.3041,3.9622,3.8514,3.7692,3.6585,3.4985,3.3731,3.3296,3.228,3.1798,3.2067,3.1756,3.1117,2.9954,2.8748,2.7583,2.6436,2.5332,2.4412,2.3696,2.3271,2.2161,2.0583,1.8645,1.7707,0.0,0.0,0.0,0.0,0.0,0.0,0.0,0.0,0.0,0.0,0.0,0.0,0.0,0.0,0.0,0.0,0.0,0.0,0.0,0.0,0.0,0.0,0.0,0.0,-2.3851,-2.413,-2.4517,-2.5118,-2.515,-2.5224,-2.5485,-2.4701,-2.4096,-2.3845,-2.1823,-2.0128,-1.8876,-1.6328,-1.4587,-1.4172,-1.1371,-1.0444,-1.138,-0.9584,-0.864,-0.866,0.0217,0.4446,0.4554,0.7476,0.9519,1.1074,1.5138,1.7674,1.9299,2.4585,2.8016,3.0077,2.974,3.195,3.5452,3.622,3.6539,3.6822,3.8332,3.9681,4.0863,4.1454,4.2209,4.2877,4.3327,4.3688,4.4069,4.4552,4.4743,4.4865,4.4867,4.4578,4.4682,4.6175,4.5473,4.488,4.6344,4.592,4.4753,4.3305,4.0886,3.8119,3.5153,3.4572,3.4037,3.2511,3.1367,0.0,3.1958,3.1213,3.0944,3.1993,3.1032,2.9867,2.8748,2.7583,2.6344,2.5227,2.426,2.3714,2.3677,2.2059,2.0373,1.8958,1.6524,1.528,1.5283,0.0,0.0,0.0,0.0,0.0,0.0,0.0,0.0,0.0,0.0,0.0,0.0,0.0,0.0,0.0,0.0,0.0,0.0,0.0,0.0,0.0,0.0,0.0,0.0,-2.3641,-2.4309,-2.5373,-2.4535,-2.3747,-2.3178,-2.246,-2.1759,-2.1129,-2.1602,-2.1022,-1.9108,-1.9346,-1.8384,-1.5849,-1.3382,-1.185,-1.1233,-0.9018,-0.702,-0.5286,-0.3861,0.0505,0.7275,0.8296,1.0552,1.3832,1.5246,1.7603,2.0412,2.2244,2.6084,3.0788,3.1075,3.2481,3.4334,3.5009,3.5259,3.5391,3.6407,3.7895,3.93,3.8758,3.8459,3.8332,3.8709,3.9714,4.1009,4.2433,4.375,4.4647,4.4273,4.4152,4.4051,4.3687,4.3251,4.2884,4.2834,4.25,4.1901,4.0524,3.7334,3.4126,3.1584,3.1492,3.1505,3.1085,3.0793,3.0104,2.9108,2.9205,2.9252,2.8994,2.9072,2.8659,2.7492,2.7038,2.5788,2.332,2.2863,2.187,2.0046,1.9022,1.7996,1.6926,1.5328,1.442,1.4235,0.0,0.0,0.0,0.0,0.0,0.0,0.0,0.0,0.0,0.0,0.0,0.0,0.0,0.0,0.0,0.0,0.0,0.0,0.0,0.0,0.0,0.0,0.0,0.0,0.0,0.0,-2.4233,-2.3254,0.0,-2.2487,-2.1589,-2.0708,-2.0155,-2.0748,-2.0349,-1.8369,-1.9229,-1.8626,-1.6153,-1.4106,-1.2688,-1.1964,-1.013,-0.8109,-0.5954,-0.5576,-0.0389,0.8732,0.9089,1.0866,1.3646,1.5179,1.7638,2.0423,2.0362,2.3353,2.8029,2.9317,3.0657,3.1923,3.294,3.3273,3.3367,3.4007,3.5069,3.6148,3.5634,3.536,3.5323,3.558,3.6543,3.7818,3.9024,4.0163,4.1072,4.1225,4.1079,4.0941,4.1224,4.0727,4.014,4.0111,3.9771,3.8319,3.4596,3.201,2.9709,2.751,2.7583,2.8045,2.8207,2.7949,2.7499,2.695,2.7327,2.7635,2.7408,2.7763,2.7673,2.6855,2.6416,2.5026,2.2353,2.1959,2.0599,1.819,1.6896,1.6066,1.5524,1.3908,1.3041,0.0,0.0,0.0,0.0,0.0,0.0,0.0,0.0,0.0,0.0,0.0,0.0,0.0,0.0,0.0,0.0,0.0,0.0,0.0,0.0,0.0,0.0,0.0,0.0,0.0,0.0,0.0,-2.1851,-2.1247,0.0,0.0,0.0,0.0,-2.0738,-1.938,-1.8096,-1.7041,-1.6406,-1.5856,-1.5371,-1.3758,-1.316,-1.3547,-1.2502,-1.1377,-1.0259,-0.5068,0.1151,0.8337,0.9825,1.0467,1.0847,1.4997,1.7763,1.9359,1.9394,2.0577,2.2648,2.4934,2.6936,2.868,3.0254,3.0804,3.0911,3.1293,3.155,3.1773,3.2129,3.2922,3.3683,3.3569,3.3948,0.0,0.0,3.4318,3.4592,3.5971,3.5588,3.5569,3.8473,3.7664,3.6627,3.8038,3.7342,3.4093,2.6192,2.5198,2.4998,2.293,0.0,2.3626,2.3904,2.328,2.3415,2.5351,2.5564,2.5941,2.7002,2.6885,2.6611,2.6611,2.5561,2.408,2.1955,2.1195,1.9822,1.7909,1.5565,1.44,1.4612,1.2268,0.0,0.0,0.0,0.0,0.0,0.0,0.0,0.0,0.0,0.0,0.0,0.0,0.0,0.0,0.0,0.0,0.0,0.0,0.0,0.0,0.0,0.0,0.0,0.0,0.0,0.0,-1.9284,-1.9763,-2.024,-1.9487,-1.8982,0.0,0.0,0.0,0.0,0.0,0.0,-1.7658,-1.8199,-1.8279,-1.7797,-1.5787,-1.4249,-1.3177,-1.1297,-1.0407,-1.0539,-0.6381,-0.2204,0.2088,0.9439,1.3386,1.4428,1.5532,1.6685,1.7881,2.0386,2.3069,2.564,2.579,2.6725,2.8107,2.8989,2.9731,3.0342,3.067,3.1253,3.1546,2.9829,2.9543,2.9468,2.7406,0.0,0.0,0.0,0.0,3.2308,3.3252,3.323,3.282,3.2272,3.2021,3.1673,3.0823,3.0369,2.8446,2.2789,2.0888,2.0243,2.0146,2.0243,0.0,2.1922,2.243,2.2447,2.1779,2.2736,2.3539,2.379,2.4247,2.4214,2.3411,2.3082,2.149,1.8169,1.7377,1.6204,1.4271,1.3269,1.2567,1.202,0.0,0.0,0.0,0.0,0.0,0.0,0.0,0.0,0.0,0.0,0.0,0.0,0.0,0.0,0.0,0.0,0.0,0.0,0.0,0.0,0.0,0.0,0.0,0.0,0.0,0.0,0.0,-1.8048,-1.8405,-1.895,-1.8101,-1.7487,0.0,0.0,0.0,0.0,0.0,0.0,0.0,0.0,0.0,-1.6625,-1.549,-1.445,-1.3526,-1.2357,-1.2005,-1.2339,-1.0614,-0.8764,-0.6587,0.2376,0.8411,1.2027,1.5562,1.7033,1.7129,1.9791,2.1538,2.2494,0.0,0.0,0.0,0.0,2.5555,2.6501,2.6753,2.7402,2.7844,2.6543,0.0,0.0,0.0,0.0,0.0,0.0,0.0,2.7987,2.9118,2.9068,2.8692,2.8335,2.8344,2.8183,2.7255,2.493,2.1992,1.847,1.7347,1.6973,1.6779,1.7606,0.0,0.0,0.0,2.0256,1.9998,2.0153,2.0511,2.0925,2.146,2.1672,2.135,2.1075,1.9683,1.673,1.6044,1.485,1.2906,1.1932,1.1375,0.0,0.0,0.0,0.0,0.0,0.0,0.0,0.0,0.0,0.0,0.0,0.0,0.0,0.0,0.0,0.0,0.0,0.0,0.0,0.0,0.0,0.0,0.0,0.0,0.0,0.0,0.0,0.0,0.0,-1.6839,-1.7976,0.0,0.0,0.0,0.0,0.0,0.0,0.0,0.0,0.0,0.0,0.0,0.0,0.0,-1.4191,-1.4024,-1.4143,-1.4213,-1.4237,-1.5129,-1.5273,-1.4648,-0.7558,0.0352,0.8837,1.4596,0.0,1.6539,1.8034,0.0,0.0,0.0,0.0,0.0,0.0,0.0,0.0,0.0,0.0,0.0,0.0,0.0,0.0,0.0,0.0,0.0,0.0,0.0,0.0,0.0,0.0,2.4106,2.5237,2.528,2.5022,2.4702,2.0295,1.5928,1.4329,1.4413,1.4476,0.0,0.0,0.0,0.0,0.0,0.0,1.8936,1.802,1.77,1.8773,1.9013,1.9256,1.9799,1.9296,1.8035,1.6194,1.5548,1.4407,1.2566,1.1104,0.0,0.0,0.0,0.0,0.0,0.0,0.0,0.0,0.0,0.0,0.0,0.0,0.0,0.0,0.0,0.0,0.0,0.0,0.0,0.0,0.0,0.0,0.0,0.0,0.0,0.0,0.0,0.0,0.0,0.0,0.0,0.0,0.0,0.0,0.0,0.0,0.0,0.0,0.0,0.0,0.0,0.0,0.0,0.0,0.0,0.0,0.0,0.0,0.0,0.0,-1.2965,-1.3722,-1.4589,-1.3391,-0.1691,1.7306,1.0439,1.0269,1.4851,1.5461,0.0,0.0,0.0,0.0,0.0,0.0,0.0,0.0,0.0,0.0,0.0,0.0,0.0,0.0,0.0,0.0,0.0,0.0,0.0,0.0,0.0,0.0,2.0928,1.9689,1.9677,1.9432,1.7603,0.0,0.0,0.0,0.0,0.0,0.0,0.0,0.0,0.0,0.0,0.0,1.6581,1.6916,1.7591,1.8724,1.8506,1.8199,1.7819,1.728,1.5964,1.3639,1.2945,1.2073,0.0,0.0,0.0,0.0,0.0,0.0,0.0,0.0,0.0,0.0,0.0,0.0,0.0,0.0,0.0,0.0,0.0,0.0,0.0,0.0,0.0,0.0,0.0,0.0,0.0,0.0,0.0,0.0,0.0,0.0,0.0,0.0,0.0,0.0,0.0,0.0,0.0,0.0,0.0,0.0,0.0,0.0,0.0,0.0,0.0,0.0,0.0,0.0,0.0,0.0,0.0,0.0,0.0,0.0,0.0,0.0,0.0,0.0,0.597,0.5504,0.0,0.0,0.0,0.0,0.0,0.0,0.0,0.0,0.0,0.0,0.0,0.0,0.0,0.0,0.0,0.0,0.0,0.0,0.0,0.0,0.0,0.0,0.0,0.0,0.0,0.0,0.0,0.0,0.0,0.0,0.0,0.0,0.0,0.0,0.0,0.0,0.0,0.0,0.0,0.0,1.4979,1.4721,1.5002,1.6461,1.6083,1.5799,1.5844,1.5125,1.4107,1.2919,1.1796,0.0,0.0,0.0,0.0,0.0,0.0,0.0,0.0,0.0,0.0,0.0,0.0,0.0,0.0,0.0,0.0,0.0,0.0,0.0,0.0,0.0,0.0,0.0,0.0,0.0,0.0,0.0,0.0,0.0,0.0,0.0,0.0,0.0,0.0,0.0,0.0,0.0,0.0,0.0,0.0,0.0,0.0,0.0,0.0,0.0,0.0,0.0,0.0,0.0,0.0,0.0,0.0,0.0,0.0,0.0,0.0,0.0,0.0,0.0,-0.019,0.0187,0.0,0.0,0.0,0.0,0.0,0.0,0.0,0.0,0.0,0.0,0.0,0.0,0.0,0.0,0.0,0.0,0.0,0.0,0.0,0.0,0.0,0.0,0.0,0.0,0.0,0.0,0.0,0.0,0.0,0.0,0.0,0.0,0.0,0.0,0.0,0.0,0.0,0.0,0.0,0.0,1.3469,1.2871,1.287,1.4238,1.392,1.3798,1.4205,1.3385,1.2688,1.2331,1.1074,0.0,0.0,0.0,0.0,0.0,0.0,0.0,0.0,0.0,0.0,0.0,0.0,0.0,0.0,0.0,0.0,0.0,0.0,0.0,0.0,0.0,0.0,0.0,0.0,0.0,0.0,0.0,0.0,0.0,0.0,0.0,0.0,0.0,0.0,0.0,0.0,0.0,0.0,0.0,0.0,0.0,0.0,0.0,0.0,0.0,0.0,0.0,0.0,0.0,0.0,0.0,0.0,0.0,0.0,0.0,0.0,0.0,0.0,0.0,0.0,0.0,0.0,0.0,0.0,0.0,0.0,0.0,0.0,0.0,0.0,0.0,0.0,0.0,0.0,0.0,0.0,0.0,0.0,0.0,0.0,0.0,0.0,0.0,0.0,0.0,0.0,0.0,0.0,0.0,0.0,0.0,0.0,0.0,0.0,0.0,0.0,0.0,0.0,0.0,0.0,0.0,1.1675,1.2559,1.3274,1.3677,1.3673,1.3464,1.3069,1.2899,1.2217,1.0617,0.0,0.0,0.0,0.0,0.0,0.0,0.0,0.0,0.0,0.0,0.0,0.0,0.0,0.0,0.0,0.0,0.0,0.0,0.0,0.0,0.0,0.0,0.0,0.0,0.0,0.0,0.0,0.0,0.0,0.0,0.0,0.0,0.0,0.0,0.0,0.0,0.0,0.0,0.0,0.0,0.0,0.0,0.0,0.0,0.0,0.0,0.0,0.0,0.0,0.0,0.0,0.0,0.0,0.0,0.0,0.0,0.0,0.0,0.0,0.0,0.0,0.0,0.0,0.0,0.0,0.0,0.0,0.0,0.0,0.0,0.0,0.0,0.0,0.0,0.0,0.0,0.0,0.0,0.0,0.0,0.0,0.0,0.0,0.0,0.0,0.0,0.0,0.0,0.0,0.0,0.0,0.0,0.0,0.0,0.0,0.0,0.0,0.0,0.0,0.0,0.0,0.0,0.9895,1.0384,1.0868,1.136,1.1548,1.1445,1.1099,1.0712,1.0132,0.9321,0.0,0.0,0.0,0.0,0.0,0.0,0.0,0.0,0.0,0.0,0.0,0.0,0.0,0.0,0.0,0.0,0.0,0.0,0.0,0.0,0.0,0.0,0.0,0.0,0.0,0.0,0.0,0.0,0.0,0.0,0.0,0.0,0.0,0.0,0.0,0.0,0.0,0.0,0.0,0.0,0.0,0.0,0.0,0.0,0.0,0.0,0.0,0.0,0.0,0.0,0.0,0.0,0.0,0.0,0.0,0.0,0.0,0.0,0.0,0.0,0.0,0.0,0.0,0.0,0.0,0.0,0.0,0.0,0.0,0.0,0.0,0.0,0.0,0.0,0.0,0.0,0.0,0.0,0.0,0.0,0.0,0.0,0.0,0.0,0.0,0.0,0.0,0.0,0.0,0.0,0.0,0.0,0.0,0.0,0.0,0.0,0.0,0.0,0.0,0.0,0.0,0.0,0.8294,0.8675,0.9129,0.9587,1.0055,1.0048,0.9461,0.9105,0.8632,0.7966,0.0,0.0,0.0,0.0,0.0,0.0,0.0,0.0,0.0,0.0,0.0,0.0,0.0,0.0,0.0,0.0,0.0,0.0,0.0,0.0,0.0,0.0,0.0,0.0,0.0,0.0,0.0,0.0,0.0,0.0,0.0,0.0,0.0,0.0,0.0,0.0,0.0,0.0,0.0,0.0,0.0,0.0,0.0,0.0,0.0,0.0,0.0,0.0,0.0,0.0,0.0,0.0,0.0,0.0,0.0,0.0,0.0,0.0,0.0,0.0,0.0,0.0,0.0,0.0,0.0,0.0,0.0,0.0,0.0,0.0,0.0,0.0,0.0,0.0,0.0,0.0,0.0,0.0,0.0,0.0,0.0,0.0,0.0,0.0,0.0,0.0,0.0,0.0,0.0,0.0,0.0,0.0,0.0,0.0,0.0,0.0,0.0,0.0,0.0,0.0,0.0,0.0,0.6844,0.8071,0.8937,0.8937,0.9797,0.9727,0.8295,0.8661,0.8224,0.0,0.0,0.0,0.0,0.0,0.0,0.0,0.0,0.0,0.0,0.0,0.0,0.0,0.0,0.0,0.0,0.0,0.0,0.0,0.0,0.0,0.0,0.0,0.0,0.0,0.0,0.0,0.0,0.0,0.0,0.0,0.0,0.0,0.0,0.0,0.0,0.0,0.0,0.0,0.0,0.0,0.0,0.0,0.0,0.0,0.0,0.0,0.0,0.0,0.0,0.0,0.0,0.0,0.0,0.0,0.0,0.0,0.0,0.0,0.0,0.0,0.0,0.0,0.0,0.0,0.0,0.0,0.0,0.0,0.0,0.0,0.0,0.0,0.0,0.0,0.0,0.0,0.0,0.0,0.0,0.0,0.0,0.0,0.0,0.0,0.0,0.0,0.0,0.0,0.0,0.0,0.0,0.0,0.0,0.0,0.0,0.0,0.0,0.0,0.0,0.0,0.0,0.0,0.5991,0.6531,0.6948,0.6948,0.7643,0.7653,0.6783,0.6866,0.65,0.5433,0.0,0.0,0.0,0.0,0.0,0.0,0.0,0.0,0.0,0.0,0.0,0.0,0.0,0.0,0.0,0.0,0.0,0.0,0.0,0.0,0.0,0.0,0.0,0.0,0.0,0.0,0.0,0.0,0.0,0.0,0.0,0.0,0.0,0.0,0.0,0.0,0.0,0.0,0.0,0.0,0.0,0.0,0.0,0.0,0.0,0.0,0.0,0.0,0.0,0.0,0.0,0.0,0.0,0.0,0.0,0.0,0.0,0.0,0.0,0.0,0.0,0.0,0.0,0.0,0.0,0.0,0.0,0.0,0.0,0.0,0.0,0.0,0.0,0.0,0.0,0.0,0.0,0.0,0.0,0.0,0.0,0.0,0.0,0.0,0.0,0.0,0.0,0.0,0.0,0.0,0.0,0.0,0.0,0.0,0.0,0.0,0.0,0.0,0.0,0.0,0.0,0.0,0.0,0.5593,0.599,0.599,0.6599,0.6718,0.6118,0.599,0.565,0.4674,0.0,0.0,0.0,0.0,0.0,0.0,0.0,0.0,0.0,0.0,0.0,0.0,0.0,0.0,0.0,0.0,0.0,0.0,0.0,0.0,0.0,0.0,0.0,0.0,0.0,0.0,0.0,0.0,0.0,0.0,0.0,0.0,0.0,0.0,0.0,0.0,0.0,0.0,0.0,0.0,0.0,0.0,0.0,0.0,0.0,0.0,0.0,0.0,0.0,0.0,0.0,0.0,0.0,0.0,0.0,0.0,0.0,0.0,0.0,0.0,0.0,0.0,0.0,0.0,0.0,0.0,0.0,0.0,0.0,0.0,0.0,0.0,0.0,0.0,0.0,0.0,0.0,0.0,0.0,0.0,0.0,0.0,0.0,0.0,0.0,0.0,0.0,0.0,0.0,0.0,0.0,0.0,0.0,0.0,0.0,0.0,0.0,0.0,0.0,0.0,0.0,0.0,0.0,0.5102,0.5971,0.599,0.6566,0.6672,0.6111,0.5971,0.5489,0.4369,0.4297,0.0,0.0,0.0,0.0,0.0,0.0,0.0,0.0,0.0,0.0,0.0,0.0,0.0,0.0,0.0,0.0,0.0,0.0,0.0,0.0,0.0,0.0,0.0,0.0,0.0,0.0,0.0,0.0,0.0,0.0,0.0,0.0,0.0,0.0,0.0,0.0,0.0,0.0,0.0,0.0,0.0,0.0,0.0,0.0,0.0,0.0,0.0,0.0,0.0,0.0,0.0,0.0,0.0,0.0,0.0,0.0,0.0,0.0,0.0,0.0,0.0,0.0,0.0,0.0,0.0,0.0,0.0,0.0,0.0,0.0,0.0,0.0,0.0,0.0,0.0,0.0,0.0,0.0,0.0,0.0,0.0,0.0,0.0,0.0,0.0,0.0,0.0,0.0,0.0,0.0,0.0,0.0,0.0,0.0,0.0,0.0,0.0,0.0,0.0,0.0,0.0,0.0,0.4949,0.5835,0.6039,0.6191,0.6217,0.6078,0.5874,0.528,0.4356,0.4297,0.0,0.0,0.0,0.0,0.0,0.0,0.0,0.0,0.0,0.0,0.0,0.0,0.0,0.0,0.0,0.0,0.0,0.0,0.0,0.0,0.0,0.0,0.0,0.0,0.0,0.0,0.0,0.0,0.0,0.0,0.0,0.0,0.0,0.0,0.0,0.0,0.0,0.0,0.0,0.0,0.0,0.0,0.0,0.0,0.0,0.0,0.0,0.0,0.0,0.0,0.0,0.0,0.0,0.0,0.0,0.0,0.0,0.0,0.0,0.0,0.0,0.0,0.0,0.0,0.0,0.0,0.0,0.0,0.0,0.0,0.0,0.0,0.0,0.0,0.0,0.0,0.0,0.0,0.0,0.0,0.0,0.0,0.0,0.0,0.0,0.0,0.0,0.0,0.0,0.0,0.0,0.0,0.0,0.0,0.0,0.0,0.0,0.0,0.0,0.0,0.0,0.0,0.3275,0.3945,0.465,0.4787,0.4808,0.4708,0.4592,0.4287,0.3792,0.3477,0.0,0.0,0.0,0.0,0.0,0.0,0.0,0.0,0.0,0.0,0.0,0.0,0.0,0.0,0.0,0.0,0.0,0.0,0.0,0.0,0.0,0.0,0.0,0.0,0.0,0.0,0.0,0.0,0.0,0.0,0.0,0.0,0.0,0.0,0.0,0.0,0.0,0.0,0.0,0.0,0.0,0.0,0.0,0.0,0.0,0.0,0.0,0.0,0.0,0.0,0.0,0.0,0.0,0.0,0.0,0.0,0.0,0.0,0.0,0.0,0.0,0.0,0.0,0.0,0.0,0.0,0.0,0.0,0.0,0.0,0.0,0.0,0.0,0.0,0.0,0.0,0.0,0.0,0.0,0.0,0.0,0.0,0.0,0.0,0.0,0.0,0.0,0.0,0.0,0.0,0.0,0.0,0.0,0.0,0.0,0.0,0.0,0.0,0.0,0.0,0.0,0.0,0.0,0.1632,0.2743,0.3184,0.3293,0.3115,0.3086,0.3005,0.2963,0.0,0.0,0.0,0.0,0.0,0.0,0.0,0.0,0.0,0.0,0.0,0.0,0.0,0.0,0.0,0.0,0.0,0.0,0.0,0.0,0.0,0.0,0.0,0.0,0.0,0.0,0.0,0.0,0.0,0.0,0.0,0.0,0.0,0.0,0.0,0.0,0.0,0.0,0.0,0.0,0.0,0.0,0.0,0.0,0.0,0.0,0.0,0.0,0.0,0.0,0.0,0.0,0.0,0.0,0.0,0.0,0.0,0.0,0.0,0.0,0.0,0.0,0.0,0.0,0.0,0.0,0.0,0.0,0.0,0.0,0.0,0.0,0.0,0.0,0.0,0.0,0.0,0.0,0.0,0.0,0.0,0.0,0.0,0.0,0.0,0.0,0.0,0.0,0.0,0.0,0.0,0.0,0.0,0.0,0.0,0.0,0.0,0.0,0.0,0.0,0.0,0.0,0.0,0.0,0.0801,0.156,0.2254,0.2778,0.3097,0.2774,0.2505,0.2303,0.0,0.0,0.0,0.0,0.0,0.0,0.0,0.0,0.0,0.0,0.0,0.0,0.0,0.0]}],[{"header":{"parameterUnit":"kt","parameterCategory":2,"dx":1,"dy":1,"la1":29.285339999999998,"la2":30.599998999999997,"lo1":-89.70041500000002,"lo2":-87.6738589999976,"nx":112,"ny":82,"refTime":"2022-10-17T06:00:00:Z","depth":0,"parameterNumber":2,"parameterNumberName":"V-component_of_WINDS"},"data":[-0.579,-0.1243,0.1756,-0.2829,-0.0224,0.3206,0.1748,-0.1207,-0.244,0.1498,0.3906,0.4795,0.3281,0.0,0.0,0.0,0.0,0.0,0.0,0.3013,0.0,0.0,0.0,0.0,0.0,0.0,0.0,0.0,0.0,0.0,0.0,0.8492,0.8386,0.877,0.8783,0.8783,0.8783,0.8783,0.8783,0.8783,0.8783,0.8783,0.8783,0.8783,0.8783,0.8783,0.8783,0.8783,0.8783,0.8783,0.8783,0.8783,0.8783,0.8783,0.8777,0.9305,1.025,1.1628,1.2481,1.3437,1.4273,1.4805,1.5647,1.6485,1.6909,1.7114,1.7166,1.7361,1.727,1.7166,1.7361,1.727,1.7217,1.7715,1.8789,1.9762,1.9762,2.1819,2.3576,2.3061,2.409,2.5038,2.5038,2.5038,2.5038,2.5038,2.5038,2.5038,2.5038,2.5038,2.5038,2.5038,2.5038,2.5038,2.5038,2.5038,2.5038,2.5038,2.5038,2.5171,2.5456,2.5968,2.6538,2.7126,2.8189,2.8892,2.9177,2.9708,2.9955,2.9955,2.9955,2.9955,-1.5566,-1.1606,-0.8303,-1.0173,-0.7285,-0.4178,-0.5087,-0.7288,-0.7872,-0.3591,-0.0052,0.2052,0.129,0.0,0.0,0.0,0.0,0.0,0.0,0.0,0.0,0.0,0.0,0.0,0.0,0.0,0.0,0.0,0.813,0.0,0.9221,0.8752,0.8485,0.8777,0.8783,0.8783,0.8783,0.8783,0.8783,0.8783,0.8783,0.8783,0.8783,0.8783,0.8783,0.8783,0.8783,0.8783,0.8783,0.8783,0.8783,0.8783,0.8783,0.8783,0.8783,0.8783,0.9305,1.0144,1.1108,1.2376,1.3636,1.469,1.5647,1.6485,1.6909,1.7114,1.7114,1.7114,1.7114,1.7114,1.7114,1.7114,1.7217,1.7613,1.8385,1.9177,1.9563,2.1411,2.2965,2.2965,2.369,2.4527,2.5038,2.5038,2.5038,2.5038,2.5038,2.5038,2.5038,2.5038,2.5038,2.5038,2.5038,2.5038,2.5038,2.5038,2.5038,2.5038,2.5038,2.5038,2.5038,2.557,2.5968,2.6253,2.7335,2.817,2.874,2.929,2.9689,2.9955,2.9955,2.9955,-2.0907,-1.8554,-1.7092,-1.6762,-1.575,-1.4486,-1.2919,-0.9605,-0.6813,-0.6789,-0.505,-0.2812,-0.0621,0.0,0.0,0.0,0.0,0.0,0.0,0.0,0.0,0.0,0.0,0.0,0.0,0.5474,0.697,0.0,0.7971,0.8184,0.8171,0.8531,0.8783,0.8783,0.8783,0.8783,0.8783,0.8783,0.8783,0.8783,0.8783,0.8783,0.8783,0.8783,0.8783,0.8783,0.8783,0.8783,0.8783,0.8783,0.8783,0.8783,0.8783,0.8783,0.8783,0.8783,0.8783,0.8783,0.8783,0.9618,1.1091,1.3949,1.4909,1.522,1.6588,1.7025,1.7114,1.7114,1.7114,1.7114,1.7114,1.7114,1.7408,1.8688,1.8976,1.9363,2.064,2.1997,2.2965,2.2965,2.2965,2.3481,2.483,2.5038,2.5038,2.5038,2.5038,2.5038,2.5038,2.5038,2.5038,2.5038,2.5038,2.5038,2.5038,2.5038,2.5038,2.5038,2.5038,2.5038,2.5038,2.5038,2.5418,2.6196,2.6234,2.7051,2.8664,2.8721,2.9158,2.9917,2.9917,2.9917,-2.1906,-2.0041,-1.8366,-1.5925,-1.4283,-1.2808,-1.0948,-0.9028,-0.7503,-0.6915,-0.5034,0.0,0.0,0.0,0.0,0.0,0.0,-0.294,0.0,0.0562,0.0,0.0,0.0,0.0,0.0,0.1515,0.3756,0.8143,0.8526,0.8593,0.857,0.8643,0.8783,0.8783,0.8783,0.8783,0.8783,0.8783,0.8783,0.8783,0.8783,0.8783,0.8783,0.8783,0.8783,0.8783,0.8783,0.8783,0.8783,0.8783,0.8783,0.8783,0.8783,0.879,0.8696,0.8696,0.8797,0.8783,0.8783,0.8991,0.9519,1.1302,1.3311,1.5013,1.5428,1.6279,1.7114,1.7114,1.7114,1.7114,1.7114,1.7114,1.7217,1.7511,1.8399,1.9177,1.9463,2.1313,2.2965,2.2965,2.3786,2.4622,2.5038,2.4204,2.3881,2.4925,2.5038,2.5038,2.5038,2.5038,2.5038,2.5038,2.5038,2.5038,2.5038,2.5038,2.5038,2.5038,2.5038,2.5038,2.5038,2.5038,2.5152,2.5361,2.595,2.6481,2.6937,2.8152,2.8854,2.9063,2.9063,2.9063,-2.0641,-1.9011,-1.7631,-1.5414,-1.3912,-1.2595,-1.1176,-0.9978,-0.9029,-0.8522,0.0,0.0,0.0,0.0,0.0,0.0,-0.3911,-0.4353,-0.1837,-0.2291,-0.2956,-0.2954,0.0,0.0,0.0,0.0,0.2475,0.8307,0.8752,0.8776,0.8702,0.8696,0.879,0.8783,0.8783,0.8783,0.8783,0.8783,0.8783,0.8783,0.8783,0.8783,0.8783,0.8783,0.8783,0.8783,0.8783,0.8783,0.8783,0.8783,0.879,0.8683,0.7804,0.7481,0.7601,0.848,0.8702,0.8797,0.8783,0.8783,0.8884,0.9618,1.1417,1.3416,1.4585,1.5543,1.6382,1.6909,1.7114,1.7114,1.7114,1.7114,1.7114,1.7114,1.7715,1.8399,1.8976,2.0625,2.2289,2.2869,2.3576,2.4413,2.4944,2.4413,2.4109,2.4925,2.5038,2.5038,2.5038,2.5038,2.5038,2.5038,2.5038,2.5038,2.5038,2.5038,2.5038,2.5038,2.5038,2.5038,2.5038,2.5038,2.5038,2.5038,2.5513,2.5912,2.6253,2.7221,2.7696,2.7696,2.8038,2.8398,-1.8672,-1.6984,-1.6075,-1.5196,-1.4131,-1.3202,-1.2559,0.0,-1.0999,-1.0885,0.0,-0.8594,-1.0203,0.0,0.0,-0.5848,-0.5341,-0.469,-0.3672,-0.5541,-0.7018,-0.7155,-0.3568,-0.0758,-0.0098,0.0,0.2177,0.7318,0.8403,0.8755,0.8715,0.8715,0.8702,0.879,0.879,0.879,0.879,0.879,0.879,0.879,0.8783,0.879,0.879,0.879,0.879,0.8783,0.879,0.8783,0.8783,0.8783,0.8797,0.8588,0.683,0.6174,0.6394,0.8151,0.8709,0.8709,0.8797,0.879,0.8783,0.8783,0.9519,1.0985,1.3625,1.469,1.522,1.6485,1.7012,1.7114,1.7114,1.7114,1.7114,1.7114,1.7114,1.7408,1.8789,1.9962,2.1215,2.2676,2.2965,2.3367,2.483,2.5038,2.5038,2.5038,2.5038,2.5038,2.5038,2.5038,2.5038,2.5038,2.5038,2.5038,2.5038,2.5038,2.5038,2.5038,2.5038,2.5038,2.5038,2.5038,2.5038,2.5038,2.5038,2.5399,2.612,2.6215,2.6215,2.6139,2.6956,2.7734,-2.0632,-1.8706,-1.6972,-1.5241,-1.3946,-1.2963,0.0,0.0,0.0,-1.1818,-1.084,-1.0297,-1.1378,-0.9887,-0.8636,-0.8698,-0.5992,-0.3764,-0.3544,-0.548,-0.7331,-0.8292,-0.76,-0.5177,-0.049,0.0,0.0419,0.1615,0.6094,0.8768,0.8762,0.8742,0.8729,0.8729,0.8729,0.8729,0.8729,0.8709,0.8709,0.8729,0.8709,0.8709,0.8729,0.8729,0.8715,0.8702,0.8722,0.8709,0.8783,0.8696,0.8696,0.8683,0.8366,0.8176,0.8201,0.8627,0.8735,0.8735,0.8729,0.8715,0.8702,0.8702,0.8897,0.9412,1.0985,1.3102,1.5013,1.5324,1.6175,1.7114,1.7114,1.7114,1.7114,1.7114,1.7114,1.7408,1.8789,1.9277,2.0145,2.2482,2.2965,2.3367,2.483,2.5038,2.5038,2.5038,2.5038,2.5038,2.5038,2.5038,2.5038,2.5038,2.5038,2.5038,2.5038,2.5038,2.5038,2.5038,2.5038,2.5038,2.5038,2.5038,2.5038,2.5038,2.5038,2.5114,2.5266,2.5931,2.5912,2.5304,2.612,2.6576,-2.0032,-1.8484,-1.7251,-1.6198,-1.5585,0.0,0.0,-1.4876,-1.5279,-1.4858,-1.4128,-1.339,-1.2932,-1.1662,-1.0606,-1.0227,-0.7885,-0.6176,-0.6674,-0.7958,-0.8806,-0.8475,-0.8638,-0.7555,-0.4655,-0.1683,0.0,0.0,0.2724,0.5677,0.8551,0.8762,0.808,0.6526,0.6526,0.6526,0.6526,0.6516,0.7288,0.8742,0.718,0.6516,0.6526,0.6526,0.6521,0.6624,0.8068,0.7948,0.6609,0.8151,0.8709,0.8709,0.8722,0.8742,0.8768,0.8748,0.8748,0.8532,0.7077,0.7504,0.8709,0.8709,0.8797,0.8884,0.9512,1.1196,1.3102,1.4585,1.5439,1.6175,1.6909,1.7114,1.7114,1.7114,1.7114,1.7319,1.7905,1.8587,1.9663,2.1607,2.1997,2.2596,2.4735,2.5038,2.5038,2.5038,2.5038,2.5038,2.5038,2.5038,2.5038,2.5038,2.5038,2.5038,2.5038,2.5038,2.5038,2.5038,2.5038,2.5038,2.5038,2.5038,2.5038,2.5038,2.5038,2.5038,2.5038,2.5456,2.5437,2.5038,2.5456,2.5874,-1.8941,-1.8118,-1.7805,-1.7569,-1.7915,0.0,-1.7981,-1.8806,-1.9474,-1.885,-1.8033,-1.6938,-1.5057,-1.3639,-1.2551,-1.1677,-1.0295,-0.961,-1.0612,-1.0714,-1.0115,-0.8443,-0.86,-0.8498,-0.7966,-0.3594,-0.1089,-0.1635,-0.1744,0.0871,0.6778,0.7001,0.5886,0.3472,0.3472,0.3472,0.3472,0.4561,0.5764,0.698,0.4561,0.3469,0.3472,0.3472,0.4016,0.5215,0.5872,0.5435,0.4554,0.7504,0.7402,0.5543,0.7191,0.8201,0.866,0.7419,0.7755,0.8213,0.4673,0.5755,0.8722,0.8715,0.8696,0.879,0.8783,0.9519,1.0879,1.3416,1.4585,1.522,1.6382,1.6909,1.7114,1.7114,1.7114,1.7114,1.7114,1.7905,1.9076,2.0344,2.0822,2.1819,2.4222,2.4925,2.5038,2.5038,2.5038,2.5038,2.5038,2.5038,2.5038,2.5038,2.5038,2.5038,2.5038,2.5038,2.5038,2.5038,2.5038,2.5038,2.5038,2.5038,2.5038,2.5038,2.5038,2.5038,2.5038,2.5038,2.5038,2.5038,2.5038,2.5399,-1.9103,-1.9327,0.0,-1.9127,-2.0081,0.0,-2.265,-2.3038,-2.3153,-2.3046,-2.1874,-2.0301,-1.8468,-1.6237,-1.4509,-1.4063,-1.2699,-1.2119,-1.3403,-1.1659,-0.9938,-0.8837,-0.877,-0.7691,-0.499,-0.423,-0.4893,-0.755,-0.7773,-0.5234,0.0653,0.0981,0.0872,0.0436,0.0436,0.0436,0.0436,0.5673,0.5786,0.098,0.0652,0.0435,0.0436,0.0436,0.3268,0.7875,0.0435,-0.0109,0.4554,0.7538,0.2605,-0.5994,0.1732,0.6423,0.8104,0.2932,0.4243,0.7996,0.2395,0.414,0.8762,0.8742,0.8722,0.8702,0.879,0.8884,0.9305,1.0773,1.2997,1.5013,1.5117,1.6163,1.7114,1.7114,1.7114,1.7114,1.7114,1.7217,1.7715,1.8976,2.0244,2.1509,2.2886,2.4204,2.5038,2.5038,2.5038,2.5038,2.5038,2.5038,2.5038,2.5038,2.5038,2.5038,2.5038,2.5038,2.5038,2.5038,2.5038,2.5038,2.5038,2.5038,2.5038,2.5038,2.5038,2.5038,2.5038,2.5038,2.5038,2.5038,2.5038,2.5076,-2.0646,-2.1072,-2.1403,-2.1923,0.0,0.0,-2.4572,-2.583,-2.6949,-2.6592,-2.5936,-2.4908,-2.3579,-2.1251,-1.9256,-1.8495,-1.7783,-1.7199,-1.6912,-1.4567,-1.244,-1.1268,-0.9747,-0.8265,-0.6953,-0.6851,-0.7413,-0.864,-0.7088,-0.511,-0.2607,-0.4137,-0.513,-0.513,-0.1744,0.0,0.0,0.2397,0.2397,0.0,0.0,0.0,0.0,0.0,-0.0543,-0.152,-0.3477,-0.2928,-0.0757,-0.1192,-0.4348,-0.8098,-0.0974,0.2495,0.3814,0.4792,0.4467,0.327,0.0872,0.3817,0.8775,0.8762,0.8735,0.8702,0.8696,0.879,0.8884,0.9412,1.0993,1.2892,1.4585,1.606,1.7114,1.7114,1.7114,1.7114,1.7114,1.7114,1.7511,1.8789,2.0145,2.1411,2.2676,2.4109,2.5038,2.5038,2.5038,2.5038,2.5038,2.5038,2.5038,2.5038,2.5038,2.5038,2.5038,2.5038,2.5038,2.5038,2.5038,2.5038,2.5038,2.5038,2.5038,2.5038,2.5038,2.5038,2.5038,2.5038,2.5038,2.5038,2.5038,2.5038,-2.1835,0.0,0.0,0.0,0.0,0.0,-2.7904,-2.9362,-3.0594,-3.047,-2.9885,-2.9023,-2.7874,-2.532,-2.3425,-2.3707,-2.2806,-2.1541,-2.0157,-1.7285,-1.4784,-1.3022,-1.0773,-0.9119,-0.8803,-0.8715,-0.8722,-0.8729,-0.6738,-0.5535,-0.5539,-0.7533,-0.8321,-0.7538,-0.3374,-0.1196,-0.1196,-0.1196,-0.1196,-0.1196,-0.2069,-0.2397,-0.2397,-0.1848,-0.4243,-0.866,-0.6423,-0.5535,-0.5639,-0.784,-0.8742,-0.8309,-0.4125,-0.141,0.0544,0.4796,0.3597,0.0,0.0,0.2724,0.6556,0.8219,0.8748,0.8722,0.8709,0.8696,0.879,0.8783,0.9412,1.0667,1.3102,1.5105,1.6588,1.7012,1.7114,1.7114,1.7114,1.7114,1.7422,1.8297,1.9563,2.0921,2.2192,2.3594,2.4622,2.5038,2.5038,2.5038,2.5038,2.5038,2.5038,2.5038,2.5038,2.5038,2.5038,2.5038,2.5038,2.5038,2.5038,2.5038,2.5038,2.5038,2.5038,2.5038,2.5038,2.5038,2.5038,2.5038,2.5038,2.5038,2.5038,2.5038,0.0,0.0,0.0,-2.8657,-2.9608,-3.0989,-3.4016,-3.4242,-3.4113,-3.4993,-3.3647,-3.1873,-3.0492,-2.7372,-2.6062,-2.9508,-2.7054,-2.4284,-2.2797,-1.927,-1.5835,-1.3126,-1.1487,-1.0144,-0.8884,-0.8783,-0.879,-0.8709,-0.8702,-0.8608,-0.8627,-0.8742,-0.7407,-0.4446,-0.4227,-0.4122,-0.4122,-0.4122,-0.4122,-0.423,-0.7094,-0.8443,-0.8436,-0.6551,-0.6773,-0.8775,-0.864,-0.8608,-0.8676,-0.8702,-0.8709,-0.8715,-0.8532,-0.5002,0.0,0.0218,0.0109,0.0,0.0,0.0109,0.1199,0.6887,0.8775,0.8762,0.8722,0.8709,0.8702,0.879,0.8783,0.9091,1.0455,1.2892,1.5428,1.6806,1.7114,1.7114,1.7114,1.7114,1.7127,1.7114,1.8196,1.9563,2.0822,2.2094,2.3481,2.483,2.5038,2.5038,2.5038,2.5038,2.5038,2.5038,2.5038,2.5038,2.5038,2.5038,2.5038,2.5038,2.5038,2.5038,2.5038,2.5038,2.5038,2.5038,2.5038,2.5038,2.5038,2.5038,2.5038,2.5038,2.5038,2.5038,-2.3643,-2.6348,-2.9187,-3.0616,-3.2606,-3.4314,-3.4893,-3.6282,-3.7494,-3.7469,-3.7213,-3.6477,-3.4789,-3.3653,-3.2749,-3.2342,-2.9838,-2.7429,-2.5663,-2.2136,-1.9299,-1.8361,-1.6247,-1.4625,-1.4213,-1.25,-1.1479,-1.1496,-0.9732,-0.8797,-0.8696,-0.8696,-0.8259,-0.7277,-0.7277,-0.7283,-0.7294,-0.7294,-0.7294,-0.7299,-0.8303,-0.7749,-0.5764,-0.5864,-0.6851,-0.8729,-0.8709,-0.8797,-0.8783,-0.879,-0.8696,-0.8709,-0.8742,-0.7533,-0.5335,-0.1416,0.0,0.0,0.0,0.0,0.0327,0.2288,0.5569,0.8321,0.6413,0.7169,0.8702,0.879,0.8783,0.9098,1.0348,1.1408,1.2777,1.5117,1.6382,1.7114,1.7114,1.7114,1.7114,1.7114,1.8196,1.9463,2.0723,2.2094,2.3385,2.483,2.5038,2.5038,2.5038,2.5038,2.5038,2.5038,2.5038,2.5038,2.5038,2.5038,2.5038,2.5038,2.5038,2.5038,2.5038,2.5038,2.5038,2.5038,2.5038,2.5038,2.5038,2.5038,2.5038,2.5038,2.5038,2.5038,-2.5977,-2.8585,-3.1146,-3.3285,-3.5051,-3.6436,-3.7029,-3.8484,-3.9807,-4.0283,-4.013,-3.9559,-3.8507,-3.8422,-3.7582,-3.4599,-3.2352,-3.0068,-2.779,-2.4566,-2.2056,-2.107,-1.8972,-1.7459,-1.6942,-1.5342,-1.4327,-1.4327,-1.2196,-1.0862,-1.0862,-1.0463,-0.9953,-0.9433,-0.9433,-0.9226,-0.8715,-0.8715,-0.8715,-0.8715,-0.8722,-0.7726,-0.5859,-0.6614,-0.7601,-0.8709,-0.879,-0.8783,-0.8783,-0.8783,-0.879,-0.8696,-0.8722,-0.8735,-0.8194,-0.3371,-0.2176,-0.3159,-0.3159,-0.1744,0.0,0.0,0.2506,0.5673,0.5773,0.7186,0.8715,0.8797,0.879,0.8991,0.9832,1.0348,1.1196,1.2997,1.4897,1.6485,1.7012,1.7114,1.7114,1.7114,1.7803,1.8789,2.0061,2.1411,2.2693,2.4109,2.4716,2.5038,2.5038,2.5038,2.5038,2.5038,2.5038,2.5038,2.5038,2.5038,2.5038,2.5038,2.5038,2.5038,2.5038,2.5038,2.5038,2.5038,2.5038,2.5038,2.5038,2.5038,2.5038,2.5038,2.5038,2.5038,-2.8744,-3.1007,-3.3169,-3.6485,-3.7059,-3.7591,-4.0406,-4.0835,-4.1272,-4.3406,-4.2451,-4.1388,-4.162,-4.1662,-4.042,-3.6635,-3.4674,-3.2473,-2.9276,-2.6661,-2.419,-2.1556,-1.9992,-1.8703,-1.7459,-1.7245,-1.7144,-1.7144,-1.5775,-1.4876,-1.4784,-1.3594,-1.2261,-1.0879,-1.0773,-1.025,-0.8991,-0.8884,-0.8783,-0.8783,-0.8696,-0.8702,-0.8702,-0.8702,-0.881,-0.881,-0.879,-0.8783,-0.8783,-0.8783,-0.8783,-0.8783,-0.8696,-0.8709,-0.8379,-0.5535,-0.6315,-0.8775,-0.8775,-0.513,-0.0436,-0.0109,0.0,0.109,0.7001,0.8762,0.8735,0.8715,0.8797,0.8783,0.8783,0.9618,1.0561,1.0667,1.2777,1.522,1.6703,1.7012,1.7114,1.7114,1.7114,1.7511,1.8789,2.0145,2.1411,2.2772,2.4204,2.5038,2.5038,2.5038,2.5038,2.5038,2.5038,2.5038,2.5038,2.5038,2.5038,2.5038,2.5038,2.5038,2.5038,2.5038,2.5038,2.5038,2.5038,2.5038,2.5038,2.5038,2.5038,2.5038,2.5038,2.5038,-2.8063,-3.1731,-3.4639,-3.6655,-3.8876,-4.077,-4.1439,-4.2915,-4.4371,-4.4916,-4.4877,-4.4906,-4.5285,-4.5079,-4.3776,-4.0508,-3.8877,-3.6613,-3.2663,-2.9876,-2.7585,-2.563,-2.4207,-2.3385,-2.3061,-2.12,-1.9961,-1.9961,-1.776,-1.5865,-1.4784,-1.4486,-1.3688,-1.2376,-1.227,-1.2165,-1.1752,-1.0781,-0.9725,-0.8783,-0.879,-0.879,-0.879,-0.879,-0.9312,-1.0151,-0.9205,-0.8783,-0.8783,-0.8783,-0.8783,-0.8783,-0.8696,-0.8709,-0.8709,-0.7846,-0.8074,-0.8748,-0.8768,-0.7773,-0.5786,-0.1416,0.0,0.109,0.7001,0.8768,0.8755,0.8715,0.8702,0.8696,0.8783,0.8991,0.9519,1.0455,1.205,1.3751,1.522,1.6382,1.7114,1.7114,1.7114,1.7511,1.8789,2.0145,2.1411,2.2772,2.4204,2.5038,2.5038,2.5038,2.5038,2.5038,2.5038,2.5038,2.5038,2.5038,2.5038,2.5038,2.5038,2.5038,2.5038,2.5038,2.5038,2.5038,2.5038,2.5038,2.5038,2.5038,2.5038,2.5038,2.5038,2.5038,-2.6648,-3.0979,-3.5018,-3.7655,-4.0217,-4.2226,-4.2755,-4.4504,-4.613,-4.6608,-4.6882,-4.7023,-4.713,-4.6725,-4.5331,-4.2307,-4.1031,-3.9003,-3.502,-3.2037,-2.9914,-2.8943,-2.6611,-2.5302,-2.5826,-2.4017,-2.2834,-2.2834,-2.0793,-1.92,-1.8403,-1.725,-1.6053,-1.4645,-1.4043,-1.3437,-1.2807,-1.205,-1.1311,-1.0585,-0.9938,-0.9938,-1.0478,-0.9312,-0.9412,-1.0667,-0.9305,-0.8783,-0.8783,-0.8783,-0.8783,-0.8783,-0.8797,-0.8696,-0.8696,-0.8709,-0.8715,-0.8729,-0.8742,-0.8755,-0.8219,-0.4908,-0.207,0.0653,0.3926,0.667,0.8436,0.718,0.7714,0.8702,0.879,0.8783,0.8884,0.9618,1.1425,1.3017,1.3855,1.5647,1.7114,1.7114,1.7114,1.7319,1.8095,1.9277,2.0542,2.19,2.3289,2.4394,2.5038,2.5038,2.5038,2.5038,2.5038,2.5038,2.5038,2.5038,2.5038,2.5038,2.5038,2.5038,2.5038,2.5038,2.5038,2.5038,2.5038,2.5038,2.5038,2.5038,2.5038,2.5038,2.5038,2.5038,-2.537,-2.9644,-3.4561,-3.8637,-4.1127,-4.2868,-4.4094,-4.5751,-4.725,-4.8149,-4.8331,-4.8233,-4.7923,-4.7276,-4.5917,-4.3259,-4.2318,-4.069,-3.7217,-3.3936,-3.187,-3.1571,-2.7977,-2.5919,-2.6967,-2.6178,-2.5584,-2.5584,-2.4433,-2.3618,-2.3427,-2.1003,-1.8918,-1.7466,-1.6011,-1.469,-1.3437,-1.3227,-1.3122,-1.3122,-1.1619,-1.1628,-1.2701,-1.0372,-0.9938,-1.0879,-0.9626,-0.8884,-0.8783,-0.8783,-0.8783,-0.8783,-0.8783,-0.8783,-0.8783,-0.8783,-0.8797,-0.8702,-0.8709,-0.8735,-0.8768,-0.8775,-0.48,0.0,0.0,0.3597,0.7104,0.5102,0.6512,0.8709,0.879,0.8783,0.8783,0.8783,1.0691,1.2586,1.2807,1.4909,1.6909,1.7025,1.7114,1.7114,1.7319,1.85,1.9663,2.0625,2.1997,2.3385,2.4622,2.4925,2.5038,2.5038,2.5038,2.5038,2.5038,2.5038,2.5038,2.5038,2.5038,2.5038,2.5038,2.5038,2.5038,2.5038,2.5038,2.5038,2.5038,2.5038,2.5038,2.5038,2.5038,2.5038,-2.6295,-2.9697,-3.3383,-3.753,-4.1499,-4.4489,-4.4752,-4.6853,-4.8781,-4.8965,-4.8904,-4.8691,-4.8228,-4.7759,-4.7026,-4.5634,-4.4892,-4.3527,-4.084,-3.7392,-3.462,-3.3113,-2.9983,-2.8055,-2.8213,-2.8055,-2.7965,-2.7965,-2.7743,-2.7158,-2.6071,-2.3528,-2.1492,-2.0136,-1.7952,-1.6588,-1.6382,-1.522,-1.4585,-1.4585,-1.3112,-1.2586,-1.2807,-1.2385,-1.228,-1.2376,-1.0993,-0.9725,-0.8783,-0.8783,-0.8783,-0.8783,-0.8783,-0.8783,-0.8783,-0.8783,-0.8783,-0.879,-0.8702,-0.8722,-0.8748,-0.8768,-0.48,0.0,0.0,0.0653,0.2067,0.4767,0.7061,0.8722,0.879,0.8783,0.8783,0.8783,0.9938,1.1417,1.2586,1.4169,1.5647,1.6909,1.7114,1.7408,1.8486,1.9762,2.0344,1.9563,2.1411,2.3061,2.3271,2.4318,2.5038,2.5038,2.5038,2.5038,2.5038,2.5038,2.5038,2.5038,2.5038,2.5038,2.5038,2.5038,2.5038,2.5038,2.5038,2.5038,2.5038,2.5038,2.5038,2.5038,2.5038,2.5038,-2.5982,-2.9279,-3.2246,-3.4225,-3.8782,-4.3137,-4.4576,-4.6649,-4.8269,-4.8269,-4.8852,-4.9273,-4.8796,-4.8266,-4.7594,-4.6635,-4.5678,-4.4552,-4.3076,-3.9655,-3.693,-3.5728,-3.2261,-2.9812,-2.9496,-2.8925,-2.857,-2.857,-2.857,-2.8281,-2.77,-2.5239,-2.3546,-2.2956,-2.0396,-1.8789,-1.8095,-1.7457,-1.7151,-1.7049,-1.5726,-1.499,-1.4944,-1.5781,-1.5289,-1.3855,-1.1619,-1.0348,-0.9725,-0.8991,-0.8783,-0.8783,-0.8783,-0.8783,-0.8783,-0.8783,-0.8783,-0.8783,-0.8797,-0.8702,-0.8506,-0.6975,-0.5556,-0.4032,-0.0979,0.2176,0.4575,0.4882,0.684,0.8715,0.879,0.8783,0.8783,0.8783,0.9725,1.1091,1.2481,1.396,1.5428,1.6806,1.7114,1.7319,1.7905,1.9076,1.9962,2.0046,2.1705,2.2965,2.2965,2.4204,2.5038,2.5038,2.5038,2.5038,2.5038,2.5038,2.5038,2.5038,2.5038,2.5038,2.5038,2.5038,2.5038,2.5038,2.5038,2.5038,2.5038,2.5038,2.5038,2.5038,2.5038,2.5038,-2.5061,-2.8275,-3.0936,-3.1492,-3.5645,-4.0363,-4.3558,-4.5591,-4.6913,-4.7301,-4.8628,-4.9596,-4.9229,-4.869,-4.8078,-4.7228,-4.6158,-4.5177,-4.4427,-4.142,-3.9023,-3.8373,-3.4653,-3.1906,-3.1371,-3.0104,-2.9366,-2.9366,-2.9366,-2.9366,-2.9366,-2.6773,-2.5278,-2.5278,-2.2448,-2.0542,-1.9463,-1.9463,-1.9463,-1.9478,-1.8399,-1.7864,-1.7783,-1.8645,-1.7864,-1.5714,-1.2882,-1.1294,-1.0667,-0.9618,-0.8991,-0.8783,-0.8783,-0.8783,-0.8783,-0.8783,-0.8783,-0.8783,-0.8783,-0.8797,-0.8373,-0.5972,-0.6866,-0.7441,-0.0327,0.4249,0.6655,0.5539,0.6948,0.8702,0.879,0.8783,0.8783,0.8783,0.9725,1.1091,1.2481,1.396,1.5428,1.6806,1.7114,1.7217,1.7511,1.8385,1.9463,2.0822,2.2094,2.2965,2.2965,2.4204,2.5038,2.5038,2.5038,2.5038,2.5038,2.5038,2.5038,2.5038,2.5038,2.5038,2.5038,2.5038,2.5038,2.5038,2.5038,2.5038,2.5038,2.5038,2.5038,2.5038,2.5038,2.5038,-2.3637,-2.627,-2.9062,-3.1587,-3.3767,-3.6573,-4.1178,-4.3548,-4.5231,-4.6918,-4.8501,-4.9477,-4.908,-4.8847,-4.8517,-4.785,-4.7017,-4.6168,-4.5132,-4.2805,-4.0907,-4.0275,-3.6922,-3.4647,-3.4596,-3.2849,-3.1756,-3.1756,-3.1756,-3.1756,-3.1756,-2.8351,-2.6438,-2.6438,-2.2895,-2.0921,-2.0838,-2.0838,-2.0838,-2.0838,-2.0739,-2.0625,-2.0609,-1.9563,-1.8875,-1.8573,-1.5817,-1.3102,-1.0667,-1.0561,-0.9832,-0.8783,-0.8783,-0.8783,-0.8783,-0.8783,-0.8783,-0.8783,-0.8783,-0.8797,-0.8709,-0.8398,-0.8532,-0.666,0.4575,0.4572,0.1844,0.6953,0.8487,0.8702,0.879,0.8783,0.8783,0.8783,0.9725,1.1091,1.2481,1.396,1.5428,1.6806,1.7114,1.7511,1.8688,1.8976,1.9463,2.0822,2.2094,2.2965,2.2965,2.4204,2.5038,2.5038,2.5038,2.5038,2.5038,2.5038,2.5038,2.5038,2.5038,2.5038,2.5038,2.5038,2.5038,2.5038,2.5038,2.5038,2.5038,2.5038,2.5038,2.5038,2.5038,2.5038,-2.3387,-2.6007,-2.8649,-3.0614,-3.2839,-3.5355,-3.8283,-3.9874,-4.1686,-4.4914,-4.7035,-4.8508,-4.9187,-4.916,-4.8891,-4.8482,-4.7681,-4.6951,-4.6445,-4.4639,-4.2883,-4.155,-3.908,-3.7136,-3.606,-3.4729,-3.3732,-3.3031,-3.3031,-3.2729,-3.2115,-2.9995,-2.8837,-2.8837,-2.6019,-2.417,-2.3314,-2.2562,-2.2192,-2.2192,-2.1411,-2.1819,-2.342,-2.1232,-2.0244,-2.0046,-1.7369,-1.5105,-1.3102,-1.1408,-1.0348,-0.9832,-0.9098,-0.8783,-0.8783,-0.8783,-0.8783,-0.8783,-0.8783,-0.879,-0.8797,-0.8715,-0.7516,-0.5548,-0.2715,0.0217,0.3469,0.7624,0.8709,0.879,0.8783,0.8783,0.8783,0.8783,0.9725,1.0879,1.1408,1.3322,1.5117,1.575,1.6485,1.7319,1.7803,1.8486,1.9463,2.0822,2.1411,2.2094,2.2869,2.4204,2.5038,2.5038,2.5038,2.5038,2.5038,2.5038,2.5038,2.5038,2.5038,2.5038,2.5038,2.5038,2.5038,2.5038,2.5038,2.5038,2.5038,2.5038,2.5038,2.5038,2.5038,2.5038,-2.2585,-2.4991,-2.7423,-2.9415,-3.1768,-3.4045,-3.6004,-3.6928,-3.852,-4.2634,-4.5056,-4.6926,-4.8523,-4.8676,-4.8654,-4.8837,-4.8286,-4.7729,-4.7373,-4.5987,-4.4456,-4.2975,-4.0903,-3.9019,-3.7476,-3.6263,-3.5141,-3.4183,-3.3812,-3.333,-3.2564,-3.1093,-3.03,-3.03,-2.837,-2.6926,-2.5947,-2.511,-2.4472,-2.4112,-2.314,-2.375,-2.5452,-2.279,-2.1313,-2.0921,-1.8688,-1.6883,-1.5428,-1.2987,-1.1514,-1.0561,-0.9725,-0.9098,-0.8783,-0.8783,-0.8783,-0.8783,-0.8783,-0.8783,-0.8783,-0.8702,-0.7277,-0.5976,-0.8092,-0.3255,0.3791,0.7629,0.8715,0.879,0.8783,0.8783,0.8783,0.8783,1.0045,1.1302,1.1302,1.3625,1.5647,1.5647,1.6382,1.7114,1.7114,1.8196,1.9463,2.0822,2.1313,2.2094,2.3385,2.4413,2.5038,2.5038,2.5038,2.5038,2.5038,2.5038,2.5038,2.5038,2.5038,2.5038,2.5038,2.5038,2.5038,2.5038,2.5038,2.5038,2.5038,2.5038,2.5038,2.5038,2.5038,2.5038,-2.0831,-2.252,-2.478,-2.8115,-3.0258,-3.2197,-3.4633,-3.5224,-3.6334,-4.0242,-4.2698,-4.4732,-4.6718,-4.7159,-4.7618,-4.8778,-4.8867,-4.8463,-4.7564,-4.6424,-4.5425,-4.4766,-4.2176,-4.0086,-3.9342,-3.7617,-3.6115,-3.5245,-3.4183,-3.3652,-3.3652,-3.1552,-3.03,-3.03,-2.919,-2.8592,-2.857,-2.857,-2.7944,-2.6763,-2.6763,-2.6763,-2.6763,-2.4112,-2.2192,-2.0921,-1.9563,-1.8297,-1.7012,-1.5531,-1.3207,-1.0667,-1.0667,-0.9931,-0.8783,-0.8783,-0.8783,-0.8783,-0.8783,-0.8783,-0.8783,-0.8702,-0.8709,-0.8715,-0.8762,-0.4673,0.1298,0.7077,0.8722,0.8702,0.879,0.8783,0.8783,0.8783,1.0789,1.2807,1.2807,1.5013,1.7114,1.7114,1.7114,1.7114,1.7114,1.8196,1.9463,2.0822,2.2094,2.3481,2.483,2.5038,2.5038,2.5038,2.5038,2.5038,2.5038,2.5038,2.5038,2.5038,2.5038,2.5038,2.5038,2.5038,2.5038,2.5038,2.5038,2.5038,2.5038,2.5038,2.5038,2.5038,2.5038,2.5038,-2.0685,-2.2336,-2.4308,-2.7592,-2.9096,-3.0129,-3.1529,-3.3316,-3.539,-3.7956,-4.0352,-4.2919,-4.5963,-4.6981,-4.7765,-4.9046,-4.9281,-4.9215,-4.8816,-4.7816,-4.6839,-4.5854,-4.385,-4.2208,-4.1198,-3.9564,-3.818,-3.7264,-3.6272,-3.5118,-3.3732,-3.2981,-3.2267,-3.1564,-3.0409,-2.978,-2.978,-2.9014,-2.8392,-2.8034,-2.8793,-2.8349,-2.6763,-2.5036,-2.3523,-2.2192,-2.0046,-1.8789,-1.8297,-1.6986,-1.5324,-1.3521,-1.2577,-1.1311,-1.0037,-1.0037,-0.9512,-0.8783,-0.8783,-0.8783,-0.8783,-0.879,-0.8702,-0.8735,-0.8748,-0.1843,0.599,0.576,0.7175,0.8702,0.879,0.8783,0.8783,0.8783,1.0789,1.2596,1.1628,1.4366,1.6806,1.5853,1.6485,1.7114,1.7114,1.7408,1.8486,2.0625,2.1313,2.2403,2.483,2.5038,2.5038,2.5038,2.5038,2.5038,2.5038,2.5038,2.5038,2.5038,2.5038,2.5038,2.5038,2.5038,2.5038,2.5038,2.5038,2.5038,2.5038,2.5038,2.5038,2.5038,2.5038,2.5038,-2.0023,-2.1432,-2.2958,-2.6015,-2.7153,-2.796,-2.9463,-3.153,-3.3703,-3.5659,-3.7972,-4.0327,-4.2611,-4.4852,-4.6788,-4.812,-4.9013,-4.9564,-4.952,-4.8559,-4.7645,-4.6985,-4.541,-4.3874,-4.2679,-4.1722,-4.0616,-3.9198,-3.8504,-3.7122,-3.4857,-3.434,-3.352,-3.2115,-3.1371,-3.1008,-3.1008,-3.0237,-2.9913,-2.9913,-3.0214,-2.9344,-2.7402,-2.6171,-2.466,-2.2869,-2.0723,-1.9463,-1.8976,-1.7613,-1.6588,-1.5647,-1.4169,-1.2472,-1.0667,-1.0144,-0.9405,-0.8783,-0.8783,-0.8783,-0.8783,-0.8783,-0.8696,-0.8493,-0.7402,-0.195,0.3908,0.423,0.6408,0.8715,0.8696,0.879,0.8783,0.8783,1.0789,1.2586,1.1734,1.447,1.6806,1.5957,1.6485,1.7114,1.7114,1.7114,1.8007,2.064,2.1019,2.2014,2.4735,2.5038,2.5038,2.5038,2.5038,2.5038,2.5038,2.5038,2.5038,2.5038,2.5038,2.5038,2.5038,2.5038,2.5038,2.5038,2.5038,2.5038,2.5038,2.5038,2.5038,2.5038,2.5038,2.5038,-1.9222,-2.0241,-2.1148,-2.3895,-2.4875,-2.5827,-2.8226,-2.9972,-3.1666,-3.3548,-3.5704,-3.7311,-3.7624,-4.1242,-4.4751,-4.641,-4.8265,-4.9583,-4.976,-4.883,-4.808,-4.8009,-4.6738,-4.527,-4.3821,-4.3844,-4.3129,-4.1142,-4.0584,-3.9265,-3.6863,-3.5809,-3.4417,-3.2482,-3.2341,-3.2258,-3.2174,-3.2115,-3.2115,-3.2008,-3.1008,-2.9954,-2.8659,-2.7492,-2.5615,-2.3157,-2.1705,-2.0443,-1.9076,-1.7803,-1.7217,-1.7012,-1.5647,-1.3521,-1.0985,-0.9519,-0.8991,-0.8884,-0.8777,-0.8783,-0.8783,-0.8783,-0.8783,-0.824,-0.5419,-0.4554,-0.3359,0.2381,0.6305,0.8735,0.8715,0.8797,0.8783,0.8783,1.0789,1.2701,1.2807,1.5013,1.7012,1.7114,1.7114,1.7114,1.7114,1.7114,1.8007,2.0443,2.0936,2.1917,2.4622,2.5038,2.5038,2.5038,2.5038,2.5038,2.5038,2.5038,2.5038,2.5038,2.5038,2.5038,2.5038,2.5038,2.5038,2.5038,2.5038,2.5038,2.5038,2.5038,2.5038,2.5038,2.5038,2.5038,-2.0408,-2.1411,-2.2053,-2.4469,-2.4875,-2.5111,-2.6772,-2.9237,-3.1561,-3.3125,-3.5027,-3.6625,-3.7281,-3.9502,-4.252,-4.6435,-4.8165,-4.9164,-4.9665,-4.934,-4.8799,-4.8072,-4.7679,-4.6847,-4.5347,-4.4673,-4.3859,-4.2534,-4.1812,-4.0584,-3.8715,-3.8415,-3.7447,-3.5565,-3.4727,-3.4026,-3.3249,-3.2482,-3.2115,-3.2115,-3.2597,-3.1802,-2.9867,-2.8726,-2.7381,-2.5821,-2.3523,-2.1705,-2.0443,-1.9177,-1.8007,-1.7114,-1.6703,-1.6163,-1.5312,-1.2797,-1.1205,-1.0144,-0.9098,-0.8783,-0.8783,-0.8783,-0.879,-0.8588,-0.7936,-0.7738,-0.6433,-0.0649,0.4781,0.8755,0.8715,0.8702,0.8696,0.8783,1.0045,1.1522,1.2586,1.4169,1.575,1.6909,1.7114,1.7114,1.7114,1.7114,1.7613,1.9277,2.0344,2.1607,2.3193,2.4413,2.5038,2.5038,2.5038,2.5038,2.5038,2.5038,2.5038,2.5038,2.5038,2.5038,2.5038,2.5038,2.5038,2.5038,2.5038,2.5038,2.5038,2.5038,2.5038,2.5038,2.5038,2.5038,-2.0639,-2.1423,-2.1832,-2.366,-2.4142,-2.4465,-2.5709,-2.8298,-3.0674,-3.1659,-3.3955,-3.5984,-3.6484,-3.7775,-4.0108,-4.4411,-4.7185,-4.8963,-4.9424,-4.9414,-4.9232,-4.8876,-4.8489,-4.779,-4.658,-4.6137,-4.5382,-4.4064,-4.3541,-4.2394,-4.0367,-3.996,-3.8789,-3.6601,-3.5985,-3.5061,-3.3652,-3.3572,-3.3275,-3.2811,-3.333,-3.2465,-3.03,-2.9693,-2.846,-2.6672,-2.4755,-2.314,-2.1802,-2.0443,-1.9177,-1.8007,-1.8007,-1.7191,-1.5957,-1.4377,-1.2472,-1.0455,-0.9198,-0.8783,-0.8783,-0.8783,-0.879,-0.8696,-0.8702,-0.8729,-0.7533,-0.1624,0.2273,0.499,0.6296,0.7708,0.8797,0.8783,0.9725,1.1091,1.2481,1.396,1.5428,1.6806,1.7114,1.7114,1.7114,1.7114,1.7701,1.9663,2.0542,2.1705,2.3708,2.4622,2.5038,2.5038,2.5038,2.5038,2.5038,2.5038,2.5038,2.5038,2.5038,2.5038,2.5038,2.5038,2.5038,2.5038,2.5038,2.5038,2.5038,2.5038,2.5038,2.5038,2.5038,2.5038,-2.0512,-2.1306,-2.1802,-2.2676,-2.3309,-2.3932,-2.4834,-2.7364,-2.9661,-3.0089,-3.2907,-3.5366,-3.5666,-3.6243,-3.8013,-4.18,-4.5484,-4.8167,-4.9037,-4.9306,-4.9477,-4.9705,-4.9123,-4.8411,-4.7664,-4.7654,-4.7061,-4.5444,-4.5302,-4.4257,-4.1953,-4.1302,-3.9929,-3.7476,-3.715,-3.6087,-3.4314,-3.5294,-3.5141,-3.3891,-3.3891,-3.2793,-3.0814,-3.0449,-2.9146,-2.7038,-2.5781,-2.4359,-2.2869,-2.1705,-2.0542,-1.9377,-1.9177,-1.7661,-1.5623,-1.5324,-1.3625,-1.1196,-0.9832,-0.9098,-0.8783,-0.8783,-0.8783,-0.8783,-0.8696,-0.8715,-0.7738,-0.2707,-0.1297,-0.0324,0.3899,0.6835,0.879,0.8783,0.9618,1.0879,1.2491,1.3751,1.5117,1.6806,1.7114,1.7114,1.7114,1.7319,1.8108,2.0145,2.0921,2.2014,2.4222,2.483,2.5038,2.5038,2.5038,2.5038,2.5038,2.5038,2.5038,2.5038,2.5038,2.5038,2.5038,2.5038,2.5038,2.5038,2.5038,2.5038,2.5038,2.5038,2.5038,2.5038,2.5038,2.5038,-2.068,-2.2668,-2.4151,-2.3709,-2.3659,-2.3735,-2.3893,-2.6863,-2.954,-2.9621,-3.2376,-3.489,-3.5326,-3.5697,-3.7217,-4.1116,-4.2838,-4.4965,-4.864,-4.9384,-4.9542,-4.959,-4.9469,-4.9176,-4.8497,-4.8234,-4.7661,-4.6516,-4.6113,-4.5302,-4.3813,-4.3608,-4.2832,-4.1169,-3.9668,-3.8406,-3.7449,-3.8318,-3.7549,-3.4964,-3.4964,-3.434,-3.3062,-3.1215,-2.9606,-2.8213,-2.7038,-2.5149,-2.2965,-2.2676,-2.19,-2.0625,-1.9463,-1.8775,-1.827,-1.7191,-1.575,-1.4064,-1.2701,-1.0691,-0.8783,-0.8783,-0.8783,-0.8783,-0.8783,-0.8696,-0.8601,-0.7624,-0.7419,-0.5002,0.5323,0.8398,0.8722,0.879,0.8884,0.9732,1.228,1.3017,1.396,1.6588,1.7114,1.7114,1.7114,1.7993,1.8486,1.7803,2.0542,2.2386,2.1721,2.363,2.5038,2.5038,2.5038,2.5038,2.5038,2.5038,2.5038,2.5038,2.5038,2.5038,2.5038,2.5038,2.5038,2.5038,2.5038,2.5038,2.5038,2.5038,2.5038,2.5038,2.5038,2.5038,-2.1842,-2.3003,-2.394,-2.3603,-2.4141,-2.4845,-2.5015,-2.7456,-2.9745,-3.0014,-3.2212,-3.4158,-3.4392,-3.5056,-3.6799,-4.0558,-4.1715,-4.3561,-4.7741,-4.8811,-4.9276,-4.9612,-4.956,-4.9313,-4.8854,-4.8557,-4.8077,-4.7235,-4.6698,-4.5837,-4.4701,-4.4654,-4.3829,-4.201,-4.1525,-4.0922,-4.0239,-3.972,-3.8554,-3.6759,-3.5701,-3.4653,-3.3572,-3.2018,-3.0667,-2.9431,-2.8281,-2.6743,-2.4961,-2.4357,-2.3289,-2.1997,-2.1411,-2.0244,-1.8976,-1.8399,-1.6755,-1.4909,-1.4169,-1.2156,-0.9725,-0.8991,-0.8783,-0.8783,-0.8783,-0.879,-0.8696,-0.8715,-0.6408,-0.2813,0.2597,0.6408,0.8715,0.8696,0.879,0.9526,1.228,1.2807,1.3646,1.6588,1.7114,1.7114,1.7114,1.8196,1.9076,1.9177,2.1313,2.2983,2.321,2.4318,2.5038,2.5038,2.5038,2.5038,2.5038,2.5659,2.5993,2.5993,2.5993,2.5993,2.5993,2.5993,2.5993,2.5993,2.5993,2.5752,2.5038,2.5038,2.5038,2.5133,2.5733,2.5639,-2.2758,0.0,-2.3676,-2.3759,-2.4696,-2.5724,0.0,-2.7989,-2.9847,-3.0254,-3.1978,-3.3433,-3.3621,-3.4359,-3.6261,-4.0202,-4.1157,-4.2849,-4.7045,-4.8178,-4.8806,-4.9494,-4.95,-4.9351,-4.9113,-4.8793,-4.8409,-4.7888,-4.7267,-4.6476,-4.5497,-4.5391,-4.4476,-4.2551,-4.3114,-4.306,-4.221,-4.0803,-3.9493,-3.8416,-3.6686,-3.5218,-3.3945,-3.2868,-3.1708,-3.03,-2.9344,-2.8213,-2.6784,-2.5826,-2.4679,-2.3385,-2.3079,-2.1705,-1.9847,-1.9277,-1.7763,-1.5829,-1.522,-1.3311,-1.0985,-0.9618,-0.8991,-0.8783,-0.8783,-0.8783,-0.8783,-0.8702,-0.5518,-0.1726,-0.0324,0.3785,0.7828,0.8595,0.8797,0.9419,1.1848,1.2586,1.3541,1.606,1.6909,1.7114,1.7114,1.8399,1.9762,2.0443,2.2209,2.369,2.4508,2.483,2.5038,2.5038,2.5038,2.5038,2.5038,2.6178,2.6855,2.6855,2.7038,2.7129,2.6875,2.6855,2.6855,2.6855,2.6855,2.6344,2.5471,2.5227,2.5208,2.5471,2.6436,2.6528,0.0,-2.3732,-2.4794,-2.4896,-2.5336,-2.5649,-2.57,-2.7767,0.0,-2.9798,-3.1329,-3.2902,-3.3527,-3.3714,-3.5289,-4.0045,-4.0846,-4.2442,-4.6976,-4.7772,-4.8175,-4.8937,-4.9332,-4.9503,-4.9353,-4.8997,-4.8719,-4.8546,-4.7941,-4.7271,-4.6554,-4.623,-4.5381,-4.4015,-4.4606,-4.4296,-4.2897,-4.2178,-4.0988,-3.9325,-3.8347,-3.6904,-3.5041,-3.4024,-3.2325,-3.03,-3.0214,-2.8903,-2.6855,-2.6692,-2.5993,-2.4811,-2.3481,-2.2869,-2.2386,-1.9946,-1.8976,-1.8371,-1.5829,-1.396,-1.2481,-1.0985,-0.9725,-0.8783,-0.8783,-0.8783,-0.8783,-0.8702,-0.8493,-0.6856,-0.1406,0.2273,0.5315,0.8043,0.8797,0.9091,1.0561,1.1839,1.3332,1.4805,1.6175,1.7114,1.7114,1.9177,2.0443,1.9363,2.2437,2.4508,2.3271,2.4299,2.5038,2.5038,2.5038,2.5038,2.5038,2.6178,2.6855,2.6855,2.7854,2.7944,2.6855,2.6855,2.6855,2.6855,2.6855,2.6784,2.6692,2.5565,2.5659,2.6692,2.6784,2.7402,-2.5354,-2.6449,-2.7285,-2.6641,-2.7354,-2.8,-2.7385,-2.8833,-3.0331,-3.0331,-3.1272,-3.2127,-3.2353,-3.3066,-3.4956,-3.8952,-4.0282,-4.2168,-4.6116,-4.7241,-4.7884,-4.8435,-4.913,-4.9607,-4.9595,-4.9347,-4.9027,-4.8707,-4.828,-4.7598,-4.6702,-4.6692,-4.638,-4.5726,-4.5277,-4.462,-4.3726,-4.2519,-4.1416,-4.0298,-3.8796,-3.7436,-3.6104,-3.4419,-3.3143,-3.23,-3.0876,-2.9867,0.0,-2.7402,-2.66,-2.6086,-2.4774,-2.369,-2.2869,-2.1802,-2.0443,-1.8875,-1.7851,-1.6011,-1.396,-1.2481,-1.1099,-0.9832,-0.8991,-0.8783,-0.8783,-0.879,-0.8715,-0.7852,-0.3683,0.0757,0.499,0.8062,0.8702,0.9091,1.0455,1.1839,1.3227,1.4701,1.6175,1.7114,1.7114,1.9262,2.0822,2.0344,2.3035,2.483,2.4318,2.4716,2.5038,2.5038,2.5038,2.5038,2.5038,2.6804,2.7944,2.7944,2.8992,2.9431,2.9058,2.897,2.897,2.897,2.897,2.8637,2.7944,2.6712,2.5993,2.5733,2.7241,2.7764,-2.6356,-2.7318,-2.7922,-2.7894,-2.863,-2.9287,-2.8786,-2.9492,-3.0343,-3.0654,-3.1233,-3.1709,-3.195,-3.3078,-3.5095,-3.8624,-4.0266,-4.2278,-4.5586,-4.6878,-4.762,-4.8149,-4.8755,-4.927,-4.9649,-4.9574,-4.9367,-4.8997,-4.8619,-4.8094,-4.7321,-4.7238,-4.7133,-4.6954,-4.5955,-4.5075,-4.4461,-4.3254,-4.2152,-4.1173,-3.969,-3.8347,-3.7105,-3.5014,-3.3945,-3.3491,-3.1684,-3.0667,-3.0214,-2.8192,-2.7129,-2.6692,-2.5565,-2.4508,-2.3576,-2.3079,-2.1802,-2.0145,-1.9377,-1.7546,-1.5392,-1.396,-1.2261,-1.0561,-0.9618,-0.9412,-0.9305,-0.8884,-0.8702,-0.8062,-0.5099,-0.0649,0.3896,0.7846,0.8709,0.8991,0.9931,1.1531,1.3122,1.4064,1.5853,1.7114,1.7114,1.9262,2.1019,2.1019,2.3324,2.5038,2.5038,2.5038,2.5038,2.5038,2.5038,2.5208,2.5565,2.7764,2.9014,2.857,3.0064,3.0752,3.0386,3.03,3.03,3.03,3.03,2.9954,2.9102,2.7944,2.6784,2.5639,2.7695,2.857,-2.5073,-2.5739,-2.6196,-2.8441,-2.8812,-2.8786,-2.9565,-2.955,-2.9623,-3.0541,-3.1233,-3.1867,-3.2535,-3.3702,-3.5743,-3.9263,-4.0929,-4.2813,-4.5684,-4.6644,-4.7311,-4.8101,-4.8203,-4.8557,-4.9485,-4.969,-4.9634,-4.9391,-4.902,-4.8719,-4.8593,-4.797,-4.7647,-4.7647,-4.6618,-4.5766,-4.5075,-4.4461,-4.3413,-4.1984,-4.1173,-3.9915,-3.8041,-3.6123,-3.4653,-3.3652,-3.2564,-3.1395,-3.0214,-2.9102,-2.7944,-2.6784,-2.5565,-2.5133,-2.4925,-2.3481,-2.2965,-2.2579,-1.9946,-1.8127,-1.6679,-1.5404,-1.3092,-1.0773,-1.0773,-1.0667,-1.0455,-0.9091,-0.8797,-0.8043,-0.5095,-0.2159,0.151,0.7402,0.8709,0.8783,0.8783,1.0904,1.2807,1.2807,1.5117,1.7114,1.7114,1.9277,2.1019,2.1019,2.3324,2.5038,2.5038,2.5038,2.5038,2.5133,2.5133,2.5565,2.6784,2.897,2.9867,2.8659,3.0776,3.1564,3.0386,3.0386,3.0386,3.0386,3.0386,3.03,3.03,2.919,2.7944,2.6855,2.8034,2.9826,-2.6157,-2.7699,-2.8903,-2.8833,-2.9801,-3.0852,-3.1081,-3.0843,-3.0829,-3.1727,-3.1436,-3.1233,-3.1845,-3.3462,-3.5535,-3.8072,-4.0823,-4.3266,-4.5094,-4.6335,-4.7241,-4.7743,-4.8056,-4.8415,-4.8987,-4.9466,-4.9735,-4.965,-4.9131,-4.8769,-4.8719,-4.8446,-4.8224,-4.8043,-4.7025,-4.6043,-4.5075,-4.4461,-4.3413,-4.1952,-4.1775,-4.1081,-3.9915,-3.7321,-3.5966,-3.5516,-3.3143,-3.184,-3.1479,-3.03,-2.9606,-2.9058,-2.7129,-2.6344,-2.6159,-2.4868,-2.3786,-2.2676,-2.1019,-1.9533,-1.804,-1.5714,-1.4377,-1.3521,-1.2481,-1.1522,-1.0455,-0.9091,-0.8783,-0.8575,-0.7606,-0.378,0.151,0.7402,0.8709,0.8783,0.8783,1.0151,1.1628,1.2596,1.4377,1.5957,1.6909,1.8486,1.9946,2.0838,2.25,2.39,2.4925,2.5038,2.5377,2.6251,2.6344,2.6804,2.7944,2.9431,3.0214,2.9867,3.1225,3.1924,3.1564,3.1564,3.1564,3.1564,3.1564,3.1117,3.03,2.9954,2.9168,2.8034,2.7583,2.8549,-2.6529,-2.7833,-2.9012,-2.933,-2.9942,-3.0861,-3.2036,-3.1805,-3.157,-3.2331,-3.2166,-3.2004,-3.2415,-3.4155,-3.6138,-3.7936,-4.0873,-4.3327,-4.4497,-4.5816,-4.6877,-4.7548,-4.7978,-4.835,-4.8755,-4.9263,-4.9667,-4.9756,-4.9364,-4.9089,-4.9116,-4.8816,-4.8534,-4.8215,-4.7469,-4.655,-4.547,-4.4843,-4.3931,-4.2798,-4.2267,-4.1596,-4.074,-3.7884,-3.6309,-3.5844,-3.3224,-3.2115,-3.2008,-3.0838,-3.03,-3.0127,-2.8281,-2.7492,-2.7402,-2.6178,-2.5206,-2.4188,-2.2369,-2.0921,-1.9463,-1.7342,-1.664,-1.6126,-1.3636,-1.227,-1.1205,-0.9312,-0.8783,-0.8783,-0.8797,-0.6169,-0.1404,0.6743,0.8715,0.879,0.8783,0.9725,1.1091,1.2596,1.396,1.5439,1.6909,1.8196,1.9463,2.0822,2.2094,2.3481,2.4925,2.5038,2.5565,2.6692,2.7652,2.8527,2.9168,3.0323,3.0838,3.0386,3.1479,3.2115,3.2115,3.2115,3.2115,3.2115,3.2115,3.1756,3.1008,3.0558,2.9954,2.9278,2.8549,2.8726,-2.6344,-2.6784,-2.729,-2.9496,-2.9484,-2.9614,-3.2441,-3.2457,-3.1954,-3.2545,-3.3222,-3.3711,-3.3768,-3.5455,-3.7205,-3.8507,-4.1131,-4.3188,-4.3763,-4.5143,-4.642,-4.7377,-4.7894,-4.8307,-4.8693,-4.9071,-4.9427,-4.969,-4.9639,-4.9564,-4.959,-4.9109,-4.8656,-4.8234,-4.7863,-4.7168,-4.6102,-4.5514,-4.4843,-4.4115,-4.2798,-4.1775,-4.0927,-3.8201,-3.6382,-3.5446,-3.3385,-3.2399,-3.2174,-3.1093,-3.0558,-3.0386,-2.919,-2.8748,-2.857,-2.7311,-2.6855,-2.6488,-2.3809,-2.2192,-2.0921,-1.9563,-1.8976,-1.8155,-1.4251,-1.2912,-1.228,-0.9626,-0.8891,-0.8783,-0.8783,-0.8709,-0.5976,0.5315,0.8385,0.8702,0.8783,0.9725,1.0985,1.2481,1.3855,1.5324,1.6999,1.8297,1.9563,2.0921,2.2175,2.3481,2.5019,2.5208,2.5733,2.7038,2.9058,3.0386,3.0472,3.1479,3.1648,3.0558,3.1479,3.2115,3.2115,3.2115,3.2115,3.2115,3.2115,3.2115,3.2115,3.1032,3.0472,3.0472,3.0386,2.978,-2.5397,-2.6086,-2.6946,-2.7472,-2.8837,-3.0401,-3.1849,-3.2574,-3.3137,-3.4081,-3.4284,-3.4369,-3.4884,-3.6356,-3.7782,-3.8543,-4.1131,-4.3027,-4.3188,-4.4868,-4.6137,-4.638,-4.7203,-4.7894,-4.828,-4.8681,-4.9042,-4.9446,-4.9627,-4.9674,-4.9557,-4.937,-4.9019,-4.8559,-4.8234,-4.7598,-4.6514,-4.6108,-4.5291,-4.4115,-4.3811,-4.3353,-4.2714,-4.0616,-3.9121,-3.8309,-3.6427,-3.4703,-3.3249,-3.3062,-3.2432,-3.1564,-3.0409,-2.9954,-2.9693,-2.7583,-2.6855,-2.6488,-2.3809,-2.2772,-2.2094,-1.9762,-1.8399,-1.7191,-1.5117,-1.3751,-1.2491,-1.0773,-0.9512,-0.8783,-0.8783,-0.8709,-0.6964,0.0216,0.541,0.8702,0.8783,0.8991,0.9839,1.2385,1.3122,1.447,1.7966,1.889,1.9862,2.2192,2.2772,2.3827,2.6139,2.6436,2.722,2.9321,3.0041,3.0667,3.1648,3.1924,3.1924,3.1756,3.1924,3.2115,3.2115,3.2115,3.2115,3.2115,3.2115,3.2115,3.2115,3.184,3.1672,3.1672,3.0752,3.0667,-2.5038,-2.5565,-2.6086,-2.6692,-2.8192,-2.9931,-3.1527,-3.2663,-3.3671,-3.4566,-3.4675,-3.4822,-3.5663,-3.6888,-3.7894,-3.8369,-4.076,-4.2487,-4.2422,-4.4228,-4.5723,-4.6054,-4.699,-4.7711,-4.7894,-4.8415,-4.8816,-4.9087,-4.9442,-4.9657,-4.9569,-4.9498,-4.922,-4.8718,-4.8497,-4.7955,-4.7096,-4.6623,-4.5746,-4.4606,-4.4265,-4.3637,-4.2625,-4.1135,-3.9991,-3.9181,-3.7364,-3.5939,-3.4934,-3.3998,-3.333,-3.2704,-3.1624,-3.1202,-3.0861,-2.8549,-2.7673,-2.7311,-2.483,-2.3096,-2.1802,-2.0443,-1.9076,-1.7484,-1.4782,-1.3437,-1.2385,-1.0364,-0.9305,-0.8783,-0.8783,-0.8709,-0.7624,-0.3135,0.2377,0.6953,0.848,0.8797,0.9526,1.228,1.2807,1.4147,1.8357,1.9076,1.9946,2.2579,2.2965,2.3904,2.6488,2.7311,2.8549,3.0946,3.1202,3.1624,3.2729,3.2811,3.2811,3.2811,3.2811,3.2564,3.2115,3.2564,3.2564,3.2115,3.2564,3.2564,3.2115,3.2115,3.2115,3.2032,3.1479,3.1202,-2.5,-2.5038,-2.5302,-2.6251,-2.7604,-2.9102,-3.0937,-3.2686,-3.4052,-3.4765,-3.5142,-3.5661,-3.6539,-3.7337,-3.7955,-3.8238,-4.0267,-4.1743,-4.1616,-4.3593,-4.5257,-4.5809,-4.688,-4.7548,-4.7614,-4.816,-4.8596,-4.8732,-4.9183,-4.948,-4.9576,-4.9549,-4.9394,-4.8987,-4.8788,-4.8398,-4.7796,-4.7129,-4.6361,-4.5356,-4.462,-4.3623,-4.2325,-4.1375,-4.0461,-3.9668,-3.8172,-3.7122,-3.6455,-3.4806,-3.3866,-3.3249,-3.2424,-3.2115,-3.184,-2.9629,-2.8748,-2.8213,-2.6105,-2.3594,-2.1313,-2.1117,-1.9962,-1.8067,-1.4355,-1.3017,-1.227,-0.9839,-0.8884,-0.8783,-0.8783,-0.8709,-0.796,-0.499,0.0108,0.5099,0.8074,0.8702,0.9526,1.228,1.2807,1.4251,1.8645,1.9363,2.0244,2.2886,2.3271,2.4225,2.6855,2.8124,2.9803,3.2067,3.2174,3.2482,3.3491,3.3652,3.3652,3.3652,3.3812,3.3411,3.2424,3.333,3.3411,3.2341,3.3193,3.3193,3.2341,3.2174,3.2115,3.2115,3.2115,3.1564,-2.4849,-2.5038,-2.5133,-2.5302,-2.6988,-2.8659,-2.8903,-3.2144,-3.4987,-3.5132,-3.6545,-3.7843,-3.8012,-3.8151,-3.8278,-3.8315,-3.9811,-4.0989,-4.0989,-4.3366,-4.5155,-4.5212,-4.634,-4.7241,-4.7581,-4.8014,-4.8368,-4.8607,-4.8768,-4.9102,-4.954,-4.9573,-4.9579,-4.9633,-4.9407,-4.9003,-4.8497,-4.7821,-4.7131,-4.6441,-4.5453,-4.4606,-4.3811,-4.3258,-4.2479,-4.1624,-4.1353,-3.9473,-3.6529,-3.6309,-3.4625,-3.2258,-3.2115,-3.2115,-3.1924,-3.0581,-2.9431,-2.8392,-2.7058,-2.4867,-2.2482,-2.1313,-1.9363,-1.6999,-1.522,-1.3855,-1.2481,-1.0879,-0.9618,-0.8783,-0.8783,-0.8709,-0.796,-0.499,0.0108,0.5099,0.8074,0.8702,0.9526,1.228,1.2807,1.4541,1.9817,2.0739,2.1624,2.4336,2.4811,2.562,2.8034,2.9344,3.0961,3.3168,3.2646,3.2482,3.3491,3.3652,3.3652,3.3652,3.4497,3.4497,3.3491,3.4419,3.4497,3.3411,3.3572,3.3572,3.3411,3.2482,3.2115,3.2115,3.2115,3.2032,-2.4811,-2.5038,-2.5038,-2.5038,-2.6364,-2.7764,-2.8392,-3.1083,-3.3709,-3.4937,-3.6327,-3.7579,-3.8175,-3.8274,-3.8274,-3.8274,-3.9252,-4.0234,-4.074,-4.2589,-4.4197,-4.4983,-4.5929,-4.6686,-4.7241,-4.7647,-4.8007,-4.8331,-4.8547,-4.8908,-4.9446,-4.945,-4.9493,-4.9636,-4.9552,-4.9327,-4.9045,-4.8288,-4.7502,-4.6629,-4.5583,-4.4749,-4.4115,-4.3592,-4.3115,-4.2714,-4.2217,-4.0802,-3.8804,-3.7221,-3.5441,-3.3732,-3.2564,-3.2115,-3.184,-2.9977,-2.9014,-2.8324,-2.6436,-2.4528,-2.2676,-2.1411,-1.9762,-1.7674,-1.469,-1.3332,-1.2376,-1.0258,-0.9198,-0.8783,-0.8783,-0.8696,-0.7948,-0.499,-0.108,0.3135,0.7738,0.8702,0.9098,1.0266,1.1752,1.4333,1.8946,2.0495,2.1933,2.464,2.5659,2.6875,2.9256,3.0041,3.1215,3.3411,3.3193,3.3652,3.5271,3.5424,3.5424,3.5424,3.5804,3.5577,3.4575,3.5501,3.5577,3.4497,3.5041,3.5118,3.4497,3.3411,3.2949,3.2949,3.2341,3.2115,-2.4488,-2.4886,-2.5038,-2.5038,-2.6178,-2.7492,-2.8392,-3.0767,-3.3148,-3.486,-3.6253,-3.7407,-3.8175,-3.8274,-3.8274,-3.8274,-3.8944,-3.975,-4.0678,-4.2056,-4.3504,-4.4937,-4.568,-4.6335,-4.6984,-4.7381,-4.7739,-4.8043,-4.8331,-4.8728,-4.9215,-4.9295,-4.9469,-4.9602,-4.9577,-4.9521,-4.9419,-4.8797,-4.7992,-4.7058,-4.5967,-4.5098,-4.4363,-4.3789,-4.3465,-4.3313,-4.2625,-4.1596,-4.0269,-3.8132,-3.6235,-3.4653,-3.3112,-3.2341,-3.184,-2.9803,-2.8837,-2.8235,-2.5939,-2.4109,-2.2676,-2.1411,-2.0145,-1.8357,-1.4563,-1.3122,-1.228,-0.9938,-0.8991,-0.8783,-0.8783,-0.8696,-0.8163,-0.5972,-0.2053,0.2483,0.7629,0.8702,0.8783,0.8783,1.101,1.3813,1.6818,1.9374,2.1997,2.5076,2.6251,2.7652,3.0018,3.0558,3.1576,3.3786,3.3812,3.4497,3.6577,3.6724,3.6724,3.6724,3.7017,3.6651,3.5652,3.6577,3.6651,3.5577,3.6327,3.6327,3.5577,3.4575,3.4024,3.4024,3.2949,3.2482,-2.3596,-2.4431,-2.5038,-2.5038,-2.6804,-2.8503,-2.857,-3.1896,-3.5014,-3.5195,-3.6798,-3.8274,-3.8274,-3.8274,-3.8274,-3.8274,-3.8944,-3.975,-4.0678,-4.2056,-4.3504,-4.4937,-4.568,-4.6335,-4.6984,-4.7381,-4.7647,-4.7647,-4.8014,-4.8389,-4.8805,-4.9173,-4.9484,-4.9727,-4.9611,-4.9563,-4.9536,-4.9398,-4.8931,-4.8094,-4.7058,-4.6048,-4.5029,-4.4363,-4.3808,-4.3368,-4.328,-4.177,-3.9342,-3.9211,-3.695,-3.3732,-3.3572,-3.2949,-3.1924,-3.0667,-2.9519,-2.8235,-2.5939,-2.4109,-2.2676,-2.1411,-2.0145,-1.8573,-1.5726,-1.3855,-1.2481,-1.0985,-0.9725,-0.8783,-0.8783,-0.8709,-0.8742,-0.8519,-0.2056,0.4882,0.8074,0.8702,0.8783,0.8783,1.101,1.2912,1.3112,1.7479,2.2272,2.6191,2.6784,2.7652,3.0018,3.1286,3.2786,3.486,3.4183,3.4497,3.6577,3.6724,3.6724,3.6724,3.765,3.7721,3.6724,3.765,3.7721,3.6651,3.6724,3.6724,3.6651,3.5652,3.5118,3.5118,3.4024,3.3572,-2.2703,-2.3577,-2.4222,-2.4222,-2.5852,-2.7673,-2.8392,-3.0913,-3.3254,-3.4024,-3.5879,-3.7335,-3.7335,-3.7863,-3.8274,-3.8274,-3.8523,-3.9012,-3.9816,-4.0926,-4.2309,-4.4145,-4.5006,-4.5851,-4.6946,-4.7205,-4.7346,-4.7614,-4.7984,-4.8352,-4.8657,-4.9045,-4.9391,-4.9615,-4.9571,-4.9619,-4.9687,-4.9558,-4.9189,-4.8542,-4.7265,-4.6322,-4.5645,-4.4606,-4.4048,-4.3808,-4.3465,-4.2191,-4.0206,-3.9569,-3.7406,-3.4575,-3.3866,-3.2949,-3.184,-2.989,-2.8925,-2.8235,-2.5939,-2.4109,-2.2676,-2.1411,-2.0145,-1.8357,-1.4667,-1.3227,-1.2376,-1.0045,-0.9091,-0.8783,-0.8797,-0.8709,-0.784,-0.4016,0.0216,0.4436,0.796,0.8702,0.8783,0.8783,1.0258,1.1734,1.2692,1.586,2.0053,2.4811,2.6905,2.8549,3.0127,3.1395,3.2868,3.4964,3.4886,3.5501,3.7579,3.7721,3.7721,3.7721,3.8104,3.8104,3.7721,3.8104,3.8104,3.7721,3.7721,3.7721,3.7721,3.6724,3.6179,3.6179,3.5118,3.4261,-2.1887,-2.2665,-2.333,-2.333,-2.5172,-2.7231,-2.8025,-3.0448,-3.2711,-3.3466,-3.5271,-3.6724,-3.6724,-3.7579,-3.8274,-3.8274,-3.8274,-3.8701,-3.975,-4.0425,-4.162,-4.3746,-4.4633,-4.5514,-4.6605,-4.6872,-4.7059,-4.7098,-4.7671,-4.815,-4.8423,-4.8804,-4.9143,-4.9503,-4.9541,-4.9609,-4.9705,-4.9665,-4.9422,-4.8974,-4.7765,-4.7026,-4.6771,-4.54,-4.4558,-4.4115,-4.3737,-4.256,-4.074,-4.0111,-3.8161,-3.5652,-3.4575,-3.3491,-3.2316,-2.9519,-2.857,-2.8324,-2.6364,-2.4452,-2.2676,-2.1411,-2.0145,-1.8357,-1.4678,-1.3227,-1.2385,-1.0045,-0.9098,-0.879,-0.8702,-0.8043,-0.5967,-0.1193,0.1732,0.4328,0.796,0.8702,0.8783,0.8783,0.9832,1.1196,1.2586,1.5437,1.8931,2.2991,2.6059,2.8392,2.9606,3.1117,3.2868,3.4964,3.5195,3.6029,3.8104,3.8274,3.8274,3.8274,3.8274,3.8274,3.8274,3.8274,3.8274,3.8274,3.8274,3.8274,3.8274,3.7579,3.7262,3.7262,3.6179,3.5348,-2.1166,-2.1773,-2.2522,-2.2522,-2.4913,-2.7324,-2.7324,-3.0569,-3.3469,-3.3469,-3.5191,-3.6668,-3.6668,-3.755,-3.8274,-3.8274,-3.8274,-3.8838,-4.0489,-4.0803,-4.162,-4.3778,-4.4701,-4.5302,-4.5971,-4.6605,-4.6757,-4.6096,-4.7026,-4.7807,-4.8159,-4.8423,-4.8804,-4.9315,-4.949,-4.9566,-4.9582,-4.9717,-4.9634,-4.9353,-4.8582,-4.824,-4.8159,-4.6771,-4.5426,-4.4165,-4.4115,-4.2843,-4.0803,-4.0803,-3.9192,-3.6651,-3.5577,-3.4575,-3.3224,-2.9931,-2.8659,-2.8392,-2.722,-2.5149,-2.2676,-2.1411,-2.0145,-1.8573,-1.5714,-1.396,-1.2481,-1.1091,-0.9725,-0.879,-0.8702,-0.6512,-0.3578,-0.0651,0.2168,0.5099,0.8074,0.8702,0.8783,0.8777,0.9832,1.1196,1.2692,1.622,1.9344,2.0806,2.4283,2.722,2.8392,3.0604,3.2868,3.4964,3.5195,3.6029,3.8104,3.8274,3.8274,3.8274,3.8274,3.8274,3.8274,3.8274,3.8274,3.8274,3.8274,3.8274,3.8274,3.8274,3.8274,3.8274,3.7262,3.6798,-2.0158,-2.0919,-2.1545,-2.1545,-2.3867,-2.611,-2.611,-2.8236,-3.021,-3.021,-3.2507,-3.452,-3.452,-3.6567,-3.8274,-3.8274,-3.8274,-3.8454,-3.8906,-4.0041,-4.1232,-4.2333,-4.3981,-4.4983,-4.4701,-4.568,-4.6254,-4.6096,-4.7026,-4.7679,-4.777,-4.8294,-4.8728,-4.895,-4.9372,-4.9612,-4.9714,-4.9636,-4.9578,-4.9503,-4.8817,-4.8405,-4.8187,-4.7509,-4.6314,-4.4796,-4.4363,-4.2843,-4.0803,-4.0803,-3.9192,-3.6651,-3.5577,-3.4575,-3.3385,-3.1611,-2.9931,-2.8392,-2.722,-2.5149,-2.2676,-2.1411,-2.0145,-1.8357,-1.4563,-1.3122,-1.2385,-0.9946,-0.8991,-0.879,-0.8722,-0.6521,-0.3578,-0.0651,0.2168,0.5099,0.8056,0.8696,0.8991,0.9931,1.1311,1.2692,1.4169,1.6126,1.8357,2.0625,2.3505,2.6151,2.8303,2.9867,3.1969,3.486,3.5879,3.6871,3.8175,3.8274,3.8274,3.8274,3.8274,3.8274,3.8274,3.8274,3.8274,3.8274,3.8274,3.8274,3.8274,3.8274,3.8274,3.8274,3.8034,3.7478,-1.907,-1.9552,-1.9666,-1.9666,-2.2182,-2.4596,-2.4596,-2.6846,-2.9044,-2.9392,-3.1242,-3.2911,-3.3194,-3.5576,-3.7459,-3.7459,-3.7925,-3.8384,-3.8769,-3.9976,-4.1081,-4.1797,-4.3556,-4.4461,-4.386,-4.4924,-4.568,-4.568,-4.6502,-4.7238,-4.7832,-4.8224,-4.8608,-4.8945,-4.9367,-4.9595,-4.968,-4.9731,-4.9674,-4.9577,-4.9019,-4.8579,-4.8187,-4.7801,-4.7026,-4.5851,-4.4937,-4.3327,-4.1295,-4.1295,-3.9949,-3.7748,-3.6787,-3.5522,-3.4104,-3.2572,-3.0558,-2.8481,-2.7764,-2.5204,-2.1997,-2.1215,-1.9762,-1.7674,-1.4678,-1.3332,-1.2376,-1.0151,-0.9212,-0.8696,-0.8729,-0.5652,-0.2059,-0.0434,0.3147,0.663,0.8379,0.8797,0.9091,1.0455,1.1417,1.2577,1.4585,1.6139,1.8141,2.1297,2.3962,2.6295,2.8303,3.0363,3.2465,3.434,3.5879,3.719,3.8175,3.8274,3.8454,3.874,3.8454,3.8454,3.874,3.8454,3.8454,3.8769,3.8454,3.8454,3.874,3.8454,3.8274,3.8274,3.8274,3.7963,-1.8001,-1.8053,-1.7502,-1.7634,-2.0223,-2.2818,0.0,-2.5713,-2.8478,-2.922,-3.0428,-3.1574,-3.231,-3.4481,-3.6151,-3.6151,-3.7227,-3.8289,-3.9012,-4.0142,-4.105,-4.1775,-4.3072,-4.3723,-4.3389,-4.4332,-4.5029,-4.5075,-4.5723,-4.6659,-4.8014,-4.8159,-4.8483,-4.9049,-4.939,-4.958,-4.9584,-4.9805,-4.9833,-4.9578,-4.9188,-4.8766,-4.828,-4.79,-4.7448,-4.7058,-4.5766,-4.4098,-4.2325,-4.2068,-4.0958,-3.9192,-3.8249,-3.6831,-3.4964,-3.2868,-3.0604,-2.8592,-2.8392,-2.5278,-2.1428,-2.1117,-1.9463,-1.7204,-1.5531,-1.396,-1.2481,-1.1091,-0.974,-0.8709,-0.829,-0.4125,0.0109,0.0434,0.4673,0.8729,0.8709,0.8797,0.9205,1.0667,1.0879,1.1936,1.4886,1.6397,1.8474,2.2369,2.5072,2.7096,2.8549,3.1611,3.3732,3.3945,3.5652,3.719,3.8175,3.8384,3.8701,3.9421,3.8876,3.8906,3.9554,3.8944,3.8876,3.9619,3.8758,3.8669,3.9277,3.8563,3.8111,3.8041,3.8216,3.8128,0.0,0.0,0.0,0.0,0.0,0.0,0.0,-2.2665,-2.393,-2.4497,-2.7032,-2.9358,-2.9937,-3.266,-3.4749,-3.4749,-3.5889,-3.677,-3.6904,-3.9178,-4.0896,-4.105,-4.1861,-4.2673,-4.328,-4.3911,-4.4558,-4.5029,-4.5723,-4.6416,-4.7205,-4.7863,-4.827,-4.8405,-4.9167,-4.958,-4.9584,-4.9704,-4.9794,-4.9727,-4.9442,-4.9079,-4.8631,-4.8252,-4.7863,-4.7448,-4.6345,-4.5346,-4.4378,-4.2687,-4.0585,-3.8249,-3.7207,-3.6143,-3.4937,-3.2686,-3.0534,-2.8392,-2.7492,-2.586,-2.3918,-2.1721,-2.064,-1.9533,-1.6023,-1.396,-1.2481,-1.1091,-0.974,-0.8157,-0.5751,-0.2599,0.0541,0.2926,0.6188,0.8709,0.879,0.8783,0.9526,1.1954,1.2376,1.3615,1.7546,1.8458,1.9633,2.2482,2.5072,2.7415,2.9557,3.2086,3.4261,3.5954,3.6503,3.719,3.8175,3.8876,3.9288,3.9488,4.001,4.0362,4.0552,4.0425,4.0425,4.0552,3.9254,3.8422,3.8045,3.7726,3.7206,3.6761,3.7779,3.7169,0.0,0.0,0.0,0.0,0.0,0.0,0.0,0.0,0.0,0.0,0.0,-2.6416,-2.7433,0.0,-3.2184,-3.2485,-3.4173,-3.5627,-3.6267,-3.8034,-3.9283,-3.9283,-3.9989,-4.1043,-4.2503,-4.2919,-4.3623,-4.4983,-4.5426,-4.6102,-4.7276,-4.7894,-4.8261,-4.8409,-4.9114,-4.9505,-4.9584,-4.9715,-4.9762,-4.9765,-4.9558,-4.924,-4.8781,-4.8399,-4.7984,-4.7581,-4.6502,-4.5851,-4.547,-4.3778,-4.1616,-3.9295,-3.7321,-3.5667,-3.4157,-3.1945,-3.0018,-2.8392,-2.722,-2.5168,-2.2824,-2.1428,-2.0145,-1.8573,-1.5829,-1.396,-1.2481,-1.1091,-0.9755,-0.8062,-0.5099,-0.2166,0.1083,0.5431,0.7618,0.8911,0.9626,0.9725,1.0569,1.3332,1.3855,1.499,1.8458,2.0609,2.2624,2.4585,2.7346,2.9708,3.0866,3.3444,3.5577,3.6651,3.719,3.7721,3.8274,3.9012,3.9488,3.9488,4.0331,4.0989,4.1356,4.0364,3.9929,4.0316,3.8529,3.767,3.7728,3.6779,3.6166,3.5912,3.6562,3.5951,0.0,0.0,0.0,0.0,0.0,0.0,0.0,0.0,0.0,0.0,0.0,0.0,0.0,0.0,0.0,-2.991,-3.2018,-3.3956,-3.5228,-3.6178,-3.6833,-3.7291,-3.7873,-3.9142,-4.1408,-4.1626,-4.2559,-4.4762,-4.5029,-4.5781,-4.7238,-4.7888,-4.8315,-4.8522,-4.9082,-4.9419,-4.9576,-4.9698,-4.9765,-4.9815,-4.9651,0.0,-4.894,-4.8468,-4.8101,-4.7675,-4.6621,-4.6061,-4.5766,-4.4427,-4.2788,-4.0772,-3.8132,-3.564,-3.3385,-3.113,-2.9606,-2.8392,-2.6926,-2.417,-2.1313,-2.0822,-1.9177,-1.7204,-1.5428,-1.396,0.0,-1.1091,-0.9762,-0.8074,-0.5099,-0.1733,0.2169,0.7521,0.8931,0.9433,1.0463,1.0879,1.183,1.4481,1.5209,1.6217,1.8961,2.2431,2.539,2.6946,2.9886,3.192,3.2169,3.4884,3.6798,3.7017,3.7793,3.8315,3.8523,3.9117,3.9619,3.9915,4.0678,4.1416,4.2217,4.027,3.9453,4.0094,3.7778,3.6848,3.7327,3.6039,3.5296,3.5002,3.4222,3.3633,0.0,0.0,0.0,0.0,0.0,0.0,0.0,0.0,0.0,0.0,0.0,0.0,0.0,0.0,0.0,0.0,-2.9202,-3.0619,-3.1741,-3.2587,-3.3812,-3.5723,-3.6052,-3.719,-3.9969,-4.0264,-4.1351,-4.4014,-4.4749,-4.5426,-4.6219,-4.7469,0.0,0.0,0.0,-4.9447,-4.9577,-4.9728,-4.9817,-4.9953,-4.9666,-4.9528,-4.9445,-4.8834,-4.8409,-4.8101,-4.7024,-4.6084,-4.5075,-4.3659,-4.2599,-4.1624,-3.9732,-3.6763,-3.3385,-3.113,-2.9606,-2.8213,-2.5947,0.0,0.0,-2.0046,-1.9076,-1.8371,-1.5726,-1.396,-1.2481,-1.1091,-0.9762,-0.8074,-0.5099,-0.0216,0.4666,0.796,0.9655,1.0463,1.0667,1.1734,1.3017,1.469,1.5896,1.7594,2.0328,2.3008,2.5669,2.8012,3.0425,3.2226,3.3152,3.5343,3.7089,3.8034,3.8175,0.0,3.9222,3.9421,4.0108,4.1565,4.1775,4.2249,4.317,4.1708,4.0976,4.1028,3.8175,3.645,3.599,3.5687,3.4956,3.3738,3.0139,2.8679,0.0,0.0,0.0,0.0,0.0,0.0,0.0,0.0,0.0,0.0,0.0,0.0,0.0,0.0,0.0,0.0,-2.6538,-2.8409,-2.7846,-2.8908,-3.0631,-3.2888,-3.3603,-3.497,-3.784,-3.8133,-3.9087,-4.1428,-4.2649,-4.3757,-4.4797,-4.6417,-4.7593,-4.8187,-4.8681,-4.9082,-4.9465,-4.9589,-4.9742,-4.9825,-4.9718,-4.966,-4.9558,-4.8982,-4.8342,-4.7614,-4.6953,-4.6048,-4.5029,-4.4032,-4.2602,-4.0859,0.0,0.0,0.0,0.0,-2.9815,-2.7373,-2.5492,-2.3505,-2.1444,-1.9326,-1.8049,-1.6979,-1.4141,-1.2824,-1.1953,-1.0089,-0.9126,-0.796,-0.4436,0.0324,0.4983,0.8013,0.9718,1.1196,1.2777,1.3636,1.4678,1.6934,1.7736,0.0,2.1941,2.555,2.8639,3.0231,3.2391,3.4183,3.5267,3.6696,3.7793,3.8274,3.8274,3.8632,3.9421,3.9946,0.0,0.0,0.0,4.2579,4.2118,4.1546,0.0,0.0,0.0,3.4141,3.3845,3.259,0.0,0.0,2.778,2.7133,0.0,0.0,0.0,0.0,0.0,0.0,0.0,0.0,0.0,0.0,0.0,0.0,0.0,0.0,0.0,0.0,-2.3978,-2.5781,-2.4578,-2.5942,-2.7851,-3.0038,-3.0797,-3.2399,-3.5649,-3.6082,-3.7074,-3.9149,-4.0608,-4.1859,-4.2985,-4.4555,-4.6013,-4.7385,-4.777,-4.8373,-4.9215,-4.9454,-4.9634,-4.9746,-4.9721,-4.966,-4.9531,-4.9114,-4.842,-4.7559,-4.6845,-4.6058,-4.5188,-4.3998,-4.2147,-3.9745,-3.7427,-3.4199,-3.0715,-3.0485,-2.8896,-2.6514,-2.4747,-2.2579,-2.0186,-1.8489,-1.6857,-1.5144,-1.2655,-1.1457,-1.063,-0.9001,-0.7608,-0.5918,-0.3049,0.1469,0.5904,0.8052,1.048,1.2809,1.5048,1.6114,1.7188,1.8928,1.9618,2.0876,2.428,2.7598,3.0251,3.1523,3.3345,3.493,3.602,3.7134,3.7896,3.8216,3.8523,3.8944,3.975,4.0678,4.1477,4.2306,4.2579,4.2283,4.1249,4.0923,3.937,3.6381,3.3637,3.1944,0.0,0.0,0.0,0.0,0.0,0.0,0.0,0.0,0.0,0.0,0.0,0.0,0.0,0.0,0.0,0.0,0.0,0.0,0.0,0.0,0.0,0.0,0.0,0.0,-2.2242,-2.3816,-2.5723,-2.7653,-2.7932,-2.9533,-3.3515,-3.4471,-3.5724,-3.7792,-3.9168,-4.0151,-4.0712,-4.1718,-4.3281,-4.5292,-4.6035,-4.711,-4.8805,-4.9306,-4.9634,-4.9746,-4.9621,-4.9574,-4.9564,-4.9285,-4.897,-4.8448,-4.6937,-4.6042,-4.5467,-4.3015,-4.0955,-3.8845,-3.4363,-3.0586,-2.745,-2.6558,-2.6183,-2.5783,-2.326,-2.0877,-1.873,-1.7383,-1.5572,-1.3622,-1.2117,-1.0086,-0.8267,-0.8157,-0.4703,-0.0979,-0.0881,0.3606,0.808,0.8142,1.2185,1.6114,1.6753,1.8904,2.0631,1.9964,2.0945,2.3245,2.7464,2.8372,2.907,3.0987,3.2199,0.0,3.4723,3.5748,3.6878,3.8128,3.9012,3.9816,4.0678,4.1477,4.2364,4.3258,4.202,4.1282,4.1217,4.0209,3.8315,3.5283,3.2784,3.0647,2.8896,0.0,0.0,0.0,0.0,0.0,0.0,0.0,0.0,0.0,0.0,0.0,0.0,0.0,0.0,0.0,0.0,0.0,0.0,0.0,0.0,0.0,0.0,0.0,0.0,-2.1854,-2.3578,-2.4934,-2.5968,-2.7197,-2.9008,-2.9805,-3.0647,-3.1771,-3.3909,-3.5689,-3.6707,-3.8801,-4.0812,-4.2673,-4.343,-4.4226,-4.5053,-4.5857,-4.6282,-4.6398,-4.6462,-4.6315,-4.5935,-4.5878,-4.5256,-4.4205,-4.3657,-4.2761,-4.162,-4.0757,-3.7953,-3.4044,-3.19,-2.9118,-2.6227,-2.5319,-2.5034,-2.4781,-2.3194,-2.1989,-2.0458,-1.6352,-1.3431,-1.1082,-0.9204,-0.799,-0.7047,-0.5492,-0.2963,-0.0195,0.2514,0.5519,0.8563,1.1808,1.3949,1.5715,1.7524,1.87,1.965,2.0983,2.3216,2.5367,2.6856,2.8231,2.9897,3.2049,3.2591,3.3434,3.4998,3.6389,3.761,3.8477,3.9649,4.074,4.1537,4.1834,4.2082,4.2288,4.189,4.0916,3.9342,3.7945,3.6293,3.4323,3.1428,2.9082,2.7345,0.0,0.0,0.0,0.0,0.0,0.0,0.0,0.0,0.0,0.0,0.0,0.0,0.0,0.0,0.0,0.0,0.0,0.0,0.0,0.0,0.0,0.0,0.0,0.0,0.0,0.0,-2.2108,-2.3457,0.0,-2.6329,-2.7264,-2.7986,-2.8387,-3.0472,-3.2096,-3.3139,-3.505,-3.6954,-3.8759,-4.0113,-4.1181,-4.2068,-4.3444,-4.4291,-4.4479,-4.4604,-4.457,-4.4405,-4.4178,-4.3579,-4.2631,-4.1988,-4.0809,-3.9232,-3.7502,-3.3979,-2.9666,-2.8065,-2.5953,-2.3622,-2.2114,-2.1608,-2.1463,-2.0434,-1.974,-1.8618,-1.4669,-1.1575,-0.9135,-0.7725,-0.6361,-0.5063,-0.35,-0.0613,0.2602,0.5062,0.7521,1.0303,1.3793,1.5838,1.7558,1.9347,2.0374,2.1241,2.236,2.4012,2.5486,2.622,2.7343,2.8915,3.1054,3.1591,3.2483,3.4495,3.6264,3.769,3.8603,4.0208,4.1416,4.1952,4.2274,4.2275,4.182,4.1299,4.021,3.8351,3.6441,3.465,3.3102,3.0168,2.7808,0.0,0.0,0.0,0.0,0.0,0.0,0.0,0.0,0.0,0.0,0.0,0.0,0.0,0.0,0.0,0.0,0.0,0.0,0.0,0.0,0.0,0.0,0.0,0.0,0.0,0.0,0.0,-1.9248,-2.0518,0.0,0.0,0.0,0.0,-2.7395,-2.8463,-2.9386,-2.9966,-3.0534,-3.1802,-3.3924,-3.6077,-3.7951,-3.9624,-4.1872,-4.3213,-4.357,-4.3633,-4.3949,-4.4442,-4.3864,-4.3599,-4.3506,-4.1771,-4.0133,-3.82,-3.3255,-2.9251,-2.5939,-2.3251,-2.133,-1.9803,-1.7379,-1.6465,-1.6263,-1.5517,-1.4628,-1.3569,-1.2494,-1.0223,-0.7854,-0.7673,-0.5301,0.0,0.0,0.2325,0.6881,0.6748,0.9619,1.2946,1.4289,1.7864,2.1147,2.174,2.3561,2.477,2.3791,2.3191,2.3516,2.569,0.0,2.6239,2.8362,2.9267,3.0653,3.3188,3.5347,3.7221,3.8564,4.0618,4.1972,4.1972,4.2752,4.2778,4.173,4.0285,3.9114,3.8189,3.5584,3.3316,3.1516,2.8902,0.0,0.0,0.0,0.0,0.0,0.0,0.0,0.0,0.0,0.0,0.0,0.0,0.0,0.0,0.0,0.0,0.0,0.0,0.0,0.0,0.0,0.0,0.0,0.0,0.0,0.0,-1.4532,-1.565,-1.639,-1.7393,-1.8491,0.0,0.0,0.0,0.0,0.0,0.0,-2.5455,-2.6604,-2.8283,-3.067,-3.1837,-3.2968,-3.4104,-3.5291,-3.5998,-3.6157,-3.6655,-3.7369,-3.825,-3.8574,-3.8877,-3.911,-3.8685,-3.7039,-3.4349,-2.9661,-2.6075,-2.3495,-2.2817,-2.1835,-2.0609,-1.9279,-1.8041,-1.6993,-1.6394,-1.4991,-1.3228,-1.16,-1.0173,-0.8659,-0.6516,0.0,0.0,0.0,0.0,0.6867,0.9378,1.1361,1.3427,1.6443,1.7567,1.8564,2.0498,2.1363,2.1926,2.22,2.163,2.1614,2.3485,2.3702,0.0,2.7436,2.8968,3.0336,3.1837,3.435,3.6772,3.8632,4.0353,4.152,4.1804,4.2073,4.1502,3.9868,3.8351,3.7045,3.5999,3.2843,3.034,2.8841,0.0,0.0,0.0,0.0,0.0,0.0,0.0,0.0,0.0,0.0,0.0,0.0,0.0,0.0,0.0,0.0,0.0,0.0,0.0,0.0,0.0,0.0,0.0,0.0,0.0,0.0,0.0,-1.2814,-1.3806,-1.428,-1.546,-1.6595,0.0,0.0,0.0,0.0,0.0,0.0,0.0,0.0,0.0,-2.56,-2.7659,-2.8982,-2.9508,-3.1571,-3.276,-3.3001,-3.3157,-3.3889,-3.5113,-3.5076,-3.5034,-3.4928,-3.4546,-3.3249,-3.1222,-2.8133,-2.5441,-2.3192,0.0,0.0,0.0,0.0,-1.6202,-1.4917,-1.43,-1.2924,-1.125,-0.999,0.0,0.0,0.0,0.0,0.0,0.0,0.0,0.7173,0.9531,1.2264,1.4936,1.7194,1.8672,1.9918,2.1294,2.0551,1.9889,2.0968,2.0582,2.0499,2.1867,2.2233,0.0,0.0,0.0,2.9336,3.124,3.4042,3.6813,3.9354,4.036,4.1193,4.2128,4.1586,4.0581,3.9175,3.7569,3.6298,3.522,3.1288,2.8694,0.0,0.0,0.0,0.0,0.0,0.0,0.0,0.0,0.0,0.0,0.0,0.0,0.0,0.0,0.0,0.0,0.0,0.0,0.0,0.0,0.0,0.0,0.0,0.0,0.0,0.0,0.0,0.0,0.0,-1.1627,-1.2587,0.0,0.0,0.0,0.0,0.0,0.0,0.0,0.0,0.0,0.0,0.0,0.0,0.0,-2.5471,-2.5563,-2.8838,-3.0655,-3.1062,-3.0849,-3.1665,-3.3291,-3.2738,-3.2307,-3.1865,-2.9926,0.0,-2.7799,-2.699,0.0,0.0,0.0,0.0,0.0,0.0,0.0,0.0,0.0,0.0,0.0,0.0,0.0,0.0,0.0,0.0,0.0,0.0,0.0,0.0,0.0,0.0,1.6336,1.7103,1.9751,2.2138,2.2438,2.0295,1.865,1.9904,1.9656,1.9563,0.0,0.0,0.0,0.0,0.0,0.0,3.1053,3.389,3.6902,4.0258,4.0313,4.0828,4.246,4.1145,3.9803,3.8618,3.7078,3.5659,3.4293,3.0098,0.0,0.0,0.0,0.0,0.0,0.0,0.0,0.0,0.0,0.0,0.0,0.0,0.0,0.0,0.0,0.0,0.0,0.0,0.0,0.0,0.0,0.0,0.0,0.0,0.0,0.0,0.0,0.0,0.0,0.0,0.0,0.0,0.0,0.0,0.0,0.0,0.0,0.0,0.0,0.0,0.0,0.0,0.0,0.0,0.0,0.0,0.0,0.0,0.0,0.0,-2.5309,-2.7224,-2.9422,-3.0981,-3.2264,-3.2894,-2.5838,-2.2147,-2.121,-2.2081,0.0,0.0,0.0,0.0,0.0,0.0,0.0,0.0,0.0,0.0,0.0,0.0,0.0,0.0,0.0,0.0,0.0,0.0,0.0,0.0,0.0,0.0,1.479,1.6816,1.7408,1.7962,1.9809,0.0,0.0,0.0,0.0,0.0,0.0,0.0,0.0,0.0,0.0,0.0,3.0699,3.2669,3.5476,4.0155,3.9461,3.9478,4.1475,4.022,3.8303,3.6,3.4395,3.229,0.0,0.0,0.0,0.0,0.0,0.0,0.0,0.0,0.0,0.0,0.0,0.0,0.0,0.0,0.0,0.0,0.0,0.0,0.0,0.0,0.0,0.0,0.0,0.0,0.0,0.0,0.0,0.0,0.0,0.0,0.0,0.0,0.0,0.0,0.0,0.0,0.0,0.0,0.0,0.0,0.0,0.0,0.0,0.0,0.0,0.0,0.0,0.0,0.0,0.0,0.0,0.0,0.0,0.0,0.0,0.0,0.0,0.0,-2.3945,-2.1674,0.0,0.0,0.0,0.0,0.0,0.0,0.0,0.0,0.0,0.0,0.0,0.0,0.0,0.0,0.0,0.0,0.0,0.0,0.0,0.0,0.0,0.0,0.0,0.0,0.0,0.0,0.0,0.0,0.0,0.0,0.0,0.0,0.0,0.0,0.0,0.0,0.0,0.0,0.0,0.0,3.0711,3.2302,3.4917,3.9741,3.8829,3.8617,4.0481,3.8397,3.6512,3.5255,3.219,0.0,0.0,0.0,0.0,0.0,0.0,0.0,0.0,0.0,0.0,0.0,0.0,0.0,0.0,0.0,0.0,0.0,0.0,0.0,0.0,0.0,0.0,0.0,0.0,0.0,0.0,0.0,0.0,0.0,0.0,0.0,0.0,0.0,0.0,0.0,0.0,0.0,0.0,0.0,0.0,0.0,0.0,0.0,0.0,0.0,0.0,0.0,0.0,0.0,0.0,0.0,0.0,0.0,0.0,0.0,0.0,0.0,0.0,0.0,-2.1716,-2.145,0.0,0.0,0.0,0.0,0.0,0.0,0.0,0.0,0.0,0.0,0.0,0.0,0.0,0.0,0.0,0.0,0.0,0.0,0.0,0.0,0.0,0.0,0.0,0.0,0.0,0.0,0.0,0.0,0.0,0.0,0.0,0.0,0.0,0.0,0.0,0.0,0.0,0.0,0.0,0.0,3.0076,3.1857,3.4423,3.8856,3.8245,3.8168,3.9837,3.7025,3.5097,3.4822,3.0634,0.0,0.0,0.0,0.0,0.0,0.0,0.0,0.0,0.0,0.0,0.0,0.0,0.0,0.0,0.0,0.0,0.0,0.0,0.0,0.0,0.0,0.0,0.0,0.0,0.0,0.0,0.0,0.0,0.0,0.0,0.0,0.0,0.0,0.0,0.0,0.0,0.0,0.0,0.0,0.0,0.0,0.0,0.0,0.0,0.0,0.0,0.0,0.0,0.0,0.0,0.0,0.0,0.0,0.0,0.0,0.0,0.0,0.0,0.0,0.0,0.0,0.0,0.0,0.0,0.0,0.0,0.0,0.0,0.0,0.0,0.0,0.0,0.0,0.0,0.0,0.0,0.0,0.0,0.0,0.0,0.0,0.0,0.0,0.0,0.0,0.0,0.0,0.0,0.0,0.0,0.0,0.0,0.0,0.0,0.0,0.0,0.0,0.0,0.0,0.0,0.0,2.7504,3.0508,3.3699,3.7323,3.7567,3.8287,4.0224,3.7197,3.4741,3.3674,0.0,0.0,0.0,0.0,0.0,0.0,0.0,0.0,0.0,0.0,0.0,0.0,0.0,0.0,0.0,0.0,0.0,0.0,0.0,0.0,0.0,0.0,0.0,0.0,0.0,0.0,0.0,0.0,0.0,0.0,0.0,0.0,0.0,0.0,0.0,0.0,0.0,0.0,0.0,0.0,0.0,0.0,0.0,0.0,0.0,0.0,0.0,0.0,0.0,0.0,0.0,0.0,0.0,0.0,0.0,0.0,0.0,0.0,0.0,0.0,0.0,0.0,0.0,0.0,0.0,0.0,0.0,0.0,0.0,0.0,0.0,0.0,0.0,0.0,0.0,0.0,0.0,0.0,0.0,0.0,0.0,0.0,0.0,0.0,0.0,0.0,0.0,0.0,0.0,0.0,0.0,0.0,0.0,0.0,0.0,0.0,0.0,0.0,0.0,0.0,0.0,0.0,2.775,3.1035,3.3953,3.6306,3.748,3.8027,3.7773,3.5591,3.3665,3.2241,0.0,0.0,0.0,0.0,0.0,0.0,0.0,0.0,0.0,0.0,0.0,0.0,0.0,0.0,0.0,0.0,0.0,0.0,0.0,0.0,0.0,0.0,0.0,0.0,0.0,0.0,0.0,0.0,0.0,0.0,0.0,0.0,0.0,0.0,0.0,0.0,0.0,0.0,0.0,0.0,0.0,0.0,0.0,0.0,0.0,0.0,0.0,0.0,0.0,0.0,0.0,0.0,0.0,0.0,0.0,0.0,0.0,0.0,0.0,0.0,0.0,0.0,0.0,0.0,0.0,0.0,0.0,0.0,0.0,0.0,0.0,0.0,0.0,0.0,0.0,0.0,0.0,0.0,0.0,0.0,0.0,0.0,0.0,0.0,0.0,0.0,0.0,0.0,0.0,0.0,0.0,0.0,0.0,0.0,0.0,0.0,0.0,0.0,0.0,0.0,0.0,0.0,2.7557,3.128,3.4068,3.5164,3.72,3.7831,3.6258,3.4585,3.2786,3.0802,0.0,0.0,0.0,0.0,0.0,0.0,0.0,0.0,0.0,0.0,0.0,0.0,0.0,0.0,0.0,0.0,0.0,0.0,0.0,0.0,0.0,0.0,0.0,0.0,0.0,0.0,0.0,0.0,0.0,0.0,0.0,0.0,0.0,0.0,0.0,0.0,0.0,0.0,0.0,0.0,0.0,0.0,0.0,0.0,0.0,0.0,0.0,0.0,0.0,0.0,0.0,0.0,0.0,0.0,0.0,0.0,0.0,0.0,0.0,0.0,0.0,0.0,0.0,0.0,0.0,0.0,0.0,0.0,0.0,0.0,0.0,0.0,0.0,0.0,0.0,0.0,0.0,0.0,0.0,0.0,0.0,0.0,0.0,0.0,0.0,0.0,0.0,0.0,0.0,0.0,0.0,0.0,0.0,0.0,0.0,0.0,0.0,0.0,0.0,0.0,0.0,0.0,2.6229,3.0657,3.3648,3.3648,3.6562,3.7954,3.6659,3.4738,3.2382,0.0,0.0,0.0,0.0,0.0,0.0,0.0,0.0,0.0,0.0,0.0,0.0,0.0,0.0,0.0,0.0,0.0,0.0,0.0,0.0,0.0,0.0,0.0,0.0,0.0,0.0,0.0,0.0,0.0,0.0,0.0,0.0,0.0,0.0,0.0,0.0,0.0,0.0,0.0,0.0,0.0,0.0,0.0,0.0,0.0,0.0,0.0,0.0,0.0,0.0,0.0,0.0,0.0,0.0,0.0,0.0,0.0,0.0,0.0,0.0,0.0,0.0,0.0,0.0,0.0,0.0,0.0,0.0,0.0,0.0,0.0,0.0,0.0,0.0,0.0,0.0,0.0,0.0,0.0,0.0,0.0,0.0,0.0,0.0,0.0,0.0,0.0,0.0,0.0,0.0,0.0,0.0,0.0,0.0,0.0,0.0,0.0,0.0,0.0,0.0,0.0,0.0,0.0,2.6476,3.106,3.4153,3.4153,3.715,3.8039,3.5308,3.4518,3.2307,2.7951,0.0,0.0,0.0,0.0,0.0,0.0,0.0,0.0,0.0,0.0,0.0,0.0,0.0,0.0,0.0,0.0,0.0,0.0,0.0,0.0,0.0,0.0,0.0,0.0,0.0,0.0,0.0,0.0,0.0,0.0,0.0,0.0,0.0,0.0,0.0,0.0,0.0,0.0,0.0,0.0,0.0,0.0,0.0,0.0,0.0,0.0,0.0,0.0,0.0,0.0,0.0,0.0,0.0,0.0,0.0,0.0,0.0,0.0,0.0,0.0,0.0,0.0,0.0,0.0,0.0,0.0,0.0,0.0,0.0,0.0,0.0,0.0,0.0,0.0,0.0,0.0,0.0,0.0,0.0,0.0,0.0,0.0,0.0,0.0,0.0,0.0,0.0,0.0,0.0,0.0,0.0,0.0,0.0,0.0,0.0,0.0,0.0,0.0,0.0,0.0,0.0,0.0,0.0,3.132,3.4411,3.4411,3.7426,3.8099,3.4697,3.4411,3.2042,2.6509,0.0,0.0,0.0,0.0,0.0,0.0,0.0,0.0,0.0,0.0,0.0,0.0,0.0,0.0,0.0,0.0,0.0,0.0,0.0,0.0,0.0,0.0,0.0,0.0,0.0,0.0,0.0,0.0,0.0,0.0,0.0,0.0,0.0,0.0,0.0,0.0,0.0,0.0,0.0,0.0,0.0,0.0,0.0,0.0,0.0,0.0,0.0,0.0,0.0,0.0,0.0,0.0,0.0,0.0,0.0,0.0,0.0,0.0,0.0,0.0,0.0,0.0,0.0,0.0,0.0,0.0,0.0,0.0,0.0,0.0,0.0,0.0,0.0,0.0,0.0,0.0,0.0,0.0,0.0,0.0,0.0,0.0,0.0,0.0,0.0,0.0,0.0,0.0,0.0,0.0,0.0,0.0,0.0,0.0,0.0,0.0,0.0,0.0,0.0,0.0,0.0,0.0,0.0,3.1327,3.4299,3.4411,3.7239,3.7838,3.4659,3.4299,3.1531,2.5098,2.4686,0.0,0.0,0.0,0.0,0.0,0.0,0.0,0.0,0.0,0.0,0.0,0.0,0.0,0.0,0.0,0.0,0.0,0.0,0.0,0.0,0.0,0.0,0.0,0.0,0.0,0.0,0.0,0.0,0.0,0.0,0.0,0.0,0.0,0.0,0.0,0.0,0.0,0.0,0.0,0.0,0.0,0.0,0.0,0.0,0.0,0.0,0.0,0.0,0.0,0.0,0.0,0.0,0.0,0.0,0.0,0.0,0.0,0.0,0.0,0.0,0.0,0.0,0.0,0.0,0.0,0.0,0.0,0.0,0.0,0.0,0.0,0.0,0.0,0.0,0.0,0.0,0.0,0.0,0.0,0.0,0.0,0.0,0.0,0.0,0.0,0.0,0.0,0.0,0.0,0.0,0.0,0.0,0.0,0.0,0.0,0.0,0.0,0.0,0.0,0.0,0.0,0.0,3.039,3.3089,3.4248,3.5108,3.5258,3.4473,3.3313,3.0334,2.5023,2.4686,0.0,0.0,0.0,0.0,0.0,0.0,0.0,0.0,0.0,0.0,0.0,0.0,0.0,0.0,0.0,0.0,0.0,0.0,0.0,0.0,0.0,0.0,0.0,0.0,0.0,0.0,0.0,0.0,0.0,0.0,0.0,0.0,0.0,0.0,0.0,0.0,0.0,0.0,0.0,0.0,0.0,0.0,0.0,0.0,0.0,0.0,0.0,0.0,0.0,0.0,0.0,0.0,0.0,0.0,0.0,0.0,0.0,0.0,0.0,0.0,0.0,0.0,0.0,0.0,0.0,0.0,0.0,0.0,0.0,0.0,0.0,0.0,0.0,0.0,0.0,0.0,0.0,0.0,0.0,0.0,0.0,0.0,0.0,0.0,0.0,0.0,0.0,0.0,0.0,0.0,0.0,0.0,0.0,0.0,0.0,0.0,0.0,0.0,0.0,0.0,0.0,0.0,2.7674,2.9962,3.3085,3.4062,3.4212,3.3498,3.2671,3.003,2.4999,2.4738,0.0,0.0,0.0,0.0,0.0,0.0,0.0,0.0,0.0,0.0,0.0,0.0,0.0,0.0,0.0,0.0,0.0,0.0,0.0,0.0,0.0,0.0,0.0,0.0,0.0,0.0,0.0,0.0,0.0,0.0,0.0,0.0,0.0,0.0,0.0,0.0,0.0,0.0,0.0,0.0,0.0,0.0,0.0,0.0,0.0,0.0,0.0,0.0,0.0,0.0,0.0,0.0,0.0,0.0,0.0,0.0,0.0,0.0,0.0,0.0,0.0,0.0,0.0,0.0,0.0,0.0,0.0,0.0,0.0,0.0,0.0,0.0,0.0,0.0,0.0,0.0,0.0,0.0,0.0,0.0,0.0,0.0,0.0,0.0,0.0,0.0,0.0,0.0,0.0,0.0,0.0,0.0,0.0,0.0,0.0,0.0,0.0,0.0,0.0,0.0,0.0,0.0,0.0,2.6678,3.1354,3.3067,3.3438,3.2349,3.2047,2.9842,2.5034,0.0,0.0,0.0,0.0,0.0,0.0,0.0,0.0,0.0,0.0,0.0,0.0,0.0,0.0,0.0,0.0,0.0,0.0,0.0,0.0,0.0,0.0,0.0,0.0,0.0,0.0,0.0,0.0,0.0,0.0,0.0,0.0,0.0,0.0,0.0,0.0,0.0,0.0,0.0,0.0,0.0,0.0,0.0,0.0,0.0,0.0,0.0,0.0,0.0,0.0,0.0,0.0,0.0,0.0,0.0,0.0,0.0,0.0,0.0,0.0,0.0,0.0,0.0,0.0,0.0,0.0,0.0,0.0,0.0,0.0,0.0,0.0,0.0,0.0,0.0,0.0,0.0,0.0,0.0,0.0,0.0,0.0,0.0,0.0,0.0,0.0,0.0,0.0,0.0,0.0,0.0,0.0,0.0,0.0,0.0,0.0,0.0,0.0,0.0,0.0,0.0,0.0,0.0,0.0,2.6222,2.9762,3.0327,3.097,3.216,3.0932,2.8631,2.5066,0.0,0.0,0.0,0.0,0.0,0.0,0.0,0.0,0.0,0.0,0.0,0.0,0.0,0.0]}]]]